[[{"header":{"parameterUnit":"m.s-1","parameterCategory":1,"la1":31.0,"la2":29.5877,"lo1":-88.7671,"lo2":-86.6584,"dy":0.0162,"dx":0.0185,"nx":115,"ny":88,"refTime":"2023-09-22T00:00:00:Z","depth":0,"parameterNumber":2,"parameterNumberName":"U-component_of_WINDS"},"data":[0.0,0.0,0.0,0.0,0.0,0.0,0.0,0.0,0.0,0.0,0.0,0.0,0.0,0.0,0.0,0.0,0.0,0.0,0.0,0.0,0.0,0.0,0.0,0.0,0.0,0.0,0.0,0.0,0.0,0.0,0.0,0.0,0.0,0.0,0.0,0.0,0.0,0.0,0.0,0.0,0.0,0.0,0.0,0.0,0.0,0.0,0.0,0.0,0.0,0.0,0.0,0.0,0.0,0.0,0.0,0.0,0.0,0.0,0.0,0.0,0.0,0.0,0.0,0.0,0.0,0.0,0.0,0.0,0.0,0.0,0.0,0.0,0.0,0.0,0.0,0.0,0.0,0.0,0.0,0.0,0.0,0.0,0.0,0.0,0.0,0.0,0.0,0.0,0.0,0.0,0.0,0.0,0.0,0.0,0.0,0.0,0.0,0.0,0.0,0.0,0.0,0.0,0.0,0.0,0.0,0.0,0.0,0.0,0.0,0.0,0.0,0.0,0.0,0.0,0.0,0.0,0.0,0.0,0.0,0.0,0.0,0.0,0.0,0.0,0.0,0.0,0.0,0.0,0.0,0.0,0.0,0.0,0.0,0.0,0.0,0.0,0.0,0.0,0.0,0.0,0.0,0.0,0.0,0.0,0.0,0.0,0.0,0.0,0.0,0.0,0.0,0.0,0.0,0.0,0.0,0.0,0.0,0.0,0.0,0.0,0.0,0.0,0.0,0.0,0.0,0.0,0.0,0.0,0.0,0.0,0.0,0.0,0.0,0.0,0.0,0.0,0.0,0.0,0.0,0.0,0.0,0.0,0.0,0.0,0.0,0.0,0.0,0.0,0.0,0.0,0.0,0.0,0.0,0.0,0.0,0.0,0.0,0.0,0.0,0.0,0.0,0.0,0.0,0.0,0.0,0.0,0.0,0.0,0.0,0.0,0.0,0.0,0.0,0.0,0.0,0.0,0.0,0.0,0.0,0.0,0.0,0.0,0.0,0.0,0.0,0.0,0.0,0.0,0.0,0.0,0.0,0.0,0.0,0.0,0.0,0.0,0.0,0.0,0.0,0.0,0.0,0.0,0.0,0.0,0.0,0.0,0.0,0.0,0.0,0.0,0.0,0.0,0.0,0.0,0.0,0.0,0.0,0.0,0.0,0.0,0.0,0.0,0.0,0.0,0.0,0.0,0.0,0.0,0.0,0.0,0.0,0.0,0.0,0.0,0.0,0.0,0.0,0.0,0.0,0.0,0.0,0.0,0.0,0.0,0.0,0.0,0.0,0.0,0.0,0.0,0.0,0.0,0.0,0.0,0.0,0.0,0.0,0.0,0.0,0.0,0.0,0.0,0.0,0.0,0.0,0.0,0.0,0.0,0.0,0.0,0.0,0.0,0.0,0.0,0.0,0.0,0.0,0.0,0.0,0.0,0.0,0.0,0.0,0.0,0.0,0.0,0.0,0.0,0.0,0.0,0.0,0.0,0.0,0.0,0.0,0.0,0.0,0.0,0.0,0.0,0.0,0.0,0.0,0.0,0.0,0.0,0.0,0.0,0.0,0.0,0.0,0.0,0.0,0.0,0.0,0.0,0.0,0.0,0.0,0.0,0.0,0.0,0.0,0.0,0.0,0.0,0.0,0.0,0.0,0.0,0.0,0.0,0.0,0.0,0.0,0.0,0.0,0.0,0.0,0.0,0.0,0.0,0.0,0.0,0.0,0.0,0.0,0.0,0.0,0.0,0.0,0.0,0.0,0.0,0.0,0.0,0.0,0.0,0.0,0.0,0.0,0.0,0.0,0.0,0.0,0.0,0.0,0.0,0.0,0.0,0.0,0.0,0.0,0.0,0.0,0.0,0.0,0.0,0.0,0.0,0.0,0.0,0.0,0.0,0.0,0.0,0.0,0.0,0.0,0.0,0.0,0.0,0.0,0.0,0.0,0.0,0.0,0.0,0.0,0.0,0.0,0.0,0.0,0.0,0.0,0.0,0.0,0.0,0.0,0.0,0.0,0.0,0.0,0.0,0.0,0.0,0.0,0.0,0.0,0.0,0.0,0.0,0.0,0.0,0.0,0.0,0.0,0.0,0.0,0.0,0.0,0.0,0.0,0.0,0.0,0.0,0.0,0.0,0.0,0.0,0.0,0.0,0.0,0.0,0.0,0.0,0.0,0.0,0.0,0.0,0.0,0.0,0.0,0.0,0.0,0.0,0.0,0.0,0.0,0.0,0.0,0.0,0.0,0.0,0.0,0.0,0.0,0.0,0.0,0.0,0.0,0.0,0.0,0.0,0.0,0.0,0.0,0.0,0.0,0.0,0.0,0.0,0.0,0.0,0.0,0.0,0.0,0.0,0.0,0.0,0.0,0.0,0.0,0.0,0.0,0.0,0.0,0.0,0.0,0.0,0.0,0.0,0.0,0.0,0.0,0.0,0.0,0.0,0.0,0.0,0.0,0.0,0.0,0.0,0.0,0.0,0.0,0.0,0.0,0.0,0.0,0.0,0.0,0.0,0.0,0.0,0.0,0.0,0.0,0.0,0.0,0.0,0.0,0.0,0.0,0.0,0.0,0.0,0.0,0.0,0.0,0.0,0.0,0.0,0.0,0.0,0.0,0.0,0.0,0.0,0.0,0.0,0.0,0.0,0.0,0.0,0.0,0.0,0.0,0.0,0.0,0.0,0.0,0.0,0.0,0.0,0.0,0.0,0.0,0.0,0.0,0.0,0.0,0.0,0.0,0.0,0.0,0.0,0.0,0.0,0.0,0.0,0.0,0.0,0.0,0.0,0.0,0.0,0.0,0.0,0.0,0.0,0.0,0.0,0.0,0.0,0.0,0.0,0.0,0.0,0.0,0.0,0.0,0.0,0.0,0.0,0.0,0.0,0.0,0.0,0.0,0.0,0.0,0.0,0.0,0.0,0.0,0.0,0.0,0.0,0.0,0.0,0.0,0.0,0.0,0.0,0.0,0.0,0.0,0.0,0.0,0.0,0.0,0.0,0.0,0.0,0.0,0.0,0.0,0.0,0.0,0.0,0.0,0.0,0.0,0.0,0.0,0.0,0.0,0.0,0.0,0.0,0.0,0.0,0.0,0.0,0.0,0.0,0.0,0.0,0.0,0.0,0.0,0.0,0.0,0.0,0.0,0.0,0.0,0.0,0.0,0.0,0.0,0.0,0.0,0.0,0.0,0.0,0.0,0.0,0.0,0.0,0.0,0.0,0.0,0.0,0.0,0.0,0.0,0.0,0.0,0.0,0.0,0.0,0.0,0.0,0.0,0.0,0.0,0.0,0.0,0.0,0.0,0.0,0.0,0.0,0.0,0.0,0.0,0.0,0.0,0.0,0.0,0.0,0.0,0.0,0.0,0.0,0.0,0.0,0.0,0.0,0.0,0.0,0.0,0.0,0.0,0.0,0.0,0.0,0.0,0.0,0.0,0.0,0.0,0.0,0.0,0.0,0.0,0.0,0.0,0.0,0.0,0.0,0.0,0.0,0.0,0.0,0.0,0.0,0.0,0.0,0.0,0.0,0.0,0.0,0.0,0.0,0.0,0.0,0.0,0.0,0.0,0.0,0.0,0.0,0.0,0.0,0.0,0.0,0.0,0.0,0.0,0.0,0.0,0.0,0.0,0.0,0.0,0.0,0.0,0.0,0.0,0.0,0.0,0.0,0.0,0.0,0.0,0.0,0.0,0.0,0.0,0.0,0.0,0.0,0.0,0.0,0.0,0.0,0.0,0.0,0.0,0.0,0.0,0.0,0.0,0.0,0.0,0.0,0.0,0.0,0.0,0.0,0.0,0.0,0.0,0.0,0.0,0.0,0.0,0.0,0.0,0.0,0.0,0.0,0.0,0.0,0.0,0.0,0.0,0.0,0.0,0.0,0.0,0.0,0.0,0.0,0.0,0.0,0.0,0.0,0.0,0.0,0.0,0.0,0.0,0.0,0.0,0.0,0.0,0.0,0.0,0.0,0.0,0.0,0.0,0.0,0.0,0.0,0.0,0.0,0.0,0.0,0.0,0.0,0.0,0.0,0.0,0.0,0.0,0.0,0.0,0.0,0.0,0.0,0.0,0.0,0.0,0.0,0.0,0.0,0.0,0.0,0.0,0.0,0.0,0.0,0.0,0.0,0.0,0.0,0.0,0.0,0.0,0.0,0.0,0.0,0.0,0.0,0.0,0.0,0.0,0.0,0.0,0.0,0.0,0.0,0.0,0.0,0.0,0.0,0.0,0.0,0.0,0.0,0.0,0.0,0.0,0.0,0.0,0.0,0.0,0.0,0.0,0.0,2.1222,0.0,0.0,0.0,0.0,0.0,0.0,0.0,0.0,0.0,0.0,0.0,0.0,0.0,0.0,0.0,0.0,0.0,0.0,0.0,0.0,0.0,0.0,0.0,0.0,0.0,0.0,0.0,0.0,0.0,0.0,0.0,0.0,0.0,0.0,0.0,0.0,0.0,0.0,0.0,0.0,0.0,0.0,0.0,0.0,0.0,0.0,0.0,0.0,0.0,0.0,0.0,0.0,0.0,0.0,0.0,0.0,0.0,0.0,0.0,0.0,0.0,0.0,0.0,0.0,0.0,0.0,0.0,0.0,0.0,0.0,0.0,0.0,0.0,0.0,0.0,0.0,0.0,0.0,0.0,0.0,0.0,0.0,0.0,0.0,0.0,0.0,0.0,0.0,0.0,0.0,0.0,0.0,0.0,0.0,0.0,0.0,0.0,0.0,0.0,0.0,0.0,0.0,0.0,0.0,0.0,0.0,0.0,0.0,0.0,0.0,2.1706,2.1526,2.1214,2.1031,2.1031,0.0,0.0,0.0,0.0,0.0,0.0,0.0,0.0,0.0,0.0,0.0,0.0,0.0,0.0,0.0,0.0,0.0,0.0,0.0,0.0,0.0,0.0,0.0,0.0,0.0,0.0,0.0,0.0,0.0,0.0,0.0,0.0,0.0,0.0,0.0,0.0,0.0,0.0,0.0,0.0,0.0,0.0,0.0,0.0,0.0,0.0,0.0,0.0,0.0,0.0,0.0,0.0,0.0,0.0,0.0,0.0,0.0,0.0,0.0,0.0,0.0,0.0,0.0,0.0,0.0,0.0,0.0,0.0,0.0,0.0,0.0,0.0,0.0,0.0,0.0,0.0,0.0,0.0,0.0,0.0,0.0,0.0,0.0,0.0,0.0,0.0,0.0,0.0,0.0,0.0,0.0,0.0,0.0,0.0,0.0,0.0,0.0,0.0,0.0,0.0,0.0,0.0,0.0,0.0,0.0,0.0,0.0,0.0,0.0,0.0,0.0,0.0,2.1014,2.0818,2.0818,0.0,0.0,0.0,0.0,0.0,0.0,0.0,0.0,0.0,0.0,0.0,0.0,0.0,0.0,0.0,0.0,0.0,0.0,0.0,0.0,0.0,0.0,0.0,0.0,0.0,0.0,0.0,0.0,0.0,0.0,0.0,0.0,0.0,0.0,0.0,0.0,0.0,0.0,0.0,0.0,0.0,0.0,0.0,0.0,0.0,0.0,0.0,0.0,0.0,0.0,0.0,0.0,0.0,0.0,0.0,0.0,0.0,0.0,0.0,0.0,0.0,0.0,0.0,0.0,0.0,0.0,0.0,0.0,0.0,0.0,0.0,0.0,0.0,0.0,0.0,0.0,0.0,0.0,0.0,0.0,0.0,0.0,0.0,0.0,0.0,0.0,0.0,0.0,0.0,0.0,0.0,0.0,0.0,0.0,0.0,0.0,0.0,0.0,0.0,0.0,0.0,0.0,0.0,0.0,0.0,0.0,0.0,0.0,0.0,0.0,2.148,2.1729,2.1127,0.0,2.0818,0.0,0.0,0.0,0.0,0.0,0.0,0.0,0.0,0.0,0.0,0.0,0.0,0.0,0.0,0.0,0.0,0.0,0.0,0.0,0.0,0.0,0.0,0.0,0.0,0.0,0.0,0.0,0.0,0.0,0.0,0.0,0.0,0.0,0.0,0.0,0.0,0.0,0.0,0.0,0.0,0.0,0.0,0.0,0.0,0.0,0.0,0.0,0.0,0.0,0.0,0.0,0.0,0.0,0.0,0.0,0.0,0.0,0.0,0.0,0.0,0.0,0.0,0.0,0.0,0.0,0.0,0.0,0.0,0.0,0.0,0.0,0.0,0.0,0.0,0.0,0.0,0.0,0.0,0.0,0.0,0.0,0.0,0.0,0.0,0.0,0.0,0.0,0.0,0.0,0.0,0.0,0.0,0.0,0.0,0.0,0.0,0.0,0.0,0.0,0.0,0.0,0.0,0.0,0.0,0.0,0.0,0.0,0.0,0.0,0.0,2.1548,2.151,2.1055,2.0818,0.0,0.0,0.0,0.0,0.0,0.0,0.0,0.0,0.0,0.0,0.0,0.0,0.0,0.0,0.0,0.0,0.0,0.0,0.0,0.0,0.0,0.0,0.0,0.0,0.0,0.0,0.0,0.0,0.0,0.0,0.0,0.0,0.0,0.0,0.0,0.0,0.0,0.0,0.0,0.0,0.0,0.0,0.0,0.0,0.0,0.0,0.0,0.0,0.0,0.0,0.0,0.0,0.0,0.0,0.0,0.0,0.0,0.0,0.0,0.0,0.0,0.0,0.0,0.0,0.0,0.0,0.0,0.0,0.0,0.0,0.0,0.0,0.0,0.0,0.0,0.0,0.0,0.0,0.0,0.0,0.0,0.0,0.0,0.0,0.0,0.0,0.0,0.0,0.0,0.0,0.0,0.0,0.0,0.0,0.0,0.0,0.0,0.0,0.0,0.0,0.0,0.0,0.0,0.0,0.0,0.0,0.0,0.0,0.0,0.0,2.1846,2.151,2.1175,2.0941,2.0818,2.0818,0.0,0.0,0.0,0.0,0.0,0.0,0.0,0.0,0.0,0.0,0.0,0.0,0.0,0.0,0.0,0.0,0.0,0.0,0.0,0.0,0.0,0.0,0.0,0.0,0.0,0.0,0.0,0.0,0.0,0.0,0.0,0.0,0.0,0.0,0.0,0.0,0.0,0.0,0.0,0.0,0.0,0.0,0.0,0.0,0.0,0.0,0.0,0.0,0.0,0.0,0.0,0.0,0.0,0.0,0.0,0.0,0.0,0.0,0.0,0.0,0.0,0.0,0.0,0.0,0.0,0.0,0.0,0.0,0.0,0.0,0.0,0.0,0.0,0.0,0.0,0.0,0.0,0.0,0.0,0.0,0.0,0.0,0.0,0.0,0.0,0.0,0.0,0.0,0.0,0.0,0.0,0.0,0.0,0.0,0.0,0.0,0.0,0.0,0.0,0.0,0.0,0.0,0.0,0.0,0.0,0.0,0.0,0.0,2.2185,2.163,2.1175,2.0844,2.0811,2.0818,0.0,0.0,0.0,0.0,0.0,0.0,0.0,0.0,0.0,0.0,0.0,0.0,0.0,0.0,0.0,0.0,0.0,0.0,0.0,0.0,0.0,0.0,0.0,0.0,0.0,0.0,0.0,0.0,0.0,0.0,0.0,0.0,0.0,0.0,0.0,0.0,0.0,0.0,0.0,0.0,0.0,0.0,0.0,0.0,0.0,0.0,0.0,0.0,0.0,0.0,0.0,0.0,0.0,0.0,0.0,0.0,0.0,0.0,0.0,0.0,0.0,0.0,0.0,0.0,0.0,0.0,0.0,0.0,0.0,0.0,0.0,0.0,0.0,0.0,0.0,0.0,0.0,0.0,0.0,0.0,0.0,0.0,0.0,0.0,0.0,0.0,0.0,0.0,0.0,0.0,0.0,0.0,0.0,0.0,0.0,0.0,0.0,0.0,0.0,0.0,0.0,0.0,0.0,0.0,0.0,0.0,0.0,0.0,0.0,2.2185,2.1615,2.1135,2.0819,2.0818,2.0818,0.0,0.0,0.0,0.0,0.0,0.0,0.0,0.0,0.0,0.0,0.0,0.0,0.0,0.0,0.0,0.0,0.0,0.0,0.0,0.0,0.0,0.0,0.0,0.0,0.0,0.0,0.0,0.0,0.0,0.0,0.0,0.0,0.0,0.0,0.0,0.0,0.0,0.0,0.0,0.0,0.0,0.0,0.0,0.0,0.0,0.0,0.0,0.0,0.0,0.0,0.0,0.0,0.0,0.0,0.0,0.0,0.0,0.0,0.0,0.0,0.0,0.0,0.0,0.0,0.0,0.0,0.0,0.0,0.0,0.0,0.0,0.0,0.0,0.0,0.0,0.0,0.0,0.0,0.0,0.0,0.0,0.0,0.0,0.0,0.0,0.0,0.0,0.0,0.0,0.0,0.0,0.0,0.0,0.0,0.0,0.0,0.0,0.0,0.0,0.0,0.0,0.0,0.0,0.0,0.0,0.0,0.0,0.0,0.0,2.1909,0.0,2.1031,2.0826,2.0818,2.0818,0.0,0.0,0.0,0.0,0.0,0.0,0.0,0.0,0.0,0.0,0.0,0.0,0.0,0.0,0.0,0.0,0.0,0.0,0.0,0.0,0.0,0.0,0.0,0.0,0.0,0.0,0.0,0.0,0.0,0.0,0.0,0.0,0.0,0.0,0.0,0.0,0.0,0.0,0.0,0.0,0.0,0.0,0.0,0.0,0.0,0.0,0.0,0.0,0.0,0.0,0.0,0.0,0.0,0.0,0.0,0.0,0.0,0.0,0.0,0.0,0.0,0.0,0.0,0.0,0.0,0.0,0.0,0.0,0.0,0.0,0.0,0.0,0.0,0.0,0.0,0.0,0.0,0.0,0.0,0.0,0.0,0.0,0.0,0.0,0.0,0.0,0.0,0.0,0.0,0.0,0.0,0.0,0.0,0.0,0.0,0.0,0.0,0.0,0.0,0.0,0.0,0.0,0.0,0.0,0.0,0.0,0.0,0.0,2.1909,2.1324,2.0998,2.0811,2.0818,2.0818,2.0818,0.0,0.0,0.0,0.0,0.0,0.0,0.0,0.0,0.0,0.0,0.0,0.0,0.0,0.0,0.0,0.0,0.0,0.0,0.0,0.0,0.0,0.0,0.0,0.0,0.0,0.0,0.0,0.0,0.0,0.0,0.0,0.0,0.0,0.0,0.0,0.0,0.0,0.0,0.0,0.0,0.0,0.0,0.0,0.0,0.0,0.0,0.0,0.0,0.0,0.0,0.0,0.0,0.0,0.0,0.0,0.0,0.0,0.0,0.0,0.0,0.0,0.0,0.0,0.0,0.0,0.0,0.0,0.0,0.0,0.0,0.0,0.0,0.0,0.0,0.0,0.0,0.0,0.0,0.0,0.0,0.0,0.0,0.0,0.0,0.0,0.0,0.0,0.0,0.0,0.0,0.0,0.0,0.0,0.0,0.0,0.0,0.0,0.0,0.0,0.0,0.0,0.0,0.0,0.0,0.0,0.0,0.0,0.0,0.0,2.1301,2.0974,2.0818,2.0818,2.0818,2.0818,0.0,0.0,0.0,0.0,0.0,0.0,0.0,0.0,0.0,0.0,0.0,0.0,0.0,0.0,0.0,0.0,0.0,0.0,0.0,0.0,0.0,0.0,0.0,0.0,0.0,0.0,0.0,0.0,0.0,0.0,0.0,0.0,0.0,0.0,0.0,0.0,0.0,0.0,0.0,0.0,0.0,0.0,0.0,0.0,0.0,0.0,0.0,0.0,0.0,0.0,0.0,0.0,0.0,0.0,0.0,0.0,0.0,0.0,0.0,0.0,0.0,0.0,0.0,0.0,0.0,0.0,0.0,0.0,0.0,0.0,0.0,0.0,0.0,0.0,0.0,0.0,0.0,0.0,0.0,0.0,0.0,0.0,0.0,0.0,0.0,0.0,0.0,0.0,0.0,0.0,0.0,0.0,0.0,0.0,0.0,0.0,0.0,0.0,0.0,0.0,0.0,0.0,0.0,0.0,0.0,0.0,0.0,0.0,0.0,2.1111,2.0893,2.0818,2.0818,2.0818,2.0818,2.0818,0.0,0.0,0.0,0.0,0.0,0.0,0.0,0.0,0.0,0.0,0.0,0.0,0.0,0.0,0.0,0.0,0.0,0.0,0.0,0.0,0.0,0.0,0.0,0.0,0.0,0.0,0.0,0.0,0.0,0.0,0.0,0.0,0.0,0.0,0.0,0.0,0.0,0.0,0.0,0.0,0.0,0.0,0.0,0.0,0.0,0.0,0.0,0.0,0.0,0.0,0.0,0.0,0.0,0.0,0.0,0.0,0.0,0.0,0.0,0.0,0.0,0.0,0.0,0.0,0.0,0.0,0.0,0.0,0.0,0.0,0.0,0.0,0.0,0.0,0.0,0.0,0.0,0.0,0.0,0.0,0.0,0.0,0.0,0.0,0.0,0.0,0.0,0.0,0.0,0.0,0.0,0.0,0.0,0.0,0.0,0.0,0.0,0.0,0.0,0.0,0.0,0.0,0.0,0.0,0.0,0.0,0.0,0.0,2.0818,2.0818,2.0818,2.0818,2.0818,2.0818,0.0,0.0,0.0,0.0,0.0,0.0,0.0,0.0,0.0,0.0,0.0,0.0,0.0,0.0,0.0,0.0,0.0,0.0,0.0,0.0,0.0,0.0,0.0,0.0,0.0,0.0,0.0,0.0,0.0,0.0,0.0,0.0,0.0,0.0,0.0,0.0,0.0,0.0,0.0,0.0,0.0,0.0,0.0,0.0,0.0,0.0,0.0,0.0,0.0,0.0,0.0,0.0,0.0,0.0,0.0,0.0,0.0,0.0,0.0,0.0,0.0,0.0,0.0,0.0,0.0,0.0,0.0,0.0,0.0,0.0,0.0,0.0,0.0,0.0,0.0,0.0,0.0,0.0,0.0,0.0,0.0,0.0,0.0,0.0,0.0,0.0,0.0,0.0,0.0,0.0,0.0,0.0,0.0,0.0,0.0,0.0,0.0,0.0,0.0,0.0,0.0,0.0,0.0,0.0,0.0,0.0,0.0,0.0,0.0,2.0818,2.0818,2.0818,2.0818,2.0818,2.0818,0.0,0.0,0.0,0.0,0.0,0.0,0.0,0.0,0.0,0.0,0.0,0.0,0.0,0.0,0.0,0.0,0.0,0.0,0.0,0.0,0.0,0.0,0.0,0.0,0.0,0.0,0.0,0.0,0.0,0.0,0.0,0.0,0.0,0.0,0.0,0.0,0.0,0.0,0.0,0.0,0.0,0.0,0.0,0.0,0.0,0.0,0.0,0.0,0.0,0.0,0.0,0.0,0.0,0.0,0.0,0.0,0.0,0.0,0.0,0.0,0.0,0.0,0.0,0.0,0.0,0.0,0.0,0.0,0.0,0.0,0.0,0.0,0.0,0.0,0.0,0.0,0.0,0.0,0.0,0.0,0.0,0.0,0.0,0.0,0.0,0.0,0.0,0.0,0.0,0.0,0.0,0.0,0.0,0.0,0.0,0.0,0.0,0.0,0.0,0.0,0.0,0.0,0.0,0.0,0.0,0.0,0.0,0.0,2.0818,2.0818,2.0818,2.0818,2.0818,2.0818,2.0818,0.0,0.0,0.0,0.0,0.0,0.0,0.0,0.0,0.0,0.0,0.0,0.0,0.0,0.0,0.0,0.0,0.0,0.0,0.0,0.0,0.0,0.0,0.0,0.0,0.0,0.0,0.0,0.0,0.0,0.0,0.0,0.0,0.0,0.0,0.0,0.0,0.0,0.0,0.0,0.0,0.0,0.0,0.0,0.0,0.0,0.0,0.0,0.0,0.0,0.0,0.0,0.0,0.0,0.0,0.0,0.0,0.0,0.0,0.0,0.0,0.0,0.0,0.0,0.0,0.0,0.0,0.0,0.0,0.0,0.0,0.0,0.0,0.0,0.0,0.0,0.0,0.0,0.0,0.0,0.0,0.0,0.0,0.0,0.0,0.0,0.0,0.0,0.0,0.0,0.0,0.0,0.0,0.0,0.0,0.0,0.0,0.0,0.0,0.0,0.0,0.0,0.0,0.0,0.0,0.0,0.0,0.0,0.0,2.0818,2.0818,2.0818,2.0818,2.0818,2.0818,2.0818,0.0,0.0,0.0,0.0,0.0,0.0,0.0,0.0,0.0,0.0,0.0,0.0,0.0,0.0,0.0,0.0,0.0,0.0,0.0,0.0,0.0,0.0,0.0,0.0,0.0,0.0,0.0,0.0,0.0,0.0,0.0,0.0,0.0,0.0,0.0,0.0,0.0,0.0,0.0,0.0,0.0,0.0,0.0,0.0,0.0,0.0,0.0,0.0,0.0,0.0,0.0,0.0,0.0,0.0,0.0,0.0,0.0,0.0,0.0,0.0,0.0,0.0,0.0,0.0,0.0,0.0,0.0,0.0,0.0,0.0,0.0,0.0,0.0,0.0,0.0,0.0,0.0,0.0,0.0,0.0,0.0,0.0,0.0,0.0,0.0,0.0,0.0,0.0,0.0,0.0,0.0,0.0,0.0,0.0,0.0,0.0,0.0,0.0,0.0,0.0,0.0,0.0,0.0,0.0,0.0,0.0,0.0,0.0,2.0818,2.0818,2.0818,2.0818,2.0818,2.0818,2.0818,0.0,0.0,0.0,0.0,0.0,0.0,0.0,0.0,0.0,0.0,0.0,0.0,0.0,0.0,0.0,0.0,0.0,0.0,0.0,0.0,0.0,0.0,0.0,0.0,0.0,0.0,0.0,0.0,0.0,0.0,0.0,0.0,0.0,0.0,0.0,0.0,0.0,0.0,0.0,0.0,0.0,0.0,0.0,0.0,0.0,0.0,0.0,0.0,2.0296,0.0,0.0,0.0,0.0,0.0,0.0,0.0,0.0,0.0,0.0,0.0,0.0,0.0,0.0,0.0,0.0,0.0,0.0,0.0,0.0,0.0,0.0,0.0,0.0,0.0,0.0,0.0,0.0,0.0,0.0,0.0,0.0,0.0,0.0,0.0,0.0,0.0,0.0,0.0,0.0,0.0,0.0,0.0,0.0,0.0,0.0,0.0,0.0,0.0,0.0,0.0,0.0,0.0,0.0,0.0,0.0,0.0,0.0,0.0,2.0818,2.0818,2.0818,2.0818,2.0818,2.0818,2.0818,0.0,0.0,0.0,0.0,0.0,0.0,0.0,0.0,0.0,0.0,0.0,0.0,0.0,0.0,0.0,0.0,0.0,0.0,0.0,0.0,0.0,0.0,0.0,0.0,0.0,0.0,0.0,0.0,0.0,0.0,0.0,0.0,0.0,0.0,0.0,0.0,0.0,0.0,0.0,0.0,0.0,0.0,0.0,0.0,0.0,0.0,0.0,0.0,0.0,0.0,0.0,0.0,0.0,0.0,0.0,0.0,0.0,0.0,0.0,0.0,0.0,0.0,0.0,0.0,0.0,0.0,0.0,0.0,0.0,0.0,0.0,0.0,0.0,0.0,0.0,0.0,0.0,0.0,0.0,0.0,0.0,0.0,0.0,0.0,0.0,0.0,0.0,0.0,0.0,0.0,0.0,0.0,0.0,0.0,0.0,0.0,0.0,0.0,0.0,0.0,0.0,0.0,0.0,0.0,0.0,0.0,0.0,2.0818,2.0818,2.0818,2.0818,2.0818,2.0818,2.0818,2.077,2.0745,0.0,0.0,0.0,0.0,0.0,0.0,0.0,0.0,0.0,0.0,0.0,0.0,0.0,0.0,0.0,0.0,0.0,0.0,0.0,0.0,0.0,0.0,0.0,0.0,0.0,0.0,0.0,0.0,0.0,0.0,0.0,0.0,0.0,0.0,0.0,0.0,0.0,0.0,2.0296,2.0296,0.0,0.0,0.0,0.0,0.0,0.0,0.0,0.0,2.0296,0.0,0.0,0.0,0.0,0.0,0.0,0.0,0.0,0.0,0.0,0.0,0.0,0.0,0.0,0.0,0.0,0.0,0.0,0.0,0.0,0.0,0.0,0.0,0.0,0.0,0.0,0.0,0.0,0.0,0.0,0.0,0.0,0.0,0.0,0.0,0.0,0.0,0.0,0.0,0.0,0.0,0.0,0.0,0.0,0.0,0.0,0.0,0.0,0.0,0.0,0.0,0.0,0.0,0.0,0.0,0.0,2.0818,2.0818,2.0818,2.0818,2.0818,2.0818,2.0818,2.0818,2.0679,2.0495,0.0,0.0,0.0,0.0,0.0,0.0,0.0,0.0,0.0,0.0,0.0,0.0,0.0,0.0,0.0,0.0,0.0,0.0,0.0,0.0,0.0,0.0,0.0,0.0,0.0,0.0,0.0,0.0,0.0,0.0,0.0,0.0,0.0,0.0,0.0,0.0,0.0,0.0,0.0,2.0296,2.0296,0.0,0.0,0.0,0.0,0.0,0.0,0.0,0.0,2.0296,0.0,0.0,0.0,0.0,0.0,0.0,0.0,0.0,0.0,0.0,0.0,0.0,0.0,0.0,0.0,0.0,0.0,0.0,0.0,0.0,0.0,0.0,0.0,0.0,0.0,0.0,0.0,0.0,0.0,0.0,0.0,0.0,0.0,0.0,0.0,0.0,0.0,0.0,0.0,0.0,0.0,0.0,0.0,0.0,0.0,0.0,0.0,0.0,0.0,0.0,0.0,0.0,0.0,0.0,0.0,2.0818,2.0818,2.0818,2.0818,2.0818,2.0818,2.0818,2.0818,2.0678,0.0,0.0,0.0,0.0,0.0,0.0,0.0,0.0,0.0,0.0,0.0,0.0,0.0,0.0,0.0,0.0,0.0,0.0,0.0,0.0,0.0,0.0,0.0,0.0,0.0,0.0,0.0,0.0,0.0,0.0,0.0,0.0,0.0,0.0,0.0,0.0,0.0,0.0,0.0,0.0,2.0296,2.0296,2.0296,0.0,0.0,0.0,0.0,0.0,0.0,2.0296,2.0296,0.0,0.0,0.0,0.0,0.0,0.0,0.0,0.0,0.0,0.0,0.0,0.0,0.0,0.0,0.0,0.0,0.0,0.0,0.0,0.0,0.0,0.0,0.0,0.0,0.0,0.0,0.0,0.0,0.0,0.0,0.0,0.0,0.0,0.0,0.0,0.0,0.0,0.0,0.0,0.0,0.0,0.0,0.0,0.0,0.0,0.0,0.0,0.0,0.0,0.0,0.0,0.0,0.0,0.0,0.0,2.0818,2.0818,2.0818,2.0818,2.0818,2.0818,2.0818,2.0818,2.0653,0.0,0.0,0.0,0.0,0.0,0.0,0.0,0.0,0.0,0.0,0.0,0.0,0.0,0.0,0.0,0.0,0.0,0.0,0.0,0.0,0.0,0.0,0.0,0.0,0.0,0.0,0.0,0.0,0.0,0.0,0.0,0.0,0.0,0.0,0.0,0.0,0.0,0.0,0.0,0.0,0.0,2.0296,2.0296,2.0296,0.0,0.0,0.0,0.0,2.0296,2.0296,0.0,0.0,0.0,0.0,0.0,0.0,0.0,0.0,0.0,0.0,0.0,0.0,0.0,0.0,0.0,0.0,0.0,0.0,0.0,0.0,0.0,0.0,0.0,0.0,0.0,0.0,0.0,0.0,0.0,0.0,0.0,0.0,0.0,0.0,0.0,0.0,0.0,0.0,0.0,0.0,0.0,0.0,0.0,0.0,0.0,0.0,0.0,0.0,0.0,0.0,0.0,0.0,0.0,0.0,0.0,0.0,2.0818,2.0818,2.0818,2.0818,2.0818,2.0818,2.0818,2.0818,2.0569,0.0,0.0,0.0,0.0,0.0,0.0,0.0,0.0,0.0,0.0,0.0,0.0,0.0,0.0,0.0,0.0,0.0,0.0,0.0,0.0,0.0,0.0,0.0,0.0,0.0,0.0,0.0,0.0,0.0,0.0,0.0,0.0,0.0,0.0,0.0,0.0,0.0,0.0,0.0,0.0,0.0,2.0296,2.0296,2.0296,2.0296,0.0,0.0,2.0296,2.0296,2.0296,0.0,0.0,0.0,0.0,0.0,0.0,0.0,0.0,0.0,0.0,0.0,0.0,0.0,0.0,0.0,0.0,0.0,0.0,0.0,0.0,0.0,0.0,0.0,0.0,0.0,0.0,0.0,0.0,0.0,0.0,0.0,0.0,0.0,0.0,0.0,0.0,0.0,0.0,0.0,0.0,0.0,0.0,0.0,0.0,0.0,0.0,0.0,0.0,0.0,0.0,0.0,0.0,0.0,0.0,0.0,2.0984,2.1346,2.1386,2.1609,2.1981,2.1988,2.1997,2.1988,2.1819,2.1533,0.0,0.0,0.0,0.0,0.0,0.0,0.0,0.0,0.0,0.0,0.0,0.0,0.0,0.0,0.0,0.0,0.0,0.0,0.0,0.0,0.0,0.0,0.0,0.0,0.0,0.0,0.0,0.0,0.0,0.0,0.0,0.0,0.0,0.0,0.0,0.0,0.0,0.0,0.0,0.0,0.0,0.0,2.0296,2.0296,0.0,0.0,0.0,2.0296,2.0296,0.0,0.0,0.0,0.0,0.0,0.0,0.0,0.0,0.0,0.0,0.0,0.0,0.0,0.0,0.0,0.0,0.0,0.0,0.0,0.0,0.0,0.0,0.0,0.0,0.0,0.0,0.0,0.0,0.0,0.0,0.0,0.0,0.0,0.0,0.0,0.0,0.0,0.0,0.0,0.0,0.0,0.0,0.0,0.0,0.0,0.0,0.0,0.0,0.0,0.0,0.0,0.0,0.0,0.0,0.0,0.0,0.0,2.2057,2.2122,2.2399,2.2866,2.2889,2.2889,2.2889,2.2667,0.0,0.0,0.0,0.0,0.0,0.0,0.0,0.0,0.0,0.0,0.0,0.0,0.0,0.0,0.0,0.0,0.0,0.0,0.0,0.0,0.0,0.0,0.0,0.0,0.0,0.0,0.0,2.0296,0.0,0.0,0.0,0.0,0.0,0.0,0.0,0.0,0.0,0.0,0.0,0.0,0.0,0.0,2.0296,2.0296,2.0443,2.0558,0.0,0.0,2.082,2.0804,2.0789,2.0804,0.0,0.0,0.0,0.0,0.0,0.0,0.0,0.0,0.0,0.0,0.0,0.0,0.0,0.0,0.0,0.0,0.0,0.0,0.0,0.0,0.0,0.0,0.0,0.0,0.0,0.0,0.0,0.0,0.0,0.0,0.0,0.0,0.0,0.0,0.0,0.0,0.0,0.0,0.0,0.0,0.0,0.0,0.0,0.0,0.0,0.0,0.0,0.0,0.0,0.0,0.0,0.0,0.0,0.0,2.2763,2.2826,2.2826,2.2857,2.2889,2.2889,2.2889,2.2889,2.2896,2.2478,0.0,0.0,0.0,0.0,0.0,0.0,0.0,0.0,0.0,0.0,0.0,0.0,0.0,0.0,0.0,0.0,0.0,0.0,0.0,0.0,0.0,0.0,0.0,0.0,0.0,0.0,0.0,0.0,0.0,0.0,0.0,0.0,0.0,0.0,0.0,0.0,0.0,0.0,0.0,0.0,0.0,2.0296,2.0296,2.0835,2.1227,0.0,2.1766,2.2157,2.2157,2.2157,2.2182,2.2141,0.0,0.0,0.0,0.0,0.0,0.0,0.0,0.0,0.0,0.0,0.0,0.0,0.0,0.0,0.0,0.0,0.0,0.0,0.0,0.0,0.0,0.0,0.0,0.0,0.0,0.0,0.0,0.0,0.0,0.0,0.0,0.0,0.0,0.0,0.0,0.0,0.0,0.0,0.0,0.0,0.0,0.0,0.0,0.0,0.0,0.0,0.0,0.0,0.0,0.0,0.0,0.0,0.0,2.296,2.3444,2.3368,2.3528,2.3942,2.3957,2.4002,2.407,2.3785,2.3366,0.0,0.0,0.0,0.0,0.0,0.0,0.0,0.0,0.0,0.0,0.0,0.0,0.0,0.0,0.0,0.0,0.0,0.0,0.0,0.0,0.0,0.0,0.0,0.0,0.0,0.0,0.0,0.0,2.0296,2.0296,2.0296,0.0,0.0,0.0,0.0,0.0,0.0,0.0,0.0,0.0,0.0,2.1066,2.1482,2.175,0.0,0.0,2.2126,2.2305,2.2305,2.2305,2.2185,2.1925,2.2074,0.0,0.0,0.0,0.0,0.0,0.0,0.0,0.0,0.0,0.0,0.0,0.0,0.0,0.0,0.0,0.0,0.0,0.0,0.0,0.0,0.0,0.0,0.0,0.0,0.0,0.0,0.0,0.0,0.0,0.0,0.0,0.0,0.0,0.0,0.0,0.0,0.0,0.0,0.0,0.0,0.0,0.0,0.0,0.0,0.0,0.0,0.0,0.0,0.0,0.0,0.0,0.0,2.3489,2.41,2.4006,2.4166,2.4594,2.463,2.4686,2.4716,2.4416,2.3989,0.0,0.0,0.0,0.0,0.0,0.0,0.0,0.0,0.0,0.0,0.0,0.0,0.0,0.0,0.0,0.0,0.0,0.0,0.0,0.0,0.0,0.0,0.0,0.0,0.0,0.0,0.0,0.0,2.0228,2.0331,2.0573,0.0,0.0,0.0,0.0,0.0,0.0,0.0,0.0,0.0,0.0,2.1766,2.2234,2.265,2.2902,2.2911,2.3081,2.3209,2.3194,2.3025,2.2739,2.2284,0.0,0.0,0.0,0.0,0.0,0.0,0.0,0.0,0.0,0.0,0.0,0.0,0.0,0.0,0.0,0.0,0.0,0.0,0.0,0.0,0.0,0.0,0.0,0.0,0.0,0.0,0.0,2.2705,0.0,0.0,2.275,0.0,0.0,0.0,0.0,0.0,0.0,0.0,0.0,0.0,0.0,0.0,0.0,0.0,0.0,0.0,0.0,0.0,0.0,0.0,0.0,0.0,0.0,2.4588,2.4786,2.4735,2.4695,2.4599,2.4732,2.4726,2.4599,2.4579,2.4079,2.3047,0.0,0.0,0.0,0.0,0.0,0.0,0.0,0.0,0.0,0.0,0.0,0.0,0.0,0.0,0.0,0.0,0.0,0.0,0.0,0.0,0.0,0.0,0.0,0.0,0.0,0.0,2.0163,2.0122,2.0435,0.0,0.0,0.0,0.0,0.0,0.0,0.0,0.0,0.0,2.2265,2.228,2.2305,2.2366,2.344,2.4199,2.4251,2.4794,2.5193,2.5156,2.4655,2.41,0.0,0.0,0.0,0.0,0.0,0.0,0.0,0.0,0.0,0.0,0.0,0.0,0.0,0.0,0.0,0.0,0.0,0.0,0.0,0.0,0.0,0.0,0.0,0.0,0.0,0.0,0.0,2.3416,2.344,0.0,0.0,0.0,0.0,0.0,0.0,0.0,0.0,0.0,0.0,0.0,2.4896,2.4769,0.0,0.0,0.0,0.0,0.0,0.0,0.0,0.0,0.0,0.0,0.0,0.0,2.462,2.4666,2.463,2.4564,2.4549,2.4493,2.4493,2.4539,2.4452,2.3937,2.2965,0.0,0.0,0.0,0.0,0.0,0.0,0.0,0.0,0.0,0.0,0.0,0.0,0.0,0.0,0.0,0.0,0.0,0.0,0.0,0.0,0.0,0.0,0.0,0.0,0.0,2.0935,0.0,0.0,0.0,0.0,0.0,0.0,0.0,0.0,0.0,0.0,0.0,2.2465,2.2902,2.2963,2.3296,2.4169,2.4374,2.4591,0.0,0.0,0.0,0.0,0.0,0.0,0.0,0.0,0.0,0.0,0.0,0.0,0.0,0.0,2.0716,2.0775,2.0958,2.1122,2.1192,0.0,0.0,0.0,0.0,0.0,0.0,0.0,0.0,0.0,0.0,0.0,0.0,0.0,0.0,2.4215,2.4215,2.4198,0.0,0.0,0.0,0.0,0.0,0.0,0.0,0.0,2.5168,2.5291,2.5594,2.547,2.5556,0.0,2.5278,2.4643,0.0,0.0,0.0,0.0,0.0,0.0,0.0,0.0,2.4533,2.4564,2.4529,2.4477,2.4421,2.439,2.4307,2.4177,2.3782,2.329,2.2675,2.1841,2.1397,0.0,0.0,0.0,0.0,0.0,0.0,0.0,0.0,0.0,0.0,0.0,0.0,0.0,0.0,0.0,0.0,0.0,0.0,0.0,0.0,0.0,0.0,0.0,2.1499,0.0,0.0,0.0,0.0,0.0,0.0,0.0,0.0,0.0,2.2732,2.2865,2.324,2.3917,2.3984,2.4399,2.5522,0.0,0.0,0.0,0.0,0.0,0.0,0.0,2.5138,2.4072,2.4185,2.3971,2.2583,2.1937,2.1658,2.1784,0.0,0.0,2.1076,2.0936,2.0913,2.0913,2.0948,2.1025,2.1164,2.1202,2.1268,0.0,0.0,0.0,0.0,0.0,0.0,0.0,0.0,2.504,2.5033,0.0,2.5033,0.0,0.0,0.0,0.0,2.4989,2.5016,0.0,0.0,2.5942,2.6277,2.6858,2.685,2.6607,2.6105,2.6053,2.5638,2.4881,2.4502,0.0,0.0,0.0,0.0,0.0,0.0,2.4369,2.4498,2.4498,2.4436,2.4327,2.4421,2.4223,2.3629,2.2729,2.2259,2.2196,2.1686,2.1397,2.1397,2.1397,0.0,0.0,0.0,0.0,0.0,0.0,0.0,0.0,0.0,0.0,0.0,0.0,0.0,0.0,0.0,0.0,0.0,0.0,0.0,0.0,2.1936,0.0,0.0,0.0,0.0,0.0,0.0,0.0,0.0,0.0,2.4014,2.3461,2.3933,2.4569,2.5198,0.0,0.0,0.0,0.0,2.713,2.6533,2.6955,2.6895,2.5814,2.5563,2.5142,2.4094,0.0,0.0,2.2938,2.259,2.2443,2.2576,2.2484,2.2128,2.1251,2.1068,2.1019,2.1018,2.1093,2.1212,2.16,2.172,2.1825,2.7099,0.0,0.0,0.0,0.0,2.6422,2.6207,2.5791,2.5774,2.5799,2.5774,2.5774,0.0,0.0,0.0,0.0,0.0,0.0,2.6572,2.6746,2.665,2.6713,2.6884,2.6817,2.6513,2.6104,2.5824,2.5408,2.4902,2.4492,2.4359,2.4446,0.0,0.0,0.0,0.0,2.4498,2.4498,2.4498,2.4527,2.4589,2.4519,2.4253,2.3756,2.3165,2.2646,2.221,2.1688,2.1397,2.1397,2.1397,0.0,0.0,0.0,0.0,0.0,0.0,0.0,0.0,0.0,0.0,0.0,0.0,0.0,0.0,0.0,0.0,0.0,0.0,0.0,2.2419,2.3102,2.3441,0.0,0.0,0.0,0.0,0.0,0.0,0.0,0.0,0.0,2.4753,2.4881,2.512,0.0,0.0,2.6032,2.5915,2.6069,2.6161,2.6073,2.5866,0.0,2.5122,2.5349,2.5303,2.4531,2.4082,2.3744,2.3498,2.3097,2.2831,2.2884,2.2791,2.2591,2.2352,2.2194,2.2154,2.222,2.2194,2.2168,2.2206,2.2193,2.2098,2.9381,2.8902,2.8083,2.7828,2.7971,2.7971,2.7763,2.7446,2.7463,2.7446,2.7446,2.7446,2.7722,2.8178,2.8163,0.0,0.0,0.0,2.7887,2.7853,2.776,2.7734,2.7725,2.7448,2.7126,2.6731,2.6293,2.5882,2.5493,2.5256,2.5191,2.524,0.0,0.0,2.524,2.5293,2.5282,2.5229,2.5229,2.529,2.5363,2.488,2.4376,2.385,2.3376,2.2974,2.2614,2.2292,2.2117,2.2117,2.2105,2.197,0.0,0.0,0.0,0.0,0.0,0.0,0.0,0.0,0.0,0.0,0.0,1.9815,2.0328,0.0,0.0,0.0,2.1728,2.2137,2.2735,2.3148,0.0,0.0,0.0,0.0,0.0,0.0,0.0,2.4061,2.4576,2.5133,2.5701,2.5788,2.5784,2.5872,2.603,2.6129,2.6101,0.0,2.6412,2.6229,2.6316,2.6201,2.5695,2.6044,2.6186,2.5505,2.5165,2.488,2.4693,2.4401,2.4123,2.3867,2.3744,2.3609,2.344,2.3275,2.3035,2.2709,2.2576,2.2561,2.2662,2.2728,2.2601,3.086,3.0764,2.9439,2.8942,2.904,2.9033,2.9219,2.9498,2.9489,2.9506,2.9506,2.9506,2.9506,2.9498,2.9411,0.0,2.9128,2.9119,2.9066,2.9002,2.9002,2.9019,2.8975,2.8558,2.8116,2.7668,2.7269,2.6825,2.6398,2.6376,2.6422,2.6468,2.5799,2.5795,2.6376,2.6391,2.6364,2.6296,2.6349,2.6373,2.6317,2.5396,2.4588,2.3941,2.3505,2.3242,2.3202,2.3188,2.3202,2.3189,2.3202,2.2892,2.2249,0.0,0.0,0.0,0.0,0.0,0.0,0.0,0.0,0.0,0.0,0.0,0.0,0.0,0.0,0.0,2.2979,0.0,2.2957,2.2486,0.0,0.0,0.0,2.3389,2.4116,2.363,2.3785,2.5129,0.0,0.0,2.6256,2.6483,2.652,2.6517,2.6119,2.6046,2.6559,2.7155,2.7394,2.6778,2.7613,2.7938,2.6823,2.7033,2.7081,2.6521,2.6564,2.635,2.6078,2.6003,2.5781,2.5205,2.5118,2.4992,2.453,2.4376,2.3958,2.2978,2.2663,2.2701,2.306,2.3134,2.305,3.2386,3.2411,3.2654,3.1459,2.9394,2.9386,2.9429,2.9506,2.9506,2.9506,2.9506,2.9506,2.9506,2.9506,2.9429,2.9385,2.9332,2.921,2.9156,2.9083,2.9074,2.9047,2.8984,2.8883,2.8427,2.7725,2.7592,2.7158,2.6425,2.6391,2.6653,2.7119,2.6992,2.6718,2.6406,2.6391,2.6364,2.6311,2.6364,2.6217,2.5877,2.5714,2.5112,2.4067,2.3933,2.3662,2.3215,2.3202,2.3202,2.3202,2.3202,2.3108,2.2946,2.2841,0.0,0.0,0.0,0.0,0.0,0.0,0.0,0.0,0.0,2.1614,2.2492,0.0,2.296,0.0,2.3689,2.3668,2.3443,2.3194,0.0,0.0,2.3127,2.3478,2.4066,2.4462,2.4855,2.5247,2.5696,2.5954,2.5906,2.634,2.6631,2.6645,2.6945,2.6894,2.6272,2.6959,2.7394,2.6951,2.7073,2.7067,2.6803,2.6614,2.6598,2.64,2.6398,2.6307,2.6136,2.6186,2.6179,2.6029,2.6108,2.6087,2.5805,2.5804,2.5559,2.5061,2.4321,2.3563,2.3227,2.3137,2.2832,3.3431,3.3465,3.3914,3.3093,3.155,3.1558,3.1541,3.1541,3.155,3.1541,3.1541,3.1558,3.1514,3.1441,3.1356,3.1298,3.1268,3.1122,3.1063,3.1005,3.1005,3.0833,3.0456,3.0042,2.9416,2.8633,2.8205,2.7745,2.7323,2.7288,2.7488,2.7842,2.7842,2.7657,2.7315,2.7288,2.7272,2.7245,2.7261,2.6913,2.6194,2.6216,2.5697,2.4544,2.4503,2.4326,2.4028,2.4001,2.3987,2.4001,2.3947,2.3784,2.3528,2.3312,2.3217,0.0,0.0,0.0,0.0,0.0,0.0,0.0,0.0,0.0,0.0,0.0,2.2652,2.3334,2.3454,2.3458,2.3301,2.3253,2.3261,2.3413,2.3652,2.4017,2.457,2.4587,2.4778,2.534,2.5606,2.5824,2.603,2.644,2.6721,2.674,2.725,2.7319,2.6581,2.7111,2.7527,2.7249,2.7432,2.7579,2.7485,2.7393,2.7317,2.7317,2.7254,2.7143,2.703,2.6969,2.6858,2.6572,2.6566,2.639,2.5763,2.5583,2.5428,2.4895,2.4323,2.3831,2.3545,2.3449,2.3022,3.4241,3.4241,3.4345,3.4379,3.4379,3.4379,3.4259,3.4086,3.4086,3.4086,3.4086,3.4086,3.4027,3.39,3.3761,3.3659,3.359,3.3476,3.3389,3.3389,3.3389,3.3061,3.2405,3.1534,3.0753,3.0052,2.9069,2.8595,2.8519,2.8442,2.8411,2.8411,2.8411,2.8411,2.8411,2.8411,2.8411,2.8411,2.8323,2.7773,2.6717,2.664,2.6067,2.5075,2.4991,2.4991,2.4991,2.4991,2.4991,2.4991,2.4892,2.4578,2.4052,2.3775,2.3649,0.0,2.3007,0.0,0.0,0.0,0.0,0.0,0.0,0.0,0.0,2.2025,2.2086,2.2953,2.3034,2.3034,2.3045,2.3098,2.3386,2.3954,2.4189,2.4509,2.5053,2.4464,2.439,2.5473,2.5269,2.5436,2.6383,2.6705,2.6866,2.6985,2.7482,2.7661,2.7201,2.7517,2.7845,2.7827,2.8261,2.8451,2.8462,2.8532,2.8519,2.853,2.8317,2.8268,2.8065,2.795,2.7657,2.7104,2.7005,2.6609,2.533,2.5138,2.4839,2.4335,2.4006,2.3769,2.3689,2.3605,2.3231,3.4983,3.5052,3.5639,3.5887,3.587,3.5887,3.5207,3.4086,3.4086,3.4086,3.4086,3.4086,3.4027,3.389,3.3761,3.3659,3.3607,3.3465,3.3389,3.3389,3.3389,3.3311,3.3155,3.2585,3.1991,3.1438,3.0351,2.9587,2.9199,2.8661,2.8411,2.8411,2.8411,2.8411,2.8411,0.0,0.0,0.0,2.7922,2.735,2.6704,2.627,2.5729,2.5019,2.4991,0.0,2.4991,2.4991,2.4991,2.4991,2.4977,0.0,0.0,0.0,0.0,0.0,0.0,0.0,0.0,0.0,0.0,0.0,2.3279,2.3084,2.3542,2.3491,2.3509,2.3697,2.3695,2.3759,2.3858,2.3593,2.3499,2.3664,2.37,2.3885,2.4409,2.4794,2.5323,2.6036,2.6232,2.6426,2.672,2.7177,2.7503,2.7558,2.8044,2.8372,2.8248,2.8315,2.841,2.8438,2.8519,2.8587,2.8587,2.8587,2.8587,2.8571,2.8444,2.8287,2.8268,2.8235,2.8203,2.7921,2.8123,2.8012,2.7413,2.6932,2.6127,2.5915,2.4961,2.3961,2.3077,2.2843,2.2591,3.5749,3.5783,3.6146,3.6284,0.0,3.6284,3.587,3.5173,3.519,3.519,3.519,3.519,3.5149,3.5081,3.4967,3.4911,3.4876,3.4684,3.4581,3.4581,3.4516,3.4292,3.3926,3.317,3.2474,3.1871,3.0772,3.0114,2.9876,2.9569,2.923,2.8904,2.8907,2.8722,2.8411,2.8411,2.8259,2.7959,2.7655,2.712,2.6336,2.6042,2.5619,2.5033,2.4991,0.0,0.0,0.0,0.0,0.0,0.0,0.0,0.0,2.4707,0.0,2.4591,2.452,2.4406,2.4321,2.4379,2.442,2.4346,2.3984,2.3586,2.3294,2.35,2.3694,2.3742,2.3897,2.4037,2.4101,2.4149,2.4214,2.4332,2.4413,2.4584,2.4955,2.5342,2.5702,2.5982,2.6453,2.6849,2.7128,2.7455,2.7827,2.8098,2.8397,2.8587,2.8587,2.8587,2.8587,2.8587,2.8587,2.8587,2.8587,2.8587,2.8587,2.8571,2.843,2.832,2.829,2.8235,2.8069,2.7663,2.76,2.7384,2.6313,2.5795,2.5345,2.4826,2.4175,2.3582,2.2918,2.2869,2.274,3.6284,3.6284,3.6284,3.6284,3.6284,3.6284,3.6284,3.6284,3.6284,0.0,0.0,3.6284,3.629,3.6297,3.6219,3.6193,3.6144,3.5905,3.5795,3.5795,3.5656,3.5273,3.4648,3.3653,3.285,3.2239,3.1111,3.0584,3.0568,3.0463,3.0125,2.963,2.9569,2.923,2.8602,2.836,2.7947,2.7388,2.7363,2.6888,2.5934,2.5798,2.5508,2.5005,2.4991,2.4991,2.4991,2.4991,2.4991,2.4991,2.4906,2.4863,2.492,2.4735,2.4634,2.4591,2.4634,2.4564,2.4393,2.4535,2.462,2.4591,2.445,2.3939,2.2946,2.3272,2.3566,2.3685,2.3959,2.4155,2.4181,2.46,2.4919,2.508,2.5314,2.5494,2.5674,2.59,2.6033,2.6076,2.6612,2.7155,2.7645,2.7802,2.8017,2.8467,2.8573,2.8587,2.8587,2.8587,2.8587,2.8587,2.8587,2.8587,2.8587,2.8587,2.8587,2.8587,2.846,2.8349,2.8271,2.8102,2.7627,2.6968,2.6663,2.6015,2.4743,2.4505,2.4011,2.3342,2.3194,2.3187,2.3154,2.3286,2.3231,3.6284,3.6284,3.6284,3.6284,3.6284,3.6284,3.6284,3.6284,3.6284,3.6284,3.6284,3.6284,3.6276,3.6208,3.6187,3.6133,3.6025,3.5861,3.5795,3.5795,3.5656,3.5543,3.5386,3.4369,3.38,3.3584,3.2047,3.1257,3.1182,3.0692,3.0353,3.0279,3.0263,2.991,2.9223,2.8185,2.7363,2.6821,2.6808,2.6508,2.5907,2.5384,2.509,2.5005,2.4991,2.4991,2.4991,2.4991,2.4991,2.4991,2.4977,2.4878,2.4677,2.4735,2.4721,2.462,2.4692,2.475,2.4749,2.475,2.4734,2.462,2.4577,2.4368,2.3948,2.395,2.4008,2.4038,2.4174,2.4354,2.4522,2.4703,2.487,2.505,2.5398,2.5677,2.5749,2.6217,2.6681,2.7126,2.7422,2.7784,2.8286,2.8408,2.8438,2.856,2.8587,2.8587,2.8587,2.8587,2.8587,2.8587,2.8587,2.8587,2.8587,2.8587,2.8587,2.8587,2.8571,2.8492,2.8349,2.7848,2.7321,2.6905,2.6389,2.5789,2.5252,2.5069,2.4564,2.3986,2.39,2.3879,2.3556,2.3722,2.3732,3.5902,3.5963,3.6188,3.6284,3.6284,3.6284,3.6284,3.6284,3.6284,3.6284,3.6284,3.6284,3.6286,3.6255,3.6244,3.6223,3.617,3.5986,3.5916,3.5866,3.5385,3.5178,3.5057,3.4053,3.3559,3.3479,3.2478,3.195,3.1919,3.1615,3.1305,3.0909,3.0238,2.9548,2.8942,2.8023,2.7148,2.6284,2.6256,2.5973,2.5425,2.5146,2.4991,2.4991,2.4991,2.4991,2.4991,2.4991,2.4991,2.4991,2.4991,2.4948,2.4835,2.4878,2.4849,2.4721,2.4835,2.4878,2.482,2.4863,2.4849,2.4721,2.472,2.462,2.4403,2.4433,2.4505,2.4577,2.4592,2.4621,2.4692,2.4692,2.4856,2.5323,2.5577,2.5846,2.6269,2.6838,2.7298,2.7597,2.7956,2.8288,2.8576,2.8587,2.8587,2.8587,2.8587,2.8587,2.8587,2.8587,2.8587,2.8587,2.8587,2.8587,2.8587,2.8587,2.8587,2.8587,2.8587,2.8557,2.8444,2.7914,2.7321,2.6735,2.6089,2.5487,2.4975,2.4695,2.4437,2.4274,2.4177,2.4043,2.3751,2.3593,2.3494,3.5493,3.5655,3.5996,3.6206,3.6284,3.6284,3.6284,3.6284,3.6284,3.6284,3.6284,3.6284,3.6284,3.6284,3.6284,3.6284,3.628,3.6127,3.603,3.5932,3.5224,3.4845,3.4685,3.37,3.3211,3.3145,3.2654,3.2411,3.2411,3.2411,3.215,3.1555,3.0438,2.9581,2.9022,2.8095,2.712,2.6146,2.5826,2.5481,2.5019,2.4991,2.4991,2.4991,2.4991,2.4991,2.4991,2.4991,2.4991,2.4991,2.4991,2.4991,2.4963,2.4991,2.4934,2.4821,2.492,2.4948,2.4863,2.4948,2.4948,2.4849,2.4849,2.4806,2.472,2.4791,2.4849,2.4892,2.4821,2.4806,2.4819,2.4883,2.5138,2.5685,2.5995,2.6418,2.694,2.7556,2.7908,2.7963,2.8331,2.8573,2.8587,2.8587,2.8587,2.8587,2.8587,2.8587,2.8587,2.8587,2.8587,2.8587,2.8587,2.8587,2.8587,2.8587,2.8587,2.8587,2.8587,2.849,2.8298,2.7855,2.7166,2.6291,2.5645,2.5052,2.437,2.4327,2.4273,2.4116,2.4261,2.4358,2.4025,2.3538,2.3235,3.5173,3.5588,3.5661,3.592,3.629,3.6284,3.6284,3.6284,3.6284,3.6284,3.6284,3.6284,3.6284,3.6284,3.6284,3.6284,3.629,3.6219,3.6112,3.5932,3.5305,3.4927,3.4669,3.37,3.3211,3.3119,3.2656,3.2411,3.2411,3.2411,3.2351,3.2228,3.1572,3.0865,3.0164,2.8547,2.7334,2.6638,2.5603,2.5061,2.5005,2.4991,2.4991,2.4991,2.4991,2.4991,2.4991,2.4991,2.4991,2.4991,2.4991,2.4934,2.4849,2.4934,2.4934,2.4806,2.4934,2.4991,2.4977,2.4991,2.4991,2.4991,2.4963,2.4963,2.4948,2.4963,2.4863,2.4749,2.4749,2.482,2.4847,2.5351,2.5775,2.6033,2.682,2.7567,2.7649,2.8139,2.8505,2.8519,2.8549,2.8587,2.8587,2.8587,2.8587,2.8587,2.8587,2.8587,2.8587,2.8587,2.8587,2.8587,2.8587,2.8587,2.8587,2.8587,2.8571,2.8571,2.8571,2.8311,2.7772,2.7065,2.6308,2.5936,2.4998,2.4521,2.446,2.4436,2.4483,2.4146,2.4413,2.4987,2.4688,2.3989,2.3475,3.4868,3.5599,3.5611,3.5876,3.6262,3.6284,3.6284,3.6284,3.6284,3.6284,3.6284,3.6284,3.6284,3.6284,3.6284,3.6297,3.6223,3.6133,3.6014,3.5822,3.5201,3.4685,3.4272,3.3588,3.3039,3.2734,3.2492,3.2411,3.2411,3.2411,3.2411,3.2341,3.1774,3.0951,2.9925,2.8497,2.7258,2.6251,2.5432,2.4991,2.4991,2.4991,2.4991,2.4991,2.4991,2.4991,2.4991,2.4991,2.4991,2.4991,2.4991,2.4963,2.492,2.4963,2.4977,2.4934,2.4977,2.4991,2.4991,2.4991,2.4991,2.4991,2.4991,2.4991,2.4991,2.4991,2.4948,2.4863,2.4878,2.5055,2.5394,2.5722,2.6187,2.6837,2.742,2.7841,2.8207,2.8438,2.8587,2.8587,2.8587,2.8587,2.8587,2.8587,2.8587,2.8587,2.8587,2.8587,2.8587,2.8587,2.8587,2.8587,2.8587,2.8587,2.8571,2.8587,2.8457,2.8232,2.8134,2.7901,2.731,2.6705,2.6173,2.5838,2.5206,2.4796,2.4915,2.4915,2.4927,2.4478,2.397,2.425,2.4116,2.3659,2.3205,3.4797,3.5549,3.5727,3.5985,3.6284,3.6284,3.6284,3.6284,3.6284,3.6284,3.6284,3.6284,3.6284,3.6284,3.6284,3.6276,3.6202,3.6127,3.5997,3.5789,3.5196,3.4585,3.3998,3.3443,3.2906,3.2465,3.2411,3.2411,3.2411,3.2411,3.2411,3.2342,3.195,3.1211,3.0118,2.89,2.7664,2.6497,2.5663,2.5154,2.5045,2.5168,2.5168,2.5004,2.4991,2.4991,2.4991,2.4991,2.4991,2.4991,2.4991,2.4991,2.4991,2.4991,2.4991,2.4991,2.4991,2.4991,2.4991,2.4991,2.4991,2.4991,2.4991,2.4991,2.4991,2.4991,2.4991,2.4991,2.4991,2.5235,2.5806,2.605,2.6606,2.7554,2.7798,2.8139,2.8535,2.8587,2.8587,2.8587,2.8587,2.8587,2.8587,2.8587,2.8587,2.8587,2.8587,2.8587,2.8554,2.8474,2.8363,2.8363,2.8262,2.82,2.833,2.833,2.8134,2.7776,2.7577,2.7393,2.6892,2.641,2.603,2.5699,2.54,2.5241,2.5117,2.517,2.5123,2.4742,2.4218,2.3696,2.3703,2.3279,2.3075,3.5086,3.5627,3.6082,3.6269,3.6284,3.6284,3.6284,3.6284,3.6284,3.6284,3.6284,3.6284,3.6284,3.6284,3.6284,3.6284,3.629,3.6269,3.6152,3.5921,3.5413,3.4752,3.3998,3.3459,3.2906,3.2424,3.2411,3.2411,3.2411,3.2411,3.2411,3.237,3.2287,3.1977,3.1127,2.9929,2.8886,2.759,2.6452,2.563,2.5195,2.5603,2.5602,2.5168,2.5031,2.5086,2.5059,2.5018,2.5031,2.5018,2.5072,2.5045,2.5031,2.5045,2.5072,2.5073,2.5059,2.5045,2.5072,2.5099,2.5099,2.5059,2.514,2.5059,2.5154,2.5113,2.51,2.5018,2.5031,2.5249,2.5847,2.6347,2.6943,2.7623,2.8207,2.8505,2.8573,2.8587,2.8587,2.8587,2.8587,2.8587,2.8587,2.8587,2.8587,2.8587,2.8587,2.8587,2.8538,2.82,2.7954,2.7805,2.7543,2.7259,2.7706,2.7838,2.7593,2.7226,2.699,2.6892,2.6508,2.6146,2.5858,2.5584,2.5349,2.5224,2.5218,2.5111,2.4939,2.4592,2.408,2.3685,2.3593,2.325,2.3046,3.5126,3.5638,3.6103,3.6284,3.6284,3.6284,3.6284,3.6284,3.6284,3.6284,3.6284,3.6284,3.6284,3.6284,3.6284,3.6286,3.6223,3.6223,3.6112,3.5839,3.5339,3.4681,3.3995,3.3443,3.2922,3.248,3.2411,3.2411,3.2411,3.2411,3.2188,3.1851,3.1823,3.132,3.026,2.9441,2.8582,2.7725,2.6888,2.6374,2.6157,2.636,2.6347,2.6156,2.6143,2.6157,2.6157,2.6143,2.6143,2.6143,2.6142,2.6143,2.6157,2.6157,2.6157,2.6157,2.6157,2.6142,2.6157,2.6157,2.6157,2.6157,2.6157,2.6116,2.6076,2.5819,2.5589,2.5535,2.5195,2.529,2.5846,2.6442,2.7052,2.7651,2.822,2.8573,2.8587,2.8587,2.8587,2.8587,2.8587,2.8587,2.8587,2.8587,2.8587,2.8587,2.8587,2.8587,2.8506,2.8151,2.7799,2.7723,2.7373,2.705,2.7143,2.7254,2.7125,2.6718,2.6465,2.6454,2.6224,2.6223,2.6015,2.6124,2.5761,2.542,2.5493,2.5147,2.4944,2.4682,2.4152,2.3824,2.3593,2.3316,2.3113,3.5115,3.5622,3.5941,3.6174,3.6284,3.6284,3.6284,3.6284,3.6284,3.6284,3.6284,3.6284,3.6284,3.6284,3.6284,3.6174,3.6041,3.6155,3.5943,3.5424,3.5161,3.4609,3.3843,3.3394,3.2906,3.248,3.2411,3.2411,3.2411,3.2411,3.2092,3.1523,3.1494,3.0955,2.9909,2.9234,2.8644,2.8023,2.7421,2.6996,2.6862,2.6998,2.7093,2.7133,2.7269,2.7174,2.6833,2.6793,2.6793,2.6793,2.6793,2.6793,2.6793,2.6793,2.6793,2.6793,2.6779,2.6793,2.6793,2.6793,2.6779,2.6793,2.6779,2.6793,2.6781,2.643,2.6226,2.609,2.5873,2.5764,2.6171,2.674,2.7255,2.7678,2.8085,2.8413,2.856,2.8587,2.8587,2.8587,2.8587,2.8587,2.8587,2.8587,2.8587,2.8587,2.8587,2.8571,2.8344,2.806,2.77,2.7514,2.7226,2.6991,2.6989,2.7057,2.7104,2.6754,2.6577,2.642,2.6378,2.6371,2.6382,2.6513,2.6338,2.5971,2.5612,2.526,2.5022,2.4819,2.4508,2.4152,2.3813,2.3409,2.3131,3.5103,3.5526,3.5594,3.5854,3.6188,3.622,3.6262,3.6284,3.6284,3.6284,3.6284,3.6284,3.6284,3.6284,3.6284,3.6049,3.5711,3.6006,3.5661,3.4781,3.493,3.4459,3.3449,3.3211,3.2882,3.2425,3.2411,3.2411,3.2411,3.2313,3.2006,3.1551,3.1335,3.0866,3.0389,2.9604,2.9133,2.8586,2.797,2.7461,2.6984,2.7447,2.7689,2.7773,2.8193,2.799,2.6942,2.6901,2.6955,2.6943,2.6915,2.6849,2.6971,2.6971,2.6874,2.6971,2.6903,2.686,2.6888,2.6942,2.7011,2.7011,2.6901,2.7011,2.7038,2.6903,2.6808,2.6779,2.6713,2.6711,2.6766,2.7187,2.7542,2.7691,2.7746,2.8017,2.8329,2.8546,2.8603,2.8603,2.8587,2.8587,2.8587,2.8587,2.8587,2.8587,2.8522,2.8414,2.8083,2.7845,2.7494,2.7176,2.7003,2.695,2.6922,2.6923,2.6954,2.6942,2.6879,2.678,2.6871,2.6892,2.6772,2.6825,2.6258,2.5862,2.5457,2.5147,2.5135,2.4945,2.4694,2.4454,2.4098,2.3648,2.302,3.4904,3.504,3.504,3.534,3.5799,3.5804,3.5978,3.629,3.6284,3.6284,3.6284,3.6284,3.6284,3.6284,3.6284,3.5837,3.5133,3.5521,3.5317,3.4524,3.4227,3.3824,3.329,3.2857,3.2574,3.2425,3.2411,3.2411,3.2313,3.1977,3.1465,3.0852,3.0345,2.9811,2.9263,2.8962,2.8771,2.8631,2.8443,2.822,2.8058,2.8207,2.8318,2.8345,2.8521,2.8383,2.8071,2.8044,2.8044,2.8017,2.8044,2.803,2.803,2.8044,2.806,2.8044,2.8044,2.8044,2.803,2.8017,2.799,2.8017,2.8017,2.8044,2.799,2.7635,2.7432,2.7364,2.7065,2.6793,2.6833,2.6942,2.716,2.7108,2.7461,2.7608,2.7621,2.7811,2.8166,2.8519,2.8587,2.8587,2.8587,2.8571,2.8576,2.8514,2.8289,2.804,2.8172,2.766,2.7383,2.7365,2.7168,2.7145,2.7337,2.7481,2.7541,2.7493,2.7373,2.7313,2.7397,2.7402,2.7301,2.6831,2.6264,2.5749,2.5338,2.5164,2.5164,2.5111,2.4897,2.4658,2.437,2.3842,2.3131,3.435,3.4561,3.4738,3.5115,3.5622,3.576,3.6011,3.6273,3.6284,3.6206,3.606,3.6039,3.5902,3.5771,3.5721,3.5311,3.4617,3.4904,3.4642,3.3998,3.3764,3.3404,3.3087,3.2629,3.2411,3.2411,3.2411,3.2287,3.2048,3.1681,3.1043,3.0179,2.969,2.9219,2.8651,2.8587,2.8587,2.8587,2.8603,2.8587,2.8587,2.8587,2.8587,2.8587,2.8587,2.8587,2.8587,2.8587,2.8587,2.8587,2.8587,2.8587,2.8587,2.8573,2.8587,2.8587,2.8587,2.8573,2.8587,2.8519,2.8587,2.8587,2.8587,2.8573,2.8519,2.8193,2.8058,2.7963,2.773,2.7459,2.7486,2.7486,2.7391,2.7147,2.7459,2.7621,2.7486,2.7771,2.8153,2.8535,2.8587,2.8506,2.836,2.852,2.8475,2.8322,2.8022,2.769,2.7893,2.7549,2.7474,2.752,2.7614,2.77,2.7945,2.8065,2.815,2.8065,2.7957,2.7914,2.795,2.7962,2.7878,2.6964,2.629,2.5691,2.5253,2.5253,2.5241,2.5164,2.4951,2.4909,2.4586,2.3861,2.3131,3.3607,3.4084,3.4525,3.4963,3.5459,3.5854,3.6017,3.6156,3.6146,3.5909,3.5605,3.5549,3.5305,3.4911,3.4958,3.4682,3.4172,3.4184,3.3924,3.3474,3.3374,3.3295,3.2879,3.2467,3.2258,3.2273,3.2202,3.1922,3.1436,3.1248,3.0763,2.9659,2.9456,2.9172,2.8686,2.8587,2.8587,2.8587,2.8587,2.8587,2.8587,2.8587,2.8587,2.8587,2.8587,2.8587,2.8587,2.8587,2.8587,2.8587,2.8587,2.8587,2.8587,2.8587,2.8587,2.8587,2.8587,2.8587,2.8587,2.8587,2.8587,2.8587,2.8587,2.8587,2.856,2.8519,2.8494,2.8492,2.8451,2.8494,2.8465,2.8438,2.822,2.7854,2.7621,2.7757,2.8397,2.8438,2.8424,2.8532,2.8571,2.8409,2.7984,2.8265,2.8179,2.7885,2.7657,2.7357,2.7256,2.7166,2.7275,2.7416,2.7551,2.7784,2.7854,2.7962,2.807,2.8306,2.8246,2.827,2.8154,2.8106,2.7926,2.7048,2.6255,2.5673,2.517,2.5034,2.4874,2.4605,2.4635,2.4927,2.4449,2.3526,2.2774,3.3372,3.3529,3.3639,3.4009,3.4464,3.4646,3.4916,3.5179,3.5214,3.5196,3.5033,3.5005,3.4927,3.4809,3.4757,3.4549,3.4147,3.4059,3.3797,3.3322,3.3227,3.3038,3.2619,3.2132,3.1836,3.1723,3.1334,3.0911,3.0718,3.0345,2.9889,2.9518,2.9073,2.8785,2.8619,2.8587,2.8587,2.8587,2.8587,2.8587,2.8587,2.8587,2.8587,2.8587,2.8587,2.8587,2.8587,2.8587,2.8587,2.8587,2.8587,2.8587,2.8587,2.8587,2.8587,2.8587,2.8587,2.8587,2.8587,2.8587,2.8587,2.8587,2.8587,2.8587,2.8587,2.8587,2.8587,2.8587,2.8587,2.8587,2.8587,2.8587,2.8478,2.8318,2.7689,2.7418,2.7868,2.7949,2.8085,2.8492,2.8554,2.8249,2.7911,2.7844,2.7773,2.731,2.697,2.6767,2.6784,2.6662,2.6675,2.6939,2.7145,2.7457,2.7685,2.7794,2.7998,2.8378,2.8438,2.8426,2.8142,2.7806,2.7438,2.6837,2.6147,2.554,2.4832,2.4391,2.4186,2.4251,2.3979,2.4052,2.3438,2.2652,2.2077,3.3293,3.3322,3.3542,3.3825,3.4097,3.4308,3.4561,3.4757,3.4793,3.4661,3.4545,3.4513,3.4378,3.4193,3.4168,3.4034,3.38,3.3758,3.3578,3.3361,3.3229,3.2973,3.2521,3.1921,3.158,3.1436,3.0793,3.0389,3.0087,2.9673,2.9393,2.9105,2.8782,2.8603,2.8603,2.8587,2.86,2.8587,2.8587,2.8587,2.8587,2.8587,2.8587,2.8587,2.8587,2.8587,2.8587,2.8587,2.8587,2.8587,2.8587,2.8587,2.8587,2.8587,2.8587,2.8587,2.8587,2.8587,2.8587,2.8587,2.8587,2.8587,2.8587,2.8587,2.8587,2.8587,2.8587,2.8587,2.8587,2.8587,2.8587,2.8587,2.8587,2.8508,2.7963,2.7703,2.8028,2.7905,2.7916,2.8109,2.8052,2.7726,2.7222,2.7305,2.7113,2.6739,2.6422,2.6403,2.6431,2.6227,2.6142,2.6424,2.6741,2.7073,2.7229,2.7325,2.7661,2.8058,2.8211,2.8255,2.8127,2.766,2.7318,2.6849,2.6111,2.5374,2.4687,2.4246,2.4402,2.4258,2.3665,2.315,2.2742,2.2115,2.1508,3.3293,3.3332,3.3809,3.4013,3.4063,3.4435,3.4509,3.4617,3.4529,3.4354,3.4072,3.4013,3.3797,3.3293,3.3503,3.3332,3.3319,3.3385,3.3346,3.3295,3.3229,3.2987,3.2398,3.1722,3.1393,3.1175,3.0659,2.9964,2.9517,2.9376,2.9178,2.8933,2.8782,2.8777,2.888,2.8752,2.8647,2.8706,2.8528,2.8506,2.8571,2.8587,2.8587,2.8587,2.8587,2.8587,2.8587,2.8587,2.8587,2.8587,2.8587,2.8587,2.8587,2.8587,2.8587,2.8587,2.8587,2.8587,2.8587,2.8587,2.8587,2.8587,2.8587,2.8587,2.8587,2.8587,2.8587,2.8587,2.8587,2.8587,2.8587,2.8587,2.8587,2.8589,2.8505,2.856,2.8457,2.8134,2.7871,2.7789,2.7377,2.6888,2.6518,2.6471,2.6632,2.6161,2.5928,2.5929,2.5978,2.5877,2.5841,2.5943,2.6291,2.6676,2.676,2.682,2.7241,2.7623,2.7711,2.783,2.7985,2.7675,2.7385,2.6879,2.6011,2.5239,2.4568,2.442,2.4282,2.358,2.2574,2.263,2.2686,2.185,2.1155,3.3293,3.3309,3.3411,3.3477,3.3474,3.3578,3.3642,3.3652,3.3655,3.3642,3.3503,3.349,3.3411,3.3293,3.3293,3.3293,3.328,3.3266,3.3293,3.3295,3.3205,3.2713,3.2046,3.1348,3.094,3.0524,2.9545,2.8976,2.8817,2.889,2.9012,2.9277,2.9241,2.9523,2.9801,2.9117,2.8916,2.9052,2.8471,2.82,2.8457,2.849,2.8506,2.8538,2.8554,2.8587,2.8587,2.8587,2.8587,2.8587,2.8587,2.8587,2.8587,2.8587,2.8587,2.8587,2.8587,2.8587,2.8587,2.8587,2.8587,2.8587,2.8587,2.8587,2.8587,2.8587,2.8587,2.8587,2.8587,2.8587,2.8538,2.8571,2.8506,2.8474,2.8474,2.836,2.8131,2.8216,2.8118,2.7792,2.756,2.7259,2.6324,2.6221,2.6077,2.5617,2.5492,2.5492,2.5516,2.5552,2.5588,2.5661,2.5763,2.6044,2.5924,2.5938,2.6146,2.6564,2.6757,2.693,2.7094,2.7238,2.6776,2.6325,2.5805,2.5066,2.4201,2.3298,2.2909,2.2161,2.1642,2.1718,2.1671,2.1126,2.0876,3.3293,3.3293,3.3293,3.3293,3.3293,3.3293,3.3293,3.3293,3.3293,3.3293,3.3293,3.3293,3.3293,3.3293,3.3293,3.3293,3.3227,3.3051,3.2875,3.2724,3.2547,3.2104,3.1405,3.0852,3.0406,2.9935,2.9103,2.8635,2.8587,2.8641,2.8934,2.9461,2.9499,2.9798,3.0228,2.949,2.9114,2.8903,2.8262,2.7842,2.7842,2.7855,2.8036,2.8167,2.8249,2.8327,2.8571,2.8587,2.8587,2.8587,2.8587,2.8587,2.8587,2.8587,2.8587,2.8587,2.8587,2.8587,2.8587,2.8587,2.8587,2.8587,2.8587,2.8587,2.8587,2.8587,2.8587,2.8587,2.8571,2.8522,2.8278,2.8229,2.8151,2.7875,2.7858,2.7739,2.7543,2.7676,2.7643,2.7158,2.6705,2.6358,2.596,2.5903,2.5776,2.5426,2.5408,2.5378,2.5366,2.5402,2.5378,2.539,2.5354,2.5326,2.5112,2.4997,2.4914,2.5191,2.5354,2.5512,2.5678,2.5859,2.5957,2.5489,2.5009,2.4412,2.3552,2.2595,2.1964,2.1832,2.1557,2.1088,2.078,2.0722,2.0508,3.3332,3.3293,3.3293,3.3293,3.3293,3.3293,3.3293,3.3293,3.3293,3.3293,3.3293,3.3293,3.3293,3.3293,3.3293,3.328,3.3091,3.2834,3.2545,3.2199,3.1976,3.1464,3.0807,3.036,2.9904,2.9376,2.8849,2.8603,2.8571,2.856,2.8767,2.9345,2.9349,2.9688,3.0056,2.9682,2.9097,2.8706,2.7994,2.7464,2.7192,2.7125,2.7343,2.7577,2.7676,2.7855,2.8164,2.8327,2.8441,2.849,2.8554,2.8587,2.8587,2.8587,2.8441,2.8409,2.8425,2.8522,2.8428,2.8506,2.8587,2.8587,2.8587,2.8587,2.8587,2.8571,2.8506,2.8392,2.8295,2.8052,2.7726,2.7676,2.746,2.7209,2.704,2.6956,2.6888,2.6858,2.6701,2.6393,2.6238,2.5978,2.5629,2.5453,2.5365,2.5294,2.5294,2.5294,2.5294,2.5241,2.5223,2.4963,2.4862,2.4504,2.426,2.4113,2.4025,2.4059,2.4171,2.4179,2.4265,2.4203,2.431,2.4497,2.41,2.3509,2.2937,2.2183,2.1766,2.1737,2.1442,2.0963,2.0663,2.0459,2.0206,3.3503,3.3293,3.3293,3.3293,3.3293,3.3293,3.3293,3.3293,3.3293,3.3293,3.3293,3.3293,3.3293,3.3293,3.3293,3.3091,3.2819,3.2547,3.2256,3.1877,3.1579,3.1043,3.0344,3.0025,2.9498,2.8926,2.8587,2.8538,2.8474,2.8237,2.8559,2.9164,2.9026,2.9282,2.9733,2.9373,2.8771,2.8418,2.7623,2.7049,2.6871,2.6837,2.6922,2.7108,2.7142,2.7242,2.7393,2.7726,2.7937,2.797,2.8363,2.8506,2.8441,2.8441,2.8118,2.7805,2.8134,2.8346,2.8023,2.833,2.8522,2.8587,2.8587,2.8571,2.8571,2.8538,2.8298,2.7937,2.7577,2.7246,2.7145,2.7142,2.7108,2.6973,2.6854,2.6735,2.6427,2.6307,2.6289,2.6065,2.5926,2.5804,2.5506,2.5294,2.5294,2.5294,2.5294,2.5294,2.5294,2.517,2.5034,2.4671,2.4264,2.3811,2.3361,2.3238,2.3141,2.315,2.3175,2.2962,2.2903,2.2564,2.2575,2.2945,2.3032,2.2616,2.2075,2.1589,2.1337,2.1126,2.0944,2.0789,2.0625,2.0411,2.0186,3.3411,3.3309,3.3293,3.3293,3.3293,3.3293,3.3293,3.3293,3.3293,3.3293,3.3293,3.3293,3.3293,3.3293,3.3293,3.3038,3.2631,3.2078,3.1723,3.1335,3.1058,3.0509,2.9839,2.9668,2.9042,2.8444,2.82,2.8344,2.8506,2.8056,2.8277,2.8794,2.8739,2.905,2.9504,2.9067,2.8499,2.805,2.7183,2.6444,2.6173,2.6139,2.6242,2.6513,2.6645,2.6752,2.7108,2.7196,2.7427,2.751,2.766,2.7593,2.756,2.7627,2.7676,2.7527,2.7888,2.7954,2.7577,2.7855,2.8052,2.7858,2.8216,2.8411,2.8265,2.8118,2.7921,2.7493,2.7242,2.6871,2.6633,2.6581,2.6444,2.6173,2.6156,2.6035,2.5838,2.5781,2.5798,2.5786,2.5646,2.5523,2.5435,2.5294,2.5294,2.5294,2.5276,2.5206,2.5152,2.4963,2.4683,2.4029,2.3489,2.2861,2.2424,2.2258,2.2222,2.2236,2.221,2.1993,2.1818,2.159,2.1521,2.1684,2.1622,2.1724,2.1406,2.0982,2.0741,2.0576,2.0566,2.0547,2.0498,2.0372,2.0098,3.3346,3.3293,3.3293,3.3293,3.3293,3.3293,3.3293,3.3293,3.3293,3.3227,3.3174,3.3147,3.3065,3.3011,3.2931,3.2726,3.2299,3.1566,3.119,3.0836,3.0598,3.0021,2.9509,2.9117,2.8782,2.8006,2.7676,2.7871,2.7957,2.7593,2.7803,2.8083,2.8239,2.855,2.8823,2.8557,2.8123,2.7492,2.6748,2.5928,2.5453,2.5329,2.5506,2.5973,2.606,2.6324,2.6671,2.6871,2.6939,2.7023,2.7023,2.6871,2.6547,2.6773,2.7129,2.7443,2.7577,2.7326,2.7125,2.7326,2.7493,2.7246,2.7825,2.7908,2.7743,2.7477,2.7259,2.6939,2.662,2.6414,2.6065,2.6013,2.5821,2.5558,2.54,2.5329,2.5382,2.54,2.5435,2.54,2.5294,2.5294,2.5294,2.5223,2.5223,2.4791,2.4755,2.4456,2.4402,2.4414,2.4059,2.3287,2.2601,2.1897,2.148,2.1251,2.1232,2.1255,2.1268,2.1173,2.0986,2.0791,2.0829,2.0985,2.0948,2.1017,2.0693,2.0566,2.0547,2.0489,2.0372,2.0372,2.0469,2.0255,1.9912,3.3516,3.328,3.328,3.3293,3.3253,3.324,3.3282,3.324,3.3214,3.3051,3.2683,3.267,3.2479,3.2245,3.2118,3.1851,3.1538,3.1321,3.1014,3.0643,3.0386,3.002,2.9446,2.8707,2.8352,2.7693,2.7276,2.7142,2.7095,2.6701,2.67,2.711,2.7317,2.7409,2.7972,2.7909,2.7551,2.7028,2.6474,2.5903,2.5418,2.5294,2.5382,2.5471,2.5623,2.5798,2.6047,2.6307,2.6496,2.653,2.682,2.6922,2.6909,2.6926,2.6735,2.6667,2.6718,2.6871,2.6479,2.6773,2.6994,2.6841,2.7192,2.7158,2.7027,2.6752,2.6513,2.6336,2.5891,2.5634,2.5558,2.5453,2.5365,2.5365,2.5294,2.5294,2.5294,2.5294,2.5294,2.5294,2.5294,2.5294,2.5294,2.5206,2.507,2.46,2.4174,2.3902,2.3628,2.361,2.3427,2.2686,2.1973,2.127,2.103,2.0731,2.0663,2.0576,2.0508,2.0508,2.0518,2.0498,2.0508,2.0605,2.0546,2.0457,2.0312,2.0294,2.0411,2.0352,2.0196,2.0333,2.0547,2.0196,1.9754,3.2765,3.2891,3.2617,3.2521,3.2508,3.2492,3.2492,3.2508,3.2508,3.2396,3.2228,3.2216,3.209,3.1851,3.1695,3.1466,3.1263,3.1043,3.0821,3.0628,3.0401,3.0082,2.9542,2.8883,2.8257,2.733,2.682,2.6307,2.6169,2.6216,2.6348,2.648,2.6773,2.7026,2.7289,2.7263,2.7116,2.6734,2.6154,2.5607,2.5365,2.5312,2.5365,2.5453,2.5553,2.5641,2.5811,2.595,2.606,2.6025,2.6151,2.6121,2.6052,2.6,2.5891,2.5786,2.5891,2.5908,2.5804,2.6255,2.6324,2.6358,2.6547,2.6905,2.6616,2.6324,2.5995,2.5699,2.5471,2.5312,2.5294,2.5294,2.5294,2.5294,2.5294,2.5294,2.5294,2.5294,2.5294,2.5294,2.5259,2.5188,2.5087,2.4963,2.4719,2.4246,2.3854,2.358,2.3132,2.2723,2.2481,2.2077,2.1404,2.0741,2.0683,2.0547,2.0547,2.045,2.0196,2.0235,2.0323,2.0342,2.0313,2.0255,2.0175,2.0068,1.9971,2.003,2.0157,2.0079,1.9971,2.0118,2.0235,2.0029,1.9656,3.1964,3.2244,3.2006,3.1893,3.1893,3.1893,3.1922,3.1908,3.1936,3.1865,3.1738,3.1638,3.1566,3.1523,3.1248,3.1087,3.1087,3.0762,3.0642,3.0568,3.0312,2.9898,2.9216,2.8613,2.7653,2.6786,2.6238,2.5821,2.5664,2.5693,2.5921,2.598,2.6414,2.6755,2.6868,2.6761,2.6586,2.6298,2.5702,2.5389,2.5365,2.5329,2.543,2.5535,2.5623,2.5706,2.5875,2.591,2.584,2.5858,2.5711,2.5664,2.5558,2.5494,2.5453,2.54,2.5471,2.5453,2.5488,2.5699,2.5664,2.5751,2.5891,2.6277,2.6035,2.596,2.5856,2.54,2.5347,2.5294,2.5294,2.5294,2.5294,2.5294,2.5294,2.5294,2.5294,2.5294,2.5259,2.5194,2.5087,2.4844,2.4755,2.4665,2.4366,2.3909,2.3562,2.3195,2.2611,2.1945,2.169,2.1385,2.103,2.0498,2.043,2.0411,2.042,2.0313,2.0059,1.9981,2.0098,2.0108,2.004,1.9942,1.9863,1.9814,1.9785,1.9834,1.9892,1.9833,1.9783,1.9813,1.9804,1.9656,1.9557,3.1365,3.1408,3.1737,3.1851,3.1851,3.1893,3.1879,3.178,3.1837,3.1623,3.1292,3.094,3.0807,3.0717,3.0703,3.0628,3.0628,3.0612,3.0432,3.016,2.9793,2.9233,2.8551,2.766,2.6735,2.6294,2.5804,2.5471,2.5329,2.54,2.5435,2.5438,2.6033,2.6454,2.6592,2.6436,2.6027,2.5751,2.5354,2.5407,2.5447,2.5447,2.5418,2.5553,2.5623,2.5706,2.5905,2.5893,2.5893,2.5963,2.5741,2.5571,2.5483,2.5365,2.5312,2.5294,2.5294,2.5294,2.5382,2.5382,2.5347,2.5365,2.5441,2.5616,2.5541,2.5418,2.5312,2.5329,2.5294,2.5294,2.5294,2.5294,2.5294,2.5294,2.5294,2.5294,2.5294,2.5294,2.5241,2.5141,2.488,2.4528,2.3975,2.3774,2.3537,2.3084,2.2432,2.2067,2.1652,2.1098,2.0963,2.075,2.0576,2.0333,2.0284,2.0225,2.0098,2.004,1.9873,1.9843,1.9902,1.9843,1.9765,1.9745,1.9686,1.9637,1.9608,1.9657,1.9695,1.9644,1.9605,1.9616,1.9647,1.9577,1.9469,3.0866,3.0895,3.1043,3.1087,3.1102,3.1087,3.1102,3.1117,3.1102,3.1029,3.0881,3.0672,3.0612,3.0492,3.0114,2.9992,2.9901,2.9454,2.9423,2.9204,2.8823,2.8441,2.7808,2.7194,2.648,2.6117,2.5594,2.5294,2.5312,2.5294,2.5294,2.5468,2.5817,2.6117,2.625,2.6214,2.5817,2.5456,2.5294,2.5347,2.5394,2.55,2.5518,2.5588,2.5741,2.5723,2.5758,2.5846,2.5793,2.5706,2.5635,2.5571,2.5483,2.5365,2.5312,2.5294,2.5294,2.5294,2.5294,2.5294,2.5294,2.5294,2.5312,2.5294,2.5294,2.5294,2.5294,2.5294,2.5294,2.5294,2.5294,2.5294,2.5294,2.5294,2.5294,2.5294,2.5259,2.5223,2.4951,2.4725,2.4391,2.4029,2.3379,2.2779,2.2518,2.2199,2.1538,2.0972,2.076,2.0557,2.0527,2.043,2.0274,2.0137,2.0088,1.9922,1.9765,1.9725,1.9677,1.9686,1.9686,1.9539,1.946,1.9479,1.9519,1.947,1.945,1.9499,1.9489,1.9468,1.9439,1.9429,1.9449,1.9469,1.94,3.0612,3.0612,3.0612,3.0612,3.0612,3.0612,3.0612,3.0612,3.0628,3.0612,3.0597,3.0432,3.0311,3.0114,2.9593,2.9296,2.9156,2.8842,2.8618,2.8409,2.8165,2.7772,2.7291,2.6714,2.6074,2.5873,2.5594,2.5294,2.5294,2.5294,2.5294,2.5402,2.5643,2.5877,2.6117,2.6057,2.5829,2.5426,2.5294,2.5347,2.5412,2.5447,2.5535,2.5553,2.5641,2.5658,2.5641,2.5723,2.5741,2.5653,2.5571,2.5535,2.543,2.5359,2.5312,2.5294,2.5294,2.5294,2.5294,2.5294,2.5294,2.5294,2.5294,2.5294,2.5294,2.5294,2.5294,2.5294,2.5294,2.5294,2.5294,2.5294,2.5294,2.5294,2.5294,2.5276,2.5123,2.5034,2.4636,2.4282,2.3763,2.3065,2.2649,2.2002,2.169,2.148,2.1184,2.0789,2.0692,2.0527,2.043,2.0303,2.0147,1.999,1.9843,1.9686,1.9568,1.9548,1.9499,1.9469,1.9429,1.9321,1.9292,1.9352,1.9371,1.9312,1.9332,1.94,1.9352,1.9312,1.9312,1.9361,1.9341,1.9381,1.9361,3.0612,3.0612,3.0612,3.0612,3.0612,3.0612,3.0612,3.0597,3.0538,3.0507,3.0402,2.9916,2.9608,2.9453,2.8842,2.857,2.8505,2.8392,2.8249,2.8035,2.7454,2.7116,2.6693,2.6156,2.5699,2.54,2.5294,2.5294,2.5294,2.5294,2.5294,2.5294,2.5426,2.5595,2.6033,2.6069,2.5805,2.5378,2.5306,2.5382,2.5465,2.5418,2.55,2.5483,2.55,2.5506,2.5553,2.5571,2.5606,2.5641,2.5565,2.5535,2.55,2.5365,2.5312,2.5294,2.5294,2.5294,2.5294,2.5294,2.5294,2.5294,2.5294,2.5294,2.5294,2.5294,2.5294,2.5294,2.5294,2.5294,2.5294,2.5294,2.5294,2.5259,2.5259,2.5034,2.4844,2.4456,2.4011,2.3489,2.2601,2.1832,2.1576,2.1261,2.0924,2.0722,2.0644,2.0586,2.0547,2.045,2.0333,2.0108,1.9931,1.9794,1.9627,1.946,1.9361,1.9341,1.9341,1.935,1.9341,1.9292,1.9292,1.9292,1.9292,1.9292,1.9292,1.9292,1.9292,1.9292,1.9292,1.9292,1.9292,1.9292,1.9292,3.0612,3.0612,3.0612,3.0612,3.0612,3.0612,3.0612,3.0522,3.016,2.9946,2.9793,2.9188,2.8873,2.865,2.8198,2.7835,2.7769,2.7263,2.7166,2.7116,2.665,2.6375,2.6077,2.5786,2.5394,2.5329,2.5294,2.5294,2.5294,2.5294,2.5294,2.5294,2.5306,2.5378,2.551,2.5546,2.5414,2.5318,2.5312,2.5335,2.54,2.5465,2.5465,2.5418,2.5435,2.5453,2.5418,2.543,2.5483,2.5523,2.5447,2.543,2.543,2.5312,2.5294,2.5294,2.5294,2.5294,2.5294,2.5294,2.5294,2.5294,2.5294,2.5294,2.5294,2.5294,2.5294,2.5294,2.5294,2.5294,2.5294,2.5294,2.5276,2.5141,2.4987,2.4564,2.4246,2.3701,2.3187,2.2611,2.1832,2.1404,2.1069,2.1002,2.0702,2.0566,2.0566,2.0469,2.0411,2.0333,2.0225,1.9912,1.9685,1.9557,1.941,1.9341,1.9292,1.9321,1.9321,1.9321,1.9292,1.9292,1.9292,1.9292,1.9292,1.9292,1.9292,1.9292,1.9292,1.9292,1.9292,1.9292,1.9292,1.9292,1.9292,3.0612,3.0612,3.0612,3.0462,3.0312,3.0492,3.0492,3.0175,2.9546,2.9219,2.9062,2.8473,2.8165,2.7953,2.7501,2.7145,2.7095,2.6675,2.6487,2.6418,2.6102,2.6015,2.5828,2.5571,2.5412,2.5329,2.5294,2.5294,2.5294,2.5294,2.5294,2.5294,2.5294,2.5318,2.533,2.533,2.533,2.5294,2.5294,2.5312,2.5347,2.5382,2.5418,2.5394,2.5394,2.5418,2.5329,2.5294,2.5294,2.5294,2.5294,2.5294,2.5294,2.5294,2.5294,2.5294,2.5294,2.5294,2.5294,2.5294,2.5294,2.5294,2.5294,2.5294,2.5294,2.5294,2.5294,2.5294,2.5276,2.5276,2.5259,2.5259,2.5034,2.488,2.448,2.4072,2.3544,2.3021,2.2529,2.1907,2.1423,2.1021,2.077,2.0722,2.0605,2.0566,2.0527,2.0411,2.0255,2.0137,2.0029,1.9774,1.9537,1.9429,1.9361,1.9321,1.9292,1.9292,1.9292,1.9292,1.9292,1.9292,1.9292,1.9292,1.9292,1.9292,1.9292,1.9292,1.9292,1.9292,1.9292,1.9292,1.9292,1.9292,1.9292,3.0567,3.0582,3.0567,3.0115,2.9731,3.0084,3.0022,2.9514,2.8778,2.8489,2.8441,2.7769,2.7484,2.7364,2.6816,2.6607,2.6589,2.6357,2.6379,2.6332,2.6084,2.5963,2.5823,2.5641,2.543,2.5329,2.5294,2.5294,2.5294,2.5294,2.5294,2.5294,2.5294,2.5294,2.5294,2.5294,2.5294,2.5294,2.5294,2.5294,2.5329,2.5312,2.5329,2.5312,2.5329,2.5329,2.5294,2.5294,2.5294,2.5294,2.5294,2.5294,2.5294,2.5294,2.5294,2.5294,2.5294,2.5294,2.5294,2.5294,2.5294,2.5294,2.5294,2.5294,2.5294,2.5294,2.5294,2.5211,2.5158,2.5158,2.5158,2.4898,2.4647,2.433,2.3938,2.3452,2.2909,2.2397,2.1926,2.1423,2.0982,2.0663,2.0644,2.0586,2.043,2.044,2.0333,2.0157,2.002,1.9843,1.9754,1.9636,1.9449,1.9341,1.9292,1.9292,1.9292,1.9292,1.9292,1.9292,1.9292,1.9292,1.9292,1.9292,1.9292,1.9292,1.9292,1.9292,1.9292,1.9292,1.9292,1.9292,1.9292,1.9292,1.9292,2.99,2.9839,2.9315,2.8985,2.8794,2.8521,2.8538,2.8682,2.8084,2.7802,2.7739,2.7078,2.6854,2.676,2.6589,2.6504,2.6482,2.6465,2.6465,2.6327,2.6067,2.5945,2.577,2.5553,2.5394,2.5276,2.5241,2.5105,2.5223,2.5241,2.5206,2.5294,2.517,2.5206,2.5223,2.5294,2.5276,2.5223,2.5176,2.5241,2.5241,2.5241,2.5259,2.5276,2.5294,2.5294,2.5294,2.5294,2.5294,2.5294,2.5294,2.5294,2.5294,2.5294,2.5294,2.5294,2.5294,2.5294,2.5294,2.5294,2.5294,2.5294,2.5294,2.5294,2.5294,2.5259,2.5259,2.5087,2.4797,2.4689,2.442,2.4138,2.3847,2.3482,2.3095,2.263,2.2115,2.169,2.1242,2.1069,2.0605,2.0527,2.0508,2.0294,2.0167,2.0206,2.0147,1.9971,1.9804,1.9647,1.9548,1.9449,1.941,1.9292,1.9292,1.9292,1.9292,1.9292,1.9292,1.9292,1.9292,1.9292,1.9292,1.9292,1.9292,1.9292,1.9292,1.9292,1.9292,1.9292,1.9292,1.9292,1.9292,1.9292,1.9292,2.9421,2.9139,2.8698,2.836,2.8002,2.7384,2.7351,2.7587,2.7267,2.7108,2.7044,2.6696,2.6487,2.6521,2.6504,2.6487,2.6487,2.6379,2.6396,2.6379,2.6015,2.591,2.5706,2.5241,2.4826,2.4773,2.4558,2.4204,2.4456,2.4432,2.436,2.4455,2.4641,2.4808,2.488,2.5052,2.507,2.4898,2.4814,2.5004,2.5052,2.4998,2.4998,2.5223,2.5259,2.5276,2.5294,2.5294,2.5294,2.5294,2.5294,2.5294,2.5294,2.5294,2.5294,2.5294,2.5294,2.5294,2.5294,2.5294,2.5294,2.5294,2.5276,2.5087,2.5052,2.5034,2.4927,2.4773,2.4373,2.4018,2.3635,2.3279,2.2928,2.2566,2.2153,2.1728,2.1318,2.0924,2.0741,2.0644,2.0527,2.043,2.0274,2.002,1.9902,1.9981,1.9942,1.9774,1.9627,1.9528,1.9449,1.9361,1.9341,1.9292,1.9292,1.9292,1.9292,1.9292,1.9292,1.9292,1.9292,1.9292,1.9292,1.9292,1.9292,1.9292,1.9292,1.9292,1.9292,1.9292,1.9292,1.9292,1.9292,1.9292,1.9292,2.903,2.8425,2.8363,2.792,2.7384,2.6799,2.6555,2.6487,2.6572,2.6504,2.6521,2.6504,2.6487,2.6487,2.6487,2.6487,2.6452,2.6379,2.6396,2.6465,2.5968,2.5793,2.5518,2.4779,2.4438,2.3938,2.3592,2.3475,2.3198,2.329,2.3486,2.3316,2.3779,2.4029,2.4102,2.451,2.4438,2.4084,2.3957,2.3993,2.4492,2.4492,2.4384,2.5016,2.5141,2.5158,2.5259,2.5294,2.5294,2.5294,2.5294,2.5294,2.5294,2.5294,2.5294,2.5294,2.5294,2.5294,2.5294,2.5294,2.5294,2.5276,2.5211,2.4826,2.4654,2.4707,2.4618,2.4077,2.3628,2.3243,2.2854,2.2424,2.204,2.1804,2.1499,2.1222,2.0944,2.0663,2.0547,2.0411,2.0245,2.0167,2.0137,1.9902,1.9735,1.9784,1.9725,1.9557,1.9489,1.94,1.9361,1.9321,1.9292,1.9292,1.9292,1.9292,1.9292,1.9292,1.9253,1.9292,1.9292,1.9292,1.9292,1.9292,1.9292,1.9292,1.9292,1.9292,1.9292,1.9292,1.9292,1.9292,1.9292,1.9292,1.9292,2.7901,2.7687,2.7196,2.6871,2.6743,2.6572,2.6487,2.6487,2.6487,2.6487,2.6487,2.6487,2.6487,2.6487,2.6487,2.6487,2.6469,2.6418,2.6452,2.6314,2.5968,2.5623,2.5553,2.4474,2.4065,2.3866,2.3463,2.2827,2.2771,2.2846,2.2957,2.3024,2.3243,2.3261,2.3261,2.3647,2.3573,2.3231,2.2909,2.2947,2.3335,2.3537,2.3592,2.4156,2.4409,2.4779,2.4987,2.5276,2.5294,2.5294,2.5294,2.5294,2.5294,2.5294,2.5294,2.5294,2.5294,2.5294,2.5294,2.5294,2.5294,2.507,2.4862,2.4427,2.4235,2.4325,2.4036,2.3371,2.2865,2.2472,2.2059,2.1614,2.1261,2.1088,2.0934,2.077,2.0625,2.0508,2.0401,2.0186,1.9971,1.9912,1.9902,1.9804,1.9627,1.9528,1.946,1.9361,1.9381,1.9312,1.9341,1.9292,1.9292,1.9292,1.9213,1.9114,1.9015,1.9074,1.9074,1.9154,1.9273,1.9292,1.9292,1.9292,1.9292,1.9292,1.9292,1.9292,1.9292,1.9292,1.9292,1.9292,1.9292,1.9292,1.9292,2.733,2.7023,2.6675,2.6487,2.6487,2.6487,2.6487,2.6487,2.6487,2.6487,2.6487,2.6487,2.6487,2.6487,2.6487,2.6487,2.6487,2.6487,2.6487,2.6332,2.5716,2.5382,2.4808,2.392,2.3176,2.2861,2.2293,2.1899,2.2145,2.1956,2.188,2.2145,2.2277,2.2472,2.251,2.2716,2.2753,2.2443,2.1956,2.1926,2.2172,2.2312,2.2835,2.3379,2.3963,2.4319,2.4671,2.5022,2.5294,2.5294,2.5294,2.5294,2.5294,2.5294,2.5294,2.5294,2.5294,2.5294,2.5294,2.5276,2.5259,2.4987,2.4516,2.4108,2.3415,2.3397,2.2954,2.236,2.2293,2.1983,2.1442,2.0963,2.0886,2.078,2.0712,2.0625,2.0489,2.0381,2.0245,2.0059,1.9872,1.9744,1.9695,1.9587,1.9449,1.94,1.9312,1.9292,1.9292,1.9292,1.9292,1.9292,1.9292,1.8946,1.8607,1.8547,1.8567,1.8667,1.8895,1.8995,1.9114,1.9233,1.9292,1.9292,1.9292,1.9292,1.9292,1.9292,1.9292,1.9292,1.9292,1.9292,1.9292,1.9292,1.9292,2.7023,2.6521,2.6487,2.6487,2.6487,2.6487,2.6487,2.6487,2.6487,2.6487,2.6487,2.6487,2.6487,2.6487,2.6487,2.6487,2.6401,2.6193,2.6263,2.5908,2.501,2.4755,2.3975,2.2909,2.2255,2.168,2.1165,2.1031,2.1099,2.1012,2.1021,2.1012,2.1281,2.1652,2.188,2.2134,2.2228,2.1794,2.1404,2.1184,2.1203,2.128,2.204,2.2798,2.3415,2.38,2.4126,2.46,2.5052,2.5206,2.5188,2.5294,2.5294,2.5294,2.5294,2.5294,2.5294,2.5294,2.5259,2.5105,2.5075,2.4868,2.4271,2.3544,2.2816,2.2304,2.185,2.169,2.1623,2.1423,2.0876,2.0644,2.0605,2.0576,2.0527,2.045,2.0342,2.0206,2.0049,1.9863,1.9745,1.9597,1.9498,1.937,1.9321,1.9292,1.9292,1.9292,1.9292,1.9292,1.9292,1.9292,1.9292,1.8827,1.8387,1.8097,1.8184,1.8527,1.8747,1.8856,1.8915,1.8886,1.9006,1.9292,1.9292,1.9292,1.9292,1.9292,1.9292,1.9292,1.9292,1.9292,1.9292,1.9292,1.9292,2.6611,2.6487,2.6487,2.6487,2.6487,2.6487,2.6487,2.6487,2.6487,2.6487,2.6487,2.6487,2.6487,2.6487,2.6487,2.6435,2.6216,2.5921,2.5606,2.5312,2.4301,2.4029,2.35,2.2331,2.1518,2.1021,2.0722,2.0683,2.0712,2.0644,2.0625,2.0712,2.0712,2.0886,2.0886,2.1136,2.1203,2.0982,2.0963,2.0799,2.076,2.0924,2.1261,2.1794,2.2172,2.2649,2.3187,2.3938,2.421,2.451,2.4945,2.5223,2.5294,2.5276,2.5259,2.5087,2.5105,2.5034,2.4927,2.4564,2.4391,2.4199,2.3459,2.2507,2.1888,2.1404,2.1088,2.0963,2.0924,2.0895,2.0566,2.0566,2.0547,2.0469,2.043,2.0225,2.0049,1.9912,1.9754,1.9627,1.9519,1.9429,1.9381,1.9321,1.9292,1.9292,1.9292,1.9292,1.9292,1.9292,1.9292,1.9292,1.9292,1.9282,1.9044,1.8058,1.797,1.8334,1.8547,1.8487,1.8427,1.8407,1.8587,1.9114,1.9273,1.9292,1.9292,1.9292,1.9292,1.9292,1.9292,1.9292,1.9292,1.9292,1.9292]},{"header":{"parameterUnit":"m.s-1","parameterCategory":1,"la1":31.0,"la2":29.5877,"lo1":-88.7671,"lo2":-86.6584,"dy":0.0162,"dx":0.0185,"nx":115,"ny":88,"refTime":"2023-09-22T00:00:00:Z","depth":0,"parameterNumber":3,"parameterNumberName":"V-component_of_WINDS"},"data":[0.0,0.0,0.0,0.0,0.0,0.0,0.0,0.0,0.0,0.0,0.0,0.0,0.0,0.0,0.0,0.0,0.0,0.0,0.0,0.0,0.0,0.0,0.0,0.0,0.0,0.0,0.0,0.0,0.0,0.0,0.0,0.0,0.0,0.0,0.0,0.0,0.0,0.0,0.0,0.0,0.0,0.0,0.0,0.0,0.0,0.0,0.0,0.0,0.0,0.0,0.0,0.0,0.0,0.0,0.0,0.0,0.0,0.0,0.0,0.0,0.0,0.0,0.0,0.0,0.0,0.0,0.0,0.0,0.0,0.0,0.0,0.0,0.0,0.0,0.0,0.0,0.0,0.0,0.0,0.0,0.0,0.0,0.0,0.0,0.0,0.0,0.0,0.0,0.0,0.0,0.0,0.0,0.0,0.0,0.0,0.0,0.0,0.0,0.0,0.0,0.0,0.0,0.0,0.0,0.0,0.0,0.0,0.0,0.0,0.0,0.0,0.0,0.0,0.0,0.0,0.0,0.0,0.0,0.0,0.0,0.0,0.0,0.0,0.0,0.0,0.0,0.0,0.0,0.0,0.0,0.0,0.0,0.0,0.0,0.0,0.0,0.0,0.0,0.0,0.0,0.0,0.0,0.0,0.0,0.0,0.0,0.0,0.0,0.0,0.0,0.0,0.0,0.0,0.0,0.0,0.0,0.0,0.0,0.0,0.0,0.0,0.0,0.0,0.0,0.0,0.0,0.0,0.0,0.0,0.0,0.0,0.0,0.0,0.0,0.0,0.0,0.0,0.0,0.0,0.0,0.0,0.0,0.0,0.0,0.0,0.0,0.0,0.0,0.0,0.0,0.0,0.0,0.0,0.0,0.0,0.0,0.0,0.0,0.0,0.0,0.0,0.0,0.0,0.0,0.0,0.0,0.0,0.0,0.0,0.0,0.0,0.0,0.0,0.0,0.0,0.0,0.0,0.0,0.0,0.0,0.0,0.0,0.0,0.0,0.0,0.0,0.0,0.0,0.0,0.0,0.0,0.0,0.0,0.0,0.0,0.0,0.0,0.0,0.0,0.0,0.0,0.0,0.0,0.0,0.0,0.0,0.0,0.0,0.0,0.0,0.0,0.0,0.0,0.0,0.0,0.0,0.0,0.0,0.0,0.0,0.0,0.0,0.0,0.0,0.0,0.0,0.0,0.0,0.0,0.0,0.0,0.0,0.0,0.0,0.0,0.0,0.0,0.0,0.0,0.0,0.0,0.0,0.0,0.0,0.0,0.0,0.0,0.0,0.0,0.0,0.0,0.0,0.0,0.0,0.0,0.0,0.0,0.0,0.0,0.0,0.0,0.0,0.0,0.0,0.0,0.0,0.0,0.0,0.0,0.0,0.0,0.0,0.0,0.0,0.0,0.0,0.0,0.0,0.0,0.0,0.0,0.0,0.0,0.0,0.0,0.0,0.0,0.0,0.0,0.0,0.0,0.0,0.0,0.0,0.0,0.0,0.0,0.0,0.0,0.0,0.0,0.0,0.0,0.0,0.0,0.0,0.0,0.0,0.0,0.0,0.0,0.0,0.0,0.0,0.0,0.0,0.0,0.0,0.0,0.0,0.0,0.0,0.0,0.0,0.0,0.0,0.0,0.0,0.0,0.0,0.0,0.0,0.0,0.0,0.0,0.0,0.0,0.0,0.0,0.0,0.0,0.0,0.0,0.0,0.0,0.0,0.0,0.0,0.0,0.0,0.0,0.0,0.0,0.0,0.0,0.0,0.0,0.0,0.0,0.0,0.0,0.0,0.0,0.0,0.0,0.0,0.0,0.0,0.0,0.0,0.0,0.0,0.0,0.0,0.0,0.0,0.0,0.0,0.0,0.0,0.0,0.0,0.0,0.0,0.0,0.0,0.0,0.0,0.0,0.0,0.0,0.0,0.0,0.0,0.0,0.0,0.0,0.0,0.0,0.0,0.0,0.0,0.0,0.0,0.0,0.0,0.0,0.0,0.0,0.0,0.0,0.0,0.0,0.0,0.0,0.0,0.0,0.0,0.0,0.0,0.0,0.0,0.0,0.0,0.0,0.0,0.0,0.0,0.0,0.0,0.0,0.0,0.0,0.0,0.0,0.0,0.0,0.0,0.0,0.0,0.0,0.0,0.0,0.0,0.0,0.0,0.0,0.0,0.0,0.0,0.0,0.0,0.0,0.0,0.0,0.0,0.0,0.0,0.0,0.0,0.0,0.0,0.0,0.0,0.0,0.0,0.0,0.0,0.0,0.0,0.0,0.0,0.0,0.0,0.0,0.0,0.0,0.0,0.0,0.0,0.0,0.0,0.0,0.0,0.0,0.0,0.0,0.0,0.0,0.0,0.0,0.0,0.0,0.0,0.0,0.0,0.0,0.0,0.0,0.0,0.0,0.0,0.0,0.0,0.0,0.0,0.0,0.0,0.0,0.0,0.0,0.0,0.0,0.0,0.0,0.0,0.0,0.0,0.0,0.0,0.0,0.0,0.0,0.0,0.0,0.0,0.0,0.0,0.0,0.0,0.0,0.0,0.0,0.0,0.0,0.0,0.0,0.0,0.0,0.0,0.0,0.0,0.0,0.0,0.0,0.0,0.0,0.0,0.0,0.0,0.0,0.0,0.0,0.0,0.0,0.0,0.0,0.0,0.0,0.0,0.0,0.0,0.0,0.0,0.0,0.0,0.0,0.0,0.0,0.0,0.0,0.0,0.0,0.0,0.0,0.0,0.0,0.0,0.0,0.0,0.0,0.0,0.0,0.0,0.0,0.0,0.0,0.0,0.0,0.0,0.0,0.0,0.0,0.0,0.0,0.0,0.0,0.0,0.0,0.0,0.0,0.0,0.0,0.0,0.0,0.0,0.0,0.0,0.0,0.0,0.0,0.0,0.0,0.0,0.0,0.0,0.0,0.0,0.0,0.0,0.0,0.0,0.0,0.0,0.0,0.0,0.0,0.0,0.0,0.0,0.0,0.0,0.0,0.0,0.0,0.0,0.0,0.0,0.0,0.0,0.0,0.0,0.0,0.0,0.0,0.0,0.0,0.0,0.0,0.0,0.0,0.0,0.0,0.0,0.0,0.0,0.0,0.0,0.0,0.0,0.0,0.0,0.0,0.0,0.0,0.0,0.0,0.0,0.0,0.0,0.0,0.0,0.0,0.0,0.0,0.0,0.0,0.0,0.0,0.0,0.0,0.0,0.0,0.0,0.0,0.0,0.0,0.0,0.0,0.0,0.0,0.0,0.0,0.0,0.0,0.0,0.0,0.0,0.0,0.0,0.0,0.0,0.0,0.0,0.0,0.0,0.0,0.0,0.0,0.0,0.0,0.0,0.0,0.0,0.0,0.0,0.0,0.0,0.0,0.0,0.0,0.0,0.0,0.0,0.0,0.0,0.0,0.0,0.0,0.0,0.0,0.0,0.0,0.0,0.0,0.0,0.0,0.0,0.0,0.0,0.0,0.0,0.0,0.0,0.0,0.0,0.0,0.0,0.0,0.0,0.0,0.0,0.0,0.0,0.0,0.0,0.0,0.0,0.0,0.0,0.0,0.0,0.0,0.0,0.0,0.0,0.0,0.0,0.0,0.0,0.0,0.0,0.0,0.0,0.0,0.0,0.0,0.0,0.0,0.0,0.0,0.0,0.0,0.0,0.0,0.0,0.0,0.0,0.0,0.0,0.0,0.0,0.0,0.0,0.0,0.0,0.0,0.0,0.0,0.0,0.0,0.0,0.0,0.0,0.0,0.0,0.0,0.0,0.0,0.0,0.0,0.0,0.0,0.0,0.0,0.0,0.0,0.0,0.0,0.0,0.0,0.0,0.0,0.0,0.0,0.0,0.0,0.0,0.0,0.0,0.0,0.0,0.0,0.0,0.0,0.0,0.0,0.0,0.0,0.0,0.0,0.0,0.0,0.0,0.0,0.0,0.0,0.0,0.0,0.0,0.0,0.0,0.0,0.0,0.0,0.0,0.0,0.0,0.0,0.0,0.0,0.0,0.0,0.0,0.0,0.0,0.0,0.0,0.0,0.0,0.0,0.0,0.0,0.0,0.0,0.0,0.0,0.0,0.0,0.0,0.0,0.0,0.0,0.0,0.0,0.0,0.0,0.0,0.0,0.0,0.0,0.0,0.0,0.0,0.0,0.0,0.0,0.0,0.0,0.0,0.0,0.0,0.0,0.0,0.0,0.0,0.0,0.0,0.0,0.0,0.0,0.0,0.0,0.0,0.0,0.0,0.0,0.0,0.0,0.0,0.0,0.0,0.0,0.0,0.0,0.0,1.4501,0.0,0.0,0.0,0.0,0.0,0.0,0.0,0.0,0.0,0.0,0.0,0.0,0.0,0.0,0.0,0.0,0.0,0.0,0.0,0.0,0.0,0.0,0.0,0.0,0.0,0.0,0.0,0.0,0.0,0.0,0.0,0.0,0.0,0.0,0.0,0.0,0.0,0.0,0.0,0.0,0.0,0.0,0.0,0.0,0.0,0.0,0.0,0.0,0.0,0.0,0.0,0.0,0.0,0.0,0.0,0.0,0.0,0.0,0.0,0.0,0.0,0.0,0.0,0.0,0.0,0.0,0.0,0.0,0.0,0.0,0.0,0.0,0.0,0.0,0.0,0.0,0.0,0.0,0.0,0.0,0.0,0.0,0.0,0.0,0.0,0.0,0.0,0.0,0.0,0.0,0.0,0.0,0.0,0.0,0.0,0.0,0.0,0.0,0.0,0.0,0.0,0.0,0.0,0.0,0.0,0.0,0.0,0.0,0.0,0.0,1.3729,1.4046,1.4512,1.4777,1.4777,0.0,0.0,0.0,0.0,0.0,0.0,0.0,0.0,0.0,0.0,0.0,0.0,0.0,0.0,0.0,0.0,0.0,0.0,0.0,0.0,0.0,0.0,0.0,0.0,0.0,0.0,0.0,0.0,0.0,0.0,0.0,0.0,0.0,0.0,0.0,0.0,0.0,0.0,0.0,0.0,0.0,0.0,0.0,0.0,0.0,0.0,0.0,0.0,0.0,0.0,0.0,0.0,0.0,0.0,0.0,0.0,0.0,0.0,0.0,0.0,0.0,0.0,0.0,0.0,0.0,0.0,0.0,0.0,0.0,0.0,0.0,0.0,0.0,0.0,0.0,0.0,0.0,0.0,0.0,0.0,0.0,0.0,0.0,0.0,0.0,0.0,0.0,0.0,0.0,0.0,0.0,0.0,0.0,0.0,0.0,0.0,0.0,0.0,0.0,0.0,0.0,0.0,0.0,0.0,0.0,0.0,0.0,0.0,0.0,0.0,0.0,0.0,1.48,1.5108,1.5108,0.0,0.0,0.0,0.0,0.0,0.0,0.0,0.0,0.0,0.0,0.0,0.0,0.0,0.0,0.0,0.0,0.0,0.0,0.0,0.0,0.0,0.0,0.0,0.0,0.0,0.0,0.0,0.0,0.0,0.0,0.0,0.0,0.0,0.0,0.0,0.0,0.0,0.0,0.0,0.0,0.0,0.0,0.0,0.0,0.0,0.0,0.0,0.0,0.0,0.0,0.0,0.0,0.0,0.0,0.0,0.0,0.0,0.0,0.0,0.0,0.0,0.0,0.0,0.0,0.0,0.0,0.0,0.0,0.0,0.0,0.0,0.0,0.0,0.0,0.0,0.0,0.0,0.0,0.0,0.0,0.0,0.0,0.0,0.0,0.0,0.0,0.0,0.0,0.0,0.0,0.0,0.0,0.0,0.0,0.0,0.0,0.0,0.0,0.0,0.0,0.0,0.0,0.0,0.0,0.0,0.0,0.0,0.0,0.0,0.0,1.4116,1.3693,1.4605,0.0,1.5108,0.0,0.0,0.0,0.0,0.0,0.0,0.0,0.0,0.0,0.0,0.0,0.0,0.0,0.0,0.0,0.0,0.0,0.0,0.0,0.0,0.0,0.0,0.0,0.0,0.0,0.0,0.0,0.0,0.0,0.0,0.0,0.0,0.0,0.0,0.0,0.0,0.0,0.0,0.0,0.0,0.0,0.0,0.0,0.0,0.0,0.0,0.0,0.0,0.0,0.0,0.0,0.0,0.0,0.0,0.0,0.0,0.0,0.0,0.0,0.0,0.0,0.0,0.0,0.0,0.0,0.0,0.0,0.0,0.0,0.0,0.0,0.0,0.0,0.0,0.0,0.0,0.0,0.0,0.0,0.0,0.0,0.0,0.0,0.0,0.0,0.0,0.0,0.0,0.0,0.0,0.0,0.0,0.0,0.0,0.0,0.0,0.0,0.0,0.0,0.0,0.0,0.0,0.0,0.0,0.0,0.0,0.0,0.0,0.0,0.0,1.3977,1.4069,1.4743,1.5108,0.0,0.0,0.0,0.0,0.0,0.0,0.0,0.0,0.0,0.0,0.0,0.0,0.0,0.0,0.0,0.0,0.0,0.0,0.0,0.0,0.0,0.0,0.0,0.0,0.0,0.0,0.0,0.0,0.0,0.0,0.0,0.0,0.0,0.0,0.0,0.0,0.0,0.0,0.0,0.0,0.0,0.0,0.0,0.0,0.0,0.0,0.0,0.0,0.0,0.0,0.0,0.0,0.0,0.0,0.0,0.0,0.0,0.0,0.0,0.0,0.0,0.0,0.0,0.0,0.0,0.0,0.0,0.0,0.0,0.0,0.0,0.0,0.0,0.0,0.0,0.0,0.0,0.0,0.0,0.0,0.0,0.0,0.0,0.0,0.0,0.0,0.0,0.0,0.0,0.0,0.0,0.0,0.0,0.0,0.0,0.0,0.0,0.0,0.0,0.0,0.0,0.0,0.0,0.0,0.0,0.0,0.0,0.0,0.0,0.0,1.3469,1.4069,1.457,1.4937,1.5108,1.5108,0.0,0.0,0.0,0.0,0.0,0.0,0.0,0.0,0.0,0.0,0.0,0.0,0.0,0.0,0.0,0.0,0.0,0.0,0.0,0.0,0.0,0.0,0.0,0.0,0.0,0.0,0.0,0.0,0.0,0.0,0.0,0.0,0.0,0.0,0.0,0.0,0.0,0.0,0.0,0.0,0.0,0.0,0.0,0.0,0.0,0.0,0.0,0.0,0.0,0.0,0.0,0.0,0.0,0.0,0.0,0.0,0.0,0.0,0.0,0.0,0.0,0.0,0.0,0.0,0.0,0.0,0.0,0.0,0.0,0.0,0.0,0.0,0.0,0.0,0.0,0.0,0.0,0.0,0.0,0.0,0.0,0.0,0.0,0.0,0.0,0.0,0.0,0.0,0.0,0.0,0.0,0.0,0.0,0.0,0.0,0.0,0.0,0.0,0.0,0.0,0.0,0.0,0.0,0.0,0.0,0.0,0.0,0.0,1.2825,1.3813,1.457,1.504,1.5085,1.5108,0.0,0.0,0.0,0.0,0.0,0.0,0.0,0.0,0.0,0.0,0.0,0.0,0.0,0.0,0.0,0.0,0.0,0.0,0.0,0.0,0.0,0.0,0.0,0.0,0.0,0.0,0.0,0.0,0.0,0.0,0.0,0.0,0.0,0.0,0.0,0.0,0.0,0.0,0.0,0.0,0.0,0.0,0.0,0.0,0.0,0.0,0.0,0.0,0.0,0.0,0.0,0.0,0.0,0.0,0.0,0.0,0.0,0.0,0.0,0.0,0.0,0.0,0.0,0.0,0.0,0.0,0.0,0.0,0.0,0.0,0.0,0.0,0.0,0.0,0.0,0.0,0.0,0.0,0.0,0.0,0.0,0.0,0.0,0.0,0.0,0.0,0.0,0.0,0.0,0.0,0.0,0.0,0.0,0.0,0.0,0.0,0.0,0.0,0.0,0.0,0.0,0.0,0.0,0.0,0.0,0.0,0.0,0.0,0.0,1.2825,1.3836,1.4628,1.5074,1.5108,1.5108,0.0,0.0,0.0,0.0,0.0,0.0,0.0,0.0,0.0,0.0,0.0,0.0,0.0,0.0,0.0,0.0,0.0,0.0,0.0,0.0,0.0,0.0,0.0,0.0,0.0,0.0,0.0,0.0,0.0,0.0,0.0,0.0,0.0,0.0,0.0,0.0,0.0,0.0,0.0,0.0,0.0,0.0,0.0,0.0,0.0,0.0,0.0,0.0,0.0,0.0,0.0,0.0,0.0,0.0,0.0,0.0,0.0,0.0,0.0,0.0,0.0,0.0,0.0,0.0,0.0,0.0,0.0,0.0,0.0,0.0,0.0,0.0,0.0,0.0,0.0,0.0,0.0,0.0,0.0,0.0,0.0,0.0,0.0,0.0,0.0,0.0,0.0,0.0,0.0,0.0,0.0,0.0,0.0,0.0,0.0,0.0,0.0,0.0,0.0,0.0,0.0,0.0,0.0,0.0,0.0,0.0,0.0,0.0,0.0,1.3328,0.0,1.4777,1.5097,1.5108,1.5108,0.0,0.0,0.0,0.0,0.0,0.0,0.0,0.0,0.0,0.0,0.0,0.0,0.0,0.0,0.0,0.0,0.0,0.0,0.0,0.0,0.0,0.0,0.0,0.0,0.0,0.0,0.0,0.0,0.0,0.0,0.0,0.0,0.0,0.0,0.0,0.0,0.0,0.0,0.0,0.0,0.0,0.0,0.0,0.0,0.0,0.0,0.0,0.0,0.0,0.0,0.0,0.0,0.0,0.0,0.0,0.0,0.0,0.0,0.0,0.0,0.0,0.0,0.0,0.0,0.0,0.0,0.0,0.0,0.0,0.0,0.0,0.0,0.0,0.0,0.0,0.0,0.0,0.0,0.0,0.0,0.0,0.0,0.0,0.0,0.0,0.0,0.0,0.0,0.0,0.0,0.0,0.0,0.0,0.0,0.0,0.0,0.0,0.0,0.0,0.0,0.0,0.0,0.0,0.0,0.0,0.0,0.0,0.0,1.3328,1.435,1.4823,1.5085,1.5108,1.5108,1.5108,0.0,0.0,0.0,0.0,0.0,0.0,0.0,0.0,0.0,0.0,0.0,0.0,0.0,0.0,0.0,0.0,0.0,0.0,0.0,0.0,0.0,0.0,0.0,0.0,0.0,0.0,0.0,0.0,0.0,0.0,0.0,0.0,0.0,0.0,0.0,0.0,0.0,0.0,0.0,0.0,0.0,0.0,0.0,0.0,0.0,0.0,0.0,0.0,0.0,0.0,0.0,0.0,0.0,0.0,0.0,0.0,0.0,0.0,0.0,0.0,0.0,0.0,0.0,0.0,0.0,0.0,0.0,0.0,0.0,0.0,0.0,0.0,0.0,0.0,0.0,0.0,0.0,0.0,0.0,0.0,0.0,0.0,0.0,0.0,0.0,0.0,0.0,0.0,0.0,0.0,0.0,0.0,0.0,0.0,0.0,0.0,0.0,0.0,0.0,0.0,0.0,0.0,0.0,0.0,0.0,0.0,0.0,0.0,0.0,1.4385,1.4857,1.5108,1.5108,1.5108,1.5108,0.0,0.0,0.0,0.0,0.0,0.0,0.0,0.0,0.0,0.0,0.0,0.0,0.0,0.0,0.0,0.0,0.0,0.0,0.0,0.0,0.0,0.0,0.0,0.0,0.0,0.0,0.0,0.0,0.0,0.0,0.0,0.0,0.0,0.0,0.0,0.0,0.0,0.0,0.0,0.0,0.0,0.0,0.0,0.0,0.0,0.0,0.0,0.0,0.0,0.0,0.0,0.0,0.0,0.0,0.0,0.0,0.0,0.0,0.0,0.0,0.0,0.0,0.0,0.0,0.0,0.0,0.0,0.0,0.0,0.0,0.0,0.0,0.0,0.0,0.0,0.0,0.0,0.0,0.0,0.0,0.0,0.0,0.0,0.0,0.0,0.0,0.0,0.0,0.0,0.0,0.0,0.0,0.0,0.0,0.0,0.0,0.0,0.0,0.0,0.0,0.0,0.0,0.0,0.0,0.0,0.0,0.0,0.0,0.0,1.4662,1.4937,1.5108,1.5108,1.5108,1.5108,1.5108,0.0,0.0,0.0,0.0,0.0,0.0,0.0,0.0,0.0,0.0,0.0,0.0,0.0,0.0,0.0,0.0,0.0,0.0,0.0,0.0,0.0,0.0,0.0,0.0,0.0,0.0,0.0,0.0,0.0,0.0,0.0,0.0,0.0,0.0,0.0,0.0,0.0,0.0,0.0,0.0,0.0,0.0,0.0,0.0,0.0,0.0,0.0,0.0,0.0,0.0,0.0,0.0,0.0,0.0,0.0,0.0,0.0,0.0,0.0,0.0,0.0,0.0,0.0,0.0,0.0,0.0,0.0,0.0,0.0,0.0,0.0,0.0,0.0,0.0,0.0,0.0,0.0,0.0,0.0,0.0,0.0,0.0,0.0,0.0,0.0,0.0,0.0,0.0,0.0,0.0,0.0,0.0,0.0,0.0,0.0,0.0,0.0,0.0,0.0,0.0,0.0,0.0,0.0,0.0,0.0,0.0,0.0,0.0,1.5108,1.5108,1.5108,1.5108,1.5108,1.5108,0.0,0.0,0.0,0.0,0.0,0.0,0.0,0.0,0.0,0.0,0.0,0.0,0.0,0.0,0.0,0.0,0.0,0.0,0.0,0.0,0.0,0.0,0.0,0.0,0.0,0.0,0.0,0.0,0.0,0.0,0.0,0.0,0.0,0.0,0.0,0.0,0.0,0.0,0.0,0.0,0.0,0.0,0.0,0.0,0.0,0.0,0.0,0.0,0.0,0.0,0.0,0.0,0.0,0.0,0.0,0.0,0.0,0.0,0.0,0.0,0.0,0.0,0.0,0.0,0.0,0.0,0.0,0.0,0.0,0.0,0.0,0.0,0.0,0.0,0.0,0.0,0.0,0.0,0.0,0.0,0.0,0.0,0.0,0.0,0.0,0.0,0.0,0.0,0.0,0.0,0.0,0.0,0.0,0.0,0.0,0.0,0.0,0.0,0.0,0.0,0.0,0.0,0.0,0.0,0.0,0.0,0.0,0.0,0.0,1.5108,1.5108,1.5108,1.5108,1.5108,1.5108,0.0,0.0,0.0,0.0,0.0,0.0,0.0,0.0,0.0,0.0,0.0,0.0,0.0,0.0,0.0,0.0,0.0,0.0,0.0,0.0,0.0,0.0,0.0,0.0,0.0,0.0,0.0,0.0,0.0,0.0,0.0,0.0,0.0,0.0,0.0,0.0,0.0,0.0,0.0,0.0,0.0,0.0,0.0,0.0,0.0,0.0,0.0,0.0,0.0,0.0,0.0,0.0,0.0,0.0,0.0,0.0,0.0,0.0,0.0,0.0,0.0,0.0,0.0,0.0,0.0,0.0,0.0,0.0,0.0,0.0,0.0,0.0,0.0,0.0,0.0,0.0,0.0,0.0,0.0,0.0,0.0,0.0,0.0,0.0,0.0,0.0,0.0,0.0,0.0,0.0,0.0,0.0,0.0,0.0,0.0,0.0,0.0,0.0,0.0,0.0,0.0,0.0,0.0,0.0,0.0,0.0,0.0,0.0,1.5108,1.5108,1.5108,1.5108,1.5108,1.5108,1.5108,0.0,0.0,0.0,0.0,0.0,0.0,0.0,0.0,0.0,0.0,0.0,0.0,0.0,0.0,0.0,0.0,0.0,0.0,0.0,0.0,0.0,0.0,0.0,0.0,0.0,0.0,0.0,0.0,0.0,0.0,0.0,0.0,0.0,0.0,0.0,0.0,0.0,0.0,0.0,0.0,0.0,0.0,0.0,0.0,0.0,0.0,0.0,0.0,0.0,0.0,0.0,0.0,0.0,0.0,0.0,0.0,0.0,0.0,0.0,0.0,0.0,0.0,0.0,0.0,0.0,0.0,0.0,0.0,0.0,0.0,0.0,0.0,0.0,0.0,0.0,0.0,0.0,0.0,0.0,0.0,0.0,0.0,0.0,0.0,0.0,0.0,0.0,0.0,0.0,0.0,0.0,0.0,0.0,0.0,0.0,0.0,0.0,0.0,0.0,0.0,0.0,0.0,0.0,0.0,0.0,0.0,0.0,0.0,1.5108,1.5108,1.5108,1.5108,1.5108,1.5108,1.5108,0.0,0.0,0.0,0.0,0.0,0.0,0.0,0.0,0.0,0.0,0.0,0.0,0.0,0.0,0.0,0.0,0.0,0.0,0.0,0.0,0.0,0.0,0.0,0.0,0.0,0.0,0.0,0.0,0.0,0.0,0.0,0.0,0.0,0.0,0.0,0.0,0.0,0.0,0.0,0.0,0.0,0.0,0.0,0.0,0.0,0.0,0.0,0.0,0.0,0.0,0.0,0.0,0.0,0.0,0.0,0.0,0.0,0.0,0.0,0.0,0.0,0.0,0.0,0.0,0.0,0.0,0.0,0.0,0.0,0.0,0.0,0.0,0.0,0.0,0.0,0.0,0.0,0.0,0.0,0.0,0.0,0.0,0.0,0.0,0.0,0.0,0.0,0.0,0.0,0.0,0.0,0.0,0.0,0.0,0.0,0.0,0.0,0.0,0.0,0.0,0.0,0.0,0.0,0.0,0.0,0.0,0.0,0.0,1.5108,1.5108,1.5108,1.5108,1.5108,1.5108,1.5108,0.0,0.0,0.0,0.0,0.0,0.0,0.0,0.0,0.0,0.0,0.0,0.0,0.0,0.0,0.0,0.0,0.0,0.0,0.0,0.0,0.0,0.0,0.0,0.0,0.0,0.0,0.0,0.0,0.0,0.0,0.0,0.0,0.0,0.0,0.0,0.0,0.0,0.0,0.0,0.0,0.0,0.0,0.0,0.0,0.0,0.0,0.0,0.0,1.5803,0.0,0.0,0.0,0.0,0.0,0.0,0.0,0.0,0.0,0.0,0.0,0.0,0.0,0.0,0.0,0.0,0.0,0.0,0.0,0.0,0.0,0.0,0.0,0.0,0.0,0.0,0.0,0.0,0.0,0.0,0.0,0.0,0.0,0.0,0.0,0.0,0.0,0.0,0.0,0.0,0.0,0.0,0.0,0.0,0.0,0.0,0.0,0.0,0.0,0.0,0.0,0.0,0.0,0.0,0.0,0.0,0.0,0.0,0.0,1.5108,1.5108,1.5108,1.5108,1.5108,1.5108,1.5108,0.0,0.0,0.0,0.0,0.0,0.0,0.0,0.0,0.0,0.0,0.0,0.0,0.0,0.0,0.0,0.0,0.0,0.0,0.0,0.0,0.0,0.0,0.0,0.0,0.0,0.0,0.0,0.0,0.0,0.0,0.0,0.0,0.0,0.0,0.0,0.0,0.0,0.0,0.0,0.0,0.0,0.0,0.0,0.0,0.0,0.0,0.0,0.0,0.0,0.0,0.0,0.0,0.0,0.0,0.0,0.0,0.0,0.0,0.0,0.0,0.0,0.0,0.0,0.0,0.0,0.0,0.0,0.0,0.0,0.0,0.0,0.0,0.0,0.0,0.0,0.0,0.0,0.0,0.0,0.0,0.0,0.0,0.0,0.0,0.0,0.0,0.0,0.0,0.0,0.0,0.0,0.0,0.0,0.0,0.0,0.0,0.0,0.0,0.0,0.0,0.0,0.0,0.0,0.0,0.0,0.0,0.0,1.5108,1.5108,1.5108,1.5108,1.5108,1.5108,1.5108,1.5108,1.5176,0.0,0.0,0.0,0.0,0.0,0.0,0.0,0.0,0.0,0.0,0.0,0.0,0.0,0.0,0.0,0.0,0.0,0.0,0.0,0.0,0.0,0.0,0.0,0.0,0.0,0.0,0.0,0.0,0.0,0.0,0.0,0.0,0.0,0.0,0.0,0.0,0.0,0.0,1.5803,1.5803,0.0,0.0,0.0,0.0,0.0,0.0,0.0,0.0,1.5803,0.0,0.0,0.0,0.0,0.0,0.0,0.0,0.0,0.0,0.0,0.0,0.0,0.0,0.0,0.0,0.0,0.0,0.0,0.0,0.0,0.0,0.0,0.0,0.0,0.0,0.0,0.0,0.0,0.0,0.0,0.0,0.0,0.0,0.0,0.0,0.0,0.0,0.0,0.0,0.0,0.0,0.0,0.0,0.0,0.0,0.0,0.0,0.0,0.0,0.0,0.0,0.0,0.0,0.0,0.0,0.0,1.5108,1.5108,1.5108,1.5108,1.5108,1.5108,1.5108,1.5108,1.5232,1.5479,0.0,0.0,0.0,0.0,0.0,0.0,0.0,0.0,0.0,0.0,0.0,0.0,0.0,0.0,0.0,0.0,0.0,0.0,0.0,0.0,0.0,0.0,0.0,0.0,0.0,0.0,0.0,0.0,0.0,0.0,0.0,0.0,0.0,0.0,0.0,0.0,0.0,0.0,0.0,1.5803,1.5803,0.0,0.0,0.0,0.0,0.0,0.0,0.0,0.0,1.5803,0.0,0.0,0.0,0.0,0.0,0.0,0.0,0.0,0.0,0.0,0.0,0.0,0.0,0.0,0.0,0.0,0.0,0.0,0.0,0.0,0.0,0.0,0.0,0.0,0.0,0.0,0.0,0.0,0.0,0.0,0.0,0.0,0.0,0.0,0.0,0.0,0.0,0.0,0.0,0.0,0.0,0.0,0.0,0.0,0.0,0.0,0.0,0.0,0.0,0.0,0.0,0.0,0.0,0.0,0.0,1.5108,1.5108,1.5108,1.5108,1.5108,1.5108,1.5108,1.5108,1.5266,0.0,0.0,0.0,0.0,0.0,0.0,0.0,0.0,0.0,0.0,0.0,0.0,0.0,0.0,0.0,0.0,0.0,0.0,0.0,0.0,0.0,0.0,0.0,0.0,0.0,0.0,0.0,0.0,0.0,0.0,0.0,0.0,0.0,0.0,0.0,0.0,0.0,0.0,0.0,0.0,1.5803,1.5803,1.5803,0.0,0.0,0.0,0.0,0.0,0.0,1.5803,1.5803,0.0,0.0,0.0,0.0,0.0,0.0,0.0,0.0,0.0,0.0,0.0,0.0,0.0,0.0,0.0,0.0,0.0,0.0,0.0,0.0,0.0,0.0,0.0,0.0,0.0,0.0,0.0,0.0,0.0,0.0,0.0,0.0,0.0,0.0,0.0,0.0,0.0,0.0,0.0,0.0,0.0,0.0,0.0,0.0,0.0,0.0,0.0,0.0,0.0,0.0,0.0,0.0,0.0,0.0,0.0,1.5108,1.5108,1.5108,1.5108,1.5108,1.5108,1.5108,1.5108,1.53,0.0,0.0,0.0,0.0,0.0,0.0,0.0,0.0,0.0,0.0,0.0,0.0,0.0,0.0,0.0,0.0,0.0,0.0,0.0,0.0,0.0,0.0,0.0,0.0,0.0,0.0,0.0,0.0,0.0,0.0,0.0,0.0,0.0,0.0,0.0,0.0,0.0,0.0,0.0,0.0,0.0,1.5803,1.5803,1.5803,0.0,0.0,0.0,0.0,1.5803,1.5803,0.0,0.0,0.0,0.0,0.0,0.0,0.0,0.0,0.0,0.0,0.0,0.0,0.0,0.0,0.0,0.0,0.0,0.0,0.0,0.0,0.0,0.0,0.0,0.0,0.0,0.0,0.0,0.0,0.0,0.0,0.0,0.0,0.0,0.0,0.0,0.0,0.0,0.0,0.0,0.0,0.0,0.0,0.0,0.0,0.0,0.0,0.0,0.0,0.0,0.0,0.0,0.0,0.0,0.0,0.0,0.0,1.5108,1.5108,1.5108,1.5108,1.5108,1.5108,1.5108,1.5108,1.5412,0.0,0.0,0.0,0.0,0.0,0.0,0.0,0.0,0.0,0.0,0.0,0.0,0.0,0.0,0.0,0.0,0.0,0.0,0.0,0.0,0.0,0.0,0.0,0.0,0.0,0.0,0.0,0.0,0.0,0.0,0.0,0.0,0.0,0.0,0.0,0.0,0.0,0.0,0.0,0.0,0.0,1.5803,1.5803,1.5803,1.5803,0.0,0.0,1.5803,1.5803,1.5803,0.0,0.0,0.0,0.0,0.0,0.0,0.0,0.0,0.0,0.0,0.0,0.0,0.0,0.0,0.0,0.0,0.0,0.0,0.0,0.0,0.0,0.0,0.0,0.0,0.0,0.0,0.0,0.0,0.0,0.0,0.0,0.0,0.0,0.0,0.0,0.0,0.0,0.0,0.0,0.0,0.0,0.0,0.0,0.0,0.0,0.0,0.0,0.0,0.0,0.0,0.0,0.0,0.0,0.0,0.0,1.5246,1.5544,1.5556,1.5682,1.5933,1.5957,1.5945,1.5957,1.6219,1.6598,0.0,0.0,0.0,0.0,0.0,0.0,0.0,0.0,0.0,0.0,0.0,0.0,0.0,0.0,0.0,0.0,0.0,0.0,0.0,0.0,0.0,0.0,0.0,0.0,0.0,0.0,0.0,0.0,0.0,0.0,0.0,0.0,0.0,0.0,0.0,0.0,0.0,0.0,0.0,0.0,0.0,0.0,1.5803,1.5803,0.0,0.0,0.0,1.5803,1.5803,0.0,0.0,0.0,0.0,0.0,0.0,0.0,0.0,0.0,0.0,0.0,0.0,0.0,0.0,0.0,0.0,0.0,0.0,0.0,0.0,0.0,0.0,0.0,0.0,0.0,0.0,0.0,0.0,0.0,0.0,0.0,0.0,0.0,0.0,0.0,0.0,0.0,0.0,0.0,0.0,0.0,0.0,0.0,0.0,0.0,0.0,0.0,0.0,0.0,0.0,0.0,0.0,0.0,0.0,0.0,0.0,0.0,1.6062,1.6072,1.6255,1.6575,1.6611,1.6611,1.6611,1.6945,0.0,0.0,0.0,0.0,0.0,0.0,0.0,0.0,0.0,0.0,0.0,0.0,0.0,0.0,0.0,0.0,0.0,0.0,0.0,0.0,0.0,0.0,0.0,0.0,0.0,0.0,0.0,1.5803,0.0,0.0,0.0,0.0,0.0,0.0,0.0,0.0,0.0,0.0,0.0,0.0,0.0,0.0,1.5803,1.5803,1.59,1.6007,0.0,0.0,1.6211,1.6199,1.6187,1.6199,0.0,0.0,0.0,0.0,0.0,0.0,0.0,0.0,0.0,0.0,0.0,0.0,0.0,0.0,0.0,0.0,0.0,0.0,0.0,0.0,0.0,0.0,0.0,0.0,0.0,0.0,0.0,0.0,0.0,0.0,0.0,0.0,0.0,0.0,0.0,0.0,0.0,0.0,0.0,0.0,0.0,0.0,0.0,0.0,0.0,0.0,0.0,0.0,0.0,0.0,0.0,0.0,0.0,0.0,1.6519,1.6565,1.6565,1.6588,1.6611,1.6611,1.6611,1.6611,1.6635,1.7131,0.0,0.0,0.0,0.0,0.0,0.0,0.0,0.0,0.0,0.0,0.0,0.0,0.0,0.0,0.0,0.0,0.0,0.0,0.0,0.0,0.0,0.0,0.0,0.0,0.0,0.0,0.0,0.0,0.0,0.0,0.0,0.0,0.0,0.0,0.0,0.0,0.0,0.0,0.0,0.0,0.0,1.5803,1.5803,1.6223,1.6547,0.0,1.6967,1.7291,1.7291,1.7291,1.7291,1.7279,0.0,0.0,0.0,0.0,0.0,0.0,0.0,0.0,0.0,0.0,0.0,0.0,0.0,0.0,0.0,0.0,0.0,0.0,0.0,0.0,0.0,0.0,0.0,0.0,0.0,0.0,0.0,0.0,0.0,0.0,0.0,0.0,0.0,0.0,0.0,0.0,0.0,0.0,0.0,0.0,0.0,0.0,0.0,0.0,0.0,0.0,0.0,0.0,0.0,0.0,0.0,0.0,0.0,1.7009,1.7209,1.7311,1.7489,1.7817,1.7829,1.7801,1.7709,1.8025,1.8503,0.0,0.0,0.0,0.0,0.0,0.0,0.0,0.0,0.0,0.0,0.0,0.0,0.0,0.0,0.0,0.0,0.0,0.0,0.0,0.0,0.0,0.0,0.0,0.0,0.0,0.0,0.0,0.0,1.5803,1.5803,1.5803,0.0,0.0,0.0,0.0,0.0,0.0,0.0,0.0,0.0,0.0,1.6403,1.6727,1.6955,0.0,0.0,1.7267,1.7387,1.7387,1.7387,1.7509,1.7834,1.8298,0.0,0.0,0.0,0.0,0.0,0.0,0.0,0.0,0.0,0.0,0.0,0.0,0.0,0.0,0.0,0.0,0.0,0.0,0.0,0.0,0.0,0.0,0.0,0.0,0.0,0.0,0.0,0.0,0.0,0.0,0.0,0.0,0.0,0.0,0.0,0.0,0.0,0.0,0.0,0.0,0.0,0.0,0.0,0.0,0.0,0.0,0.0,0.0,0.0,0.0,0.0,0.0,1.764,1.7833,1.7926,1.8169,1.8575,1.856,1.8518,1.8477,1.8841,1.9318,0.0,0.0,0.0,0.0,0.0,0.0,0.0,0.0,0.0,0.0,0.0,0.0,0.0,0.0,0.0,0.0,0.0,0.0,0.0,0.0,0.0,0.0,0.0,0.0,0.0,0.0,0.0,0.0,1.5858,1.5885,1.6019,0.0,0.0,0.0,0.0,0.0,0.0,0.0,0.0,0.0,0.0,1.6967,1.7351,1.7676,1.7893,1.788,1.8012,1.8133,1.8121,1.7989,1.8067,1.8595,0.0,0.0,0.0,0.0,0.0,0.0,0.0,0.0,0.0,0.0,0.0,0.0,0.0,0.0,0.0,0.0,0.0,0.0,0.0,0.0,0.0,0.0,0.0,0.0,0.0,0.0,0.0,1.2088,0.0,0.0,1.2128,0.0,0.0,0.0,0.0,0.0,0.0,0.0,0.0,0.0,0.0,0.0,0.0,0.0,0.0,0.0,0.0,0.0,0.0,0.0,0.0,0.0,0.0,1.8486,1.8383,1.8387,1.8441,1.86,1.8489,1.8464,1.86,1.8627,1.9175,2.0345,0.0,0.0,0.0,0.0,0.0,0.0,0.0,0.0,0.0,0.0,0.0,0.0,0.0,0.0,0.0,0.0,0.0,0.0,0.0,0.0,0.0,0.0,0.0,0.0,0.0,0.0,1.6003,1.6024,1.6164,0.0,0.0,0.0,0.0,0.0,0.0,0.0,0.0,0.0,1.7375,1.7387,1.7387,1.7435,1.8313,1.8992,1.8989,1.9436,1.975,1.9765,1.9328,1.9149,0.0,0.0,0.0,0.0,0.0,0.0,0.0,0.0,0.0,0.0,0.0,0.0,0.0,0.0,0.0,0.0,0.0,0.0,0.0,0.0,0.0,0.0,0.0,0.0,0.0,0.0,0.0,1.2499,1.2496,0.0,0.0,0.0,0.0,0.0,0.0,0.0,0.0,0.0,0.0,0.0,1.35,1.373,0.0,0.0,0.0,0.0,0.0,0.0,0.0,0.0,0.0,0.0,0.0,0.0,1.8573,1.8545,1.8624,1.8679,1.8731,1.8773,1.8773,1.8744,1.8826,1.9384,2.0497,0.0,0.0,0.0,0.0,0.0,0.0,0.0,0.0,0.0,0.0,0.0,0.0,0.0,0.0,0.0,0.0,0.0,0.0,0.0,0.0,0.0,0.0,0.0,0.0,0.0,1.6727,0.0,0.0,0.0,0.0,0.0,0.0,0.0,0.0,0.0,0.0,0.0,1.7532,1.7893,1.7941,1.8181,1.8904,1.965,2.0249,0.0,0.0,0.0,0.0,0.0,0.0,0.0,0.0,0.0,0.0,0.0,0.0,0.0,0.0,2.1807,2.2181,2.2061,2.204,2.2405,0.0,0.0,0.0,0.0,0.0,0.0,0.0,0.0,0.0,0.0,0.0,0.0,0.0,0.0,1.2909,1.2909,1.29,0.0,0.0,0.0,0.0,0.0,0.0,0.0,0.0,1.3897,1.4037,1.4096,1.4319,1.4681,0.0,1.6084,1.6485,0.0,0.0,0.0,0.0,0.0,0.0,0.0,0.0,1.8719,1.8679,1.8758,1.8825,1.8866,1.8906,1.9012,1.9146,1.9604,2.0156,2.0846,2.1746,2.2182,0.0,0.0,0.0,0.0,0.0,0.0,0.0,0.0,0.0,0.0,0.0,0.0,0.0,0.0,0.0,0.0,0.0,0.0,0.0,0.0,0.0,0.0,0.0,1.7429,0.0,0.0,0.0,0.0,0.0,0.0,0.0,0.0,0.0,1.776,1.7844,1.8157,1.8686,1.8759,1.9084,1.9963,0.0,0.0,0.0,0.0,0.0,0.0,0.0,2.19,2.3095,2.2976,2.2947,2.3616,2.3447,2.32,2.3082,0.0,0.0,2.2701,2.2698,2.2798,2.2798,2.2686,2.2695,2.3046,2.3037,2.3083,0.0,0.0,0.0,0.0,0.0,0.0,0.0,0.0,1.3314,1.3328,0.0,1.3328,0.0,0.0,0.0,0.0,1.3533,1.3565,0.0,0.0,1.4435,1.4716,1.5157,1.5172,1.5594,1.6273,1.6319,1.6929,1.8056,1.8695,0.0,0.0,0.0,0.0,0.0,0.0,1.8932,1.8798,1.8798,1.8878,1.9049,1.893,1.9182,1.9849,2.0873,2.1402,2.1411,2.19,2.2182,2.2182,2.2182,0.0,0.0,0.0,0.0,0.0,0.0,0.0,0.0,0.0,0.0,0.0,0.0,0.0,0.0,0.0,0.0,0.0,0.0,0.0,0.0,1.7943,0.0,0.0,0.0,0.0,0.0,0.0,0.0,0.0,0.0,1.8974,1.835,1.8698,1.9217,1.9775,0.0,0.0,0.0,0.0,2.1677,2.2313,2.1925,2.1999,2.3141,2.2393,2.2073,2.3242,0.0,0.0,2.441,2.4653,2.4708,2.4692,2.4644,2.4334,2.2939,2.2841,2.2913,2.2887,2.2818,2.2948,2.3546,2.3755,2.3923,1.6182,0.0,0.0,0.0,0.0,1.4495,1.4155,1.3731,1.3722,1.3717,1.3722,1.3722,0.0,0.0,0.0,0.0,0.0,0.0,1.4465,1.4635,1.4849,1.5056,1.5191,1.5308,1.5676,1.6312,1.6751,1.7341,1.8093,1.8709,1.8946,1.8865,0.0,0.0,0.0,0.0,1.8734,1.8798,1.8798,1.9206,2.0068,2.0122,2.0441,2.1017,2.1696,2.1845,2.1425,2.1926,2.2182,2.2182,2.2182,0.0,0.0,0.0,0.0,0.0,0.0,0.0,0.0,0.0,0.0,0.0,0.0,0.0,0.0,0.0,0.0,0.0,0.0,0.0,1.8646,1.877,1.894,0.0,0.0,0.0,0.0,0.0,0.0,0.0,0.0,0.0,1.9361,1.9483,1.9937,0.0,0.0,2.0893,2.2256,2.2586,2.3044,2.4075,2.4439,0.0,2.5204,2.464,2.4435,2.5292,2.5047,2.4803,2.5089,2.4769,2.443,2.4433,2.452,2.4439,2.4101,2.4062,2.4125,2.4038,2.4062,2.4192,2.4474,2.4513,2.4677,1.6328,1.6103,1.5808,1.5544,1.5326,1.5326,1.5054,1.4613,1.4622,1.4613,1.4613,1.4613,1.4759,1.4983,1.5053,0.0,0.0,0.0,1.5438,1.5499,1.5706,1.5791,1.5806,1.6168,1.6664,1.7256,1.7881,1.8504,1.9102,1.9446,1.9593,1.9499,0.0,0.0,1.9499,1.943,1.9444,1.9513,1.9513,1.9848,2.0539,2.1062,2.1613,2.2192,2.2747,2.2849,2.2491,2.2783,2.2953,2.2953,2.2965,2.285,0.0,0.0,0.0,0.0,0.0,0.0,0.0,0.0,0.0,0.0,0.0,2.1553,2.1097,0.0,0.0,0.0,1.9564,1.9457,1.9633,1.9902,0.0,0.0,0.0,0.0,0.0,0.0,0.0,1.8883,1.968,2.042,2.0743,2.079,2.1043,2.1733,2.1697,2.2095,2.3347,0.0,2.4255,2.5219,2.5664,2.6086,2.6666,2.6243,2.6101,2.6848,2.6605,2.639,2.6538,2.6224,2.5869,2.5707,2.5714,2.5652,2.5357,2.5429,2.5304,2.4755,2.4692,2.4838,2.5168,2.5214,2.5406,1.6387,1.6444,1.7212,1.7133,1.6535,1.651,1.6217,1.5705,1.568,1.5689,1.5689,1.5689,1.5689,1.5705,1.5907,0.0,1.6459,1.6475,1.6529,1.6681,1.6681,1.6691,1.6728,1.7393,1.8063,1.8706,1.9317,1.9963,2.0555,2.0584,2.062,2.0656,2.0179,2.0153,2.0584,2.0596,2.0598,2.0591,2.0586,2.0651,2.0817,2.1931,2.2804,2.3399,2.3919,2.4147,2.4105,2.4091,2.4105,2.4118,2.4105,2.3888,2.3395,0.0,0.0,0.0,0.0,0.0,0.0,0.0,0.0,0.0,0.0,0.0,0.0,0.0,0.0,0.0,2.051,0.0,2.0535,2.0992,0.0,0.0,0.0,2.0131,1.9442,1.9938,2.0269,1.9989,0.0,0.0,2.2277,2.2494,2.26,2.2573,2.3032,2.3555,2.4151,2.4774,2.5351,2.6001,2.6061,2.6484,2.7504,2.727,2.714,2.7795,2.8024,2.8011,2.8211,2.8254,2.8166,2.7687,2.7713,2.7484,2.6769,2.6777,2.655,2.5435,2.5088,2.5185,2.5808,2.5977,2.6312,1.722,1.7256,1.7753,1.717,1.5939,1.5914,1.5833,1.5689,1.5689,1.5689,1.5689,1.5689,1.5689,1.573,1.5916,1.6038,1.6134,1.6233,1.637,1.6538,1.6554,1.6602,1.6713,1.6886,1.7569,1.8657,1.8853,1.9506,2.0553,2.0596,2.08,2.1187,2.1064,2.0875,2.0608,2.0596,2.0598,2.0603,2.0598,2.1254,2.2569,2.3744,2.4436,2.4598,2.4729,2.4556,2.4119,2.4105,2.4105,2.4105,2.4105,2.406,2.3917,2.4017,0.0,0.0,0.0,0.0,0.0,0.0,0.0,0.0,0.0,2.1971,2.1043,0.0,2.056,0.0,1.9746,1.9772,1.9978,2.0296,0.0,0.0,2.0372,2.0386,2.0691,2.0345,2.0421,2.1232,2.173,2.224,2.292,2.4189,2.5052,2.5037,2.4772,2.4942,2.5959,2.6262,2.6599,2.7187,2.734,2.7484,2.7877,2.7923,2.7937,2.8125,2.8154,2.8211,2.8397,2.8297,2.8197,2.8097,2.7997,2.7883,2.7825,2.7853,2.7893,2.7712,2.7012,2.6458,2.6986,2.7089,2.7423,1.7752,1.777,1.8008,1.7596,1.6754,1.678,1.6771,1.6771,1.6754,1.6771,1.6771,1.678,1.6822,1.6916,1.7114,1.726,1.7355,1.7496,1.7641,1.7743,1.7743,1.7689,1.7561,1.8185,1.8785,1.9336,1.9956,2.0624,2.1275,2.132,2.1476,2.1753,2.1753,2.1608,2.1317,2.132,2.1308,2.131,2.1322,2.2038,2.3507,2.4208,2.4815,2.5388,2.5401,2.5246,2.4909,2.4908,2.4894,2.4881,2.496,2.4872,2.4604,2.4782,2.487,0.0,0.0,0.0,0.0,0.0,0.0,0.0,0.0,0.0,0.0,0.0,2.0871,2.0105,1.9965,1.9991,2.0144,2.0731,2.1014,2.0874,2.1134,2.1342,2.1452,2.1492,2.1778,2.2469,2.2905,2.3508,2.438,2.531,2.6115,2.6652,2.6691,2.6788,2.7167,2.7468,2.7798,2.8125,2.8437,2.8621,2.8711,2.8772,2.8817,2.8817,2.8877,2.8981,2.9113,2.9143,2.9086,2.8872,2.8771,2.88,2.9024,2.8948,2.9059,2.9669,2.918,2.8369,2.7998,2.7976,2.8303,1.8182,1.8182,1.8237,1.8256,1.8256,1.8256,1.8192,1.81,1.81,1.81,1.81,1.81,1.8211,1.8406,1.8618,1.8802,1.9004,1.9206,1.9277,1.9277,1.9277,1.9064,1.8756,2.0041,2.0524,2.0342,2.1559,2.2216,2.2282,2.2221,2.2197,2.2197,2.2197,2.2197,2.2197,2.2197,2.2197,2.2197,2.2278,2.2869,2.3977,2.4092,2.4682,2.5825,2.5907,2.5907,2.5907,2.5907,2.5907,2.5907,2.6002,2.5843,2.5346,2.5552,2.5696,0.0,2.5329,0.0,0.0,0.0,0.0,0.0,0.0,0.0,0.0,2.2634,2.1942,2.1033,2.0945,2.0945,2.0933,2.1824,2.2144,2.1616,2.2287,2.2631,2.2263,2.2938,2.3553,2.3832,2.4189,2.4887,2.6097,2.6271,2.6719,2.7701,2.8334,2.8487,2.8198,2.8463,2.8771,2.8816,2.9265,2.9462,2.9506,2.9546,2.9532,2.9576,2.9645,2.9853,2.9964,3.0071,3.005,2.9709,2.9535,2.9682,3.012,2.9925,3.0199,3.1252,3.0865,3.0083,2.9221,2.8988,2.9238,1.8576,1.8613,1.8924,1.9081,1.9072,1.9081,1.8695,1.81,1.81,1.81,1.81,1.81,1.8211,1.8424,1.8618,1.8802,1.9014,1.9224,1.9277,1.9277,1.9277,1.9256,1.9214,2.0091,2.0775,2.1255,2.1724,2.227,2.2839,2.2417,2.2197,2.2197,2.2197,2.2197,2.2197,0.0,0.0,0.0,2.2686,2.3282,2.3992,2.4551,2.5146,2.588,2.5907,0.0,2.5907,2.5907,2.5907,2.5907,2.5921,0.0,0.0,0.0,0.0,0.0,0.0,0.0,0.0,0.0,0.0,0.0,2.5769,2.4808,2.3414,2.316,2.3002,2.2809,2.2782,2.2744,2.264,2.3084,2.3346,2.3179,2.3366,2.3678,2.4065,2.3865,2.4189,2.567,2.5694,2.6054,2.725,2.7868,2.8232,2.8506,2.904,2.9348,2.9251,2.9321,2.942,2.9448,2.9532,2.9602,2.9602,2.9602,2.9602,2.9618,2.9713,2.9808,2.9853,2.9884,2.9915,2.9778,2.9668,2.9745,3.0114,3.0441,3.093,3.1438,3.1381,3.1122,3.0763,3.0695,3.0881,1.9008,1.9026,1.9219,1.9292,0.0,1.9292,1.9072,1.8677,1.8686,1.8686,1.8686,1.8686,1.8763,1.885,1.906,1.9202,1.9307,1.9648,1.979,1.979,1.9903,1.9823,1.9637,2.0778,2.1392,2.1522,2.2408,2.3029,2.3368,2.3127,2.2863,2.2582,2.261,2.2466,2.2197,2.2197,2.2328,2.2641,2.295,2.3549,2.4452,2.4821,2.5286,2.5866,2.5907,0.0,0.0,0.0,0.0,0.0,0.0,0.0,0.0,2.6178,0.0,2.6313,2.6353,2.6432,2.6484,2.6431,2.6446,2.654,2.6289,2.5515,2.4043,2.3732,2.3565,2.3434,2.3304,2.3187,2.3122,2.3577,2.3873,2.3781,2.4228,2.4665,2.4901,2.5122,2.5618,2.6468,2.6772,2.7232,2.8215,2.8523,2.8816,2.9097,2.9406,2.9602,2.9602,2.9602,2.9602,2.9602,2.9602,2.9602,2.9602,2.9602,2.9602,2.9618,2.9699,2.9777,2.9779,2.9884,3.0067,3.0388,3.0419,3.0614,3.1463,3.1889,3.2223,3.2648,3.2746,3.2719,3.2617,3.2173,3.1881,1.9292,1.9292,1.9292,1.9292,1.9292,1.9292,1.9292,1.9292,1.9292,0.0,0.0,1.9292,1.9321,1.935,1.9537,1.9626,1.9676,2.0108,2.0303,2.0303,2.0508,2.039,2.0105,2.1621,2.2131,2.1848,2.3232,2.3922,2.391,2.3854,2.3589,2.3176,2.3127,2.2863,2.2397,2.2357,2.2656,2.3237,2.3267,2.3815,2.4963,2.5104,2.5397,2.5893,2.5907,2.5907,2.5907,2.5907,2.5907,2.5907,2.5989,2.6029,2.5975,2.6151,2.6273,2.6313,2.6273,2.6312,2.6417,2.6339,2.6286,2.6313,2.6392,2.6039,2.5041,2.4631,2.435,2.4181,2.3881,2.3711,2.3685,2.4122,2.4382,2.4273,2.5094,2.5633,2.5591,2.6385,2.7046,2.7329,2.7708,2.8243,2.891,2.8948,2.9012,2.9446,2.9588,2.9602,2.9602,2.9602,2.9602,2.9602,2.9602,2.9602,2.9602,2.9602,2.9602,2.9602,2.9697,2.9776,2.9824,3.0037,3.0448,3.0955,3.1218,3.1735,3.2687,3.2891,3.3277,3.3844,3.3946,3.3975,3.3926,3.3217,3.2682,1.9292,1.9292,1.9292,1.9292,1.9292,1.9292,1.9292,1.9292,1.9292,1.9292,1.9292,1.9292,1.939,1.9557,1.9597,1.9695,1.9892,2.0186,2.0303,2.0303,2.0508,2.0547,2.0585,2.2133,2.2852,2.2893,2.3904,2.4393,2.4362,2.4006,2.3741,2.371,2.3697,2.3421,2.2935,2.2951,2.3267,2.386,2.3875,2.4237,2.4991,2.5495,2.5811,2.5893,2.5907,2.5907,2.5907,2.5907,2.5907,2.5907,2.5921,2.6016,2.6233,2.6151,2.6165,2.6286,2.6192,2.6138,2.6165,2.6138,2.6179,2.6286,2.6327,2.6361,2.648,2.6425,2.6373,2.6319,2.6008,2.5974,2.5869,2.5777,2.5698,2.5659,2.6301,2.6764,2.6722,2.7356,2.7993,2.846,2.8582,2.8803,2.9323,2.9449,2.9448,2.9574,2.9602,2.9602,2.9602,2.9602,2.9602,2.9602,2.9602,2.9602,2.9602,2.9602,2.9602,2.9602,2.9618,2.9666,2.9776,3.0192,3.0644,3.0984,3.145,3.1918,3.2321,3.2487,3.2895,3.3319,3.3429,3.3516,3.372,3.3411,3.3309,1.9952,1.9883,1.947,1.9292,1.9292,1.9292,1.9292,1.9292,1.9292,1.9292,1.9292,1.9292,1.937,1.9429,1.9449,1.9489,1.9587,1.9922,2.0088,2.0137,2.0895,2.1242,2.1404,2.2861,2.358,2.3661,2.4502,2.4934,2.491,2.4728,2.4458,2.4203,2.4295,2.4061,2.3568,2.3908,2.4257,2.4537,2.4538,2.4837,2.5481,2.5757,2.5907,2.5907,2.5907,2.5907,2.5907,2.5907,2.5907,2.5907,2.5907,2.5948,2.6056,2.6016,2.6043,2.6165,2.6056,2.6016,2.6098,2.6029,2.6043,2.6165,2.6192,2.6286,2.6515,2.646,2.6394,2.6327,2.6286,2.6259,2.6192,2.6192,2.6279,2.6482,2.6806,2.7117,2.7441,2.8005,2.8485,2.8766,2.9044,2.9293,2.9559,2.9602,2.9602,2.9602,2.9602,2.9602,2.9602,2.9602,2.9602,2.9602,2.9602,2.9602,2.9602,2.9602,2.9602,2.9602,2.9602,2.9604,2.9713,3.0131,3.0644,3.1131,3.1649,3.2185,3.2584,3.2846,3.3062,3.3182,3.3277,3.3398,3.3607,3.3694,3.3787,2.0673,2.043,1.9825,1.9479,1.9292,1.9292,1.9292,1.9292,1.9292,1.9292,1.9292,1.9292,1.9292,1.9292,1.9292,1.9292,1.9341,1.9666,1.9843,2.002,2.1165,2.1747,2.1964,2.3379,2.4102,2.4192,2.4915,2.5294,2.5294,2.5294,2.509,2.4709,2.4731,2.4575,2.4299,2.472,2.5042,2.5194,2.5214,2.5425,2.588,2.5907,2.5907,2.5907,2.5907,2.5907,2.5907,2.5907,2.5907,2.5907,2.5907,2.5907,2.5934,2.5907,2.5961,2.607,2.5975,2.5948,2.6029,2.5948,2.5948,2.6043,2.6043,2.6084,2.6192,2.6125,2.6043,2.6002,2.607,2.6111,2.6125,2.6307,2.6577,2.6919,2.7244,2.7596,2.7989,2.8535,2.89,2.8956,2.9306,2.9588,2.9602,2.9602,2.9602,2.9602,2.9602,2.9602,2.9602,2.9602,2.9602,2.9602,2.9602,2.9602,2.9602,2.9602,2.9602,2.9602,2.9602,2.9696,2.9852,3.0266,3.0807,3.1506,3.206,3.2574,3.316,3.3216,3.3256,3.3346,3.324,3.3145,3.3411,3.3733,3.3965,2.1212,2.0547,2.0382,1.9962,1.9321,1.9292,1.9292,1.9292,1.9292,1.9292,1.9292,1.9292,1.9292,1.9292,1.9292,1.9292,1.9321,1.9537,1.9735,2.002,2.103,2.1614,2.1954,2.3379,2.4102,2.4228,2.4945,2.5294,2.5294,2.5294,2.5276,2.518,2.475,2.4855,2.5339,2.5063,2.5157,2.5808,2.5827,2.5839,2.5893,2.5907,2.5907,2.5907,2.5907,2.5907,2.5907,2.5907,2.5907,2.5907,2.5907,2.5961,2.6043,2.5961,2.5961,2.6084,2.5961,2.5907,2.5921,2.5907,2.5907,2.5907,2.5934,2.5934,2.5948,2.5934,2.6029,2.6165,2.6165,2.6098,2.6126,2.6482,2.6779,2.7046,2.7833,2.8578,2.8662,2.9139,2.9518,2.9532,2.9531,2.9602,2.9602,2.9602,2.9602,2.9602,2.9602,2.9602,2.9602,2.9602,2.9602,2.9602,2.9602,2.9602,2.9602,2.9602,2.9618,2.9618,2.9618,2.9866,3.0341,3.0896,3.1492,3.185,3.2615,3.3025,3.3094,3.3136,3.3125,3.3348,3.3105,3.2674,3.2949,3.3437,3.38,2.1709,2.0527,2.0508,2.004,1.9332,1.9292,1.9292,1.9292,1.9292,1.9292,1.9292,1.9292,1.9292,1.9292,1.9292,1.935,1.9489,1.9695,1.9912,2.0216,2.1203,2.1964,2.2604,2.3573,2.4337,2.4779,2.5158,2.5294,2.5294,2.5294,2.5294,2.5353,2.5501,2.5799,2.6099,2.5998,2.6094,2.6395,2.6078,2.5907,2.5907,2.5907,2.5907,2.5907,2.5907,2.5907,2.5907,2.5907,2.5907,2.5907,2.5907,2.5934,2.5975,2.5934,2.5921,2.5961,2.5921,2.5907,2.5907,2.5907,2.5907,2.5907,2.5907,2.5907,2.5907,2.5907,2.5948,2.6029,2.5988,2.6116,2.644,2.6694,2.7087,2.779,2.8394,2.883,2.9209,2.9448,2.9602,2.9602,2.9602,2.9602,2.9602,2.9602,2.9602,2.9602,2.9602,2.9602,2.9602,2.9602,2.9602,2.9602,2.9602,2.9602,2.9618,2.9602,2.9727,2.9914,3.0006,3.0249,3.0732,3.1233,3.168,3.1979,3.248,3.2794,3.2728,3.2728,3.2744,3.3081,3.345,3.3224,3.3346,3.3671,3.3962,2.1823,2.0576,2.0265,1.9844,1.9292,1.9292,1.9292,1.9292,1.9292,1.9292,1.9292,1.9292,1.9292,1.9292,1.9292,1.939,1.9528,1.9666,1.9902,2.0274,2.1174,2.2086,2.3013,2.3745,2.4516,2.5194,2.5294,2.5294,2.5294,2.5294,2.5294,2.5382,2.5844,2.6218,2.6471,2.6598,2.6686,2.6729,2.6344,2.6076,2.5963,2.6062,2.6062,2.5921,2.5907,2.5907,2.5907,2.5907,2.5907,2.5907,2.5907,2.5907,2.5907,2.5907,2.5907,2.5907,2.5907,2.5907,2.5907,2.5907,2.5907,2.5907,2.5907,2.5907,2.5907,2.5907,2.5907,2.5907,2.5907,2.616,2.6694,2.6975,2.7551,2.8564,2.8817,2.9139,2.9517,2.9602,2.9602,2.9602,2.9602,2.9602,2.9602,2.9602,2.9602,2.9602,2.9602,2.9602,2.9634,2.9711,2.979,2.979,2.9913,2.9944,2.9821,2.9821,3.0006,3.0312,3.0493,3.0658,3.1073,3.1509,3.1824,3.2092,3.2328,3.2453,3.2549,3.2508,3.2594,3.2908,3.3295,3.3645,3.3617,3.3911,3.405,2.1317,2.044,1.9667,1.9361,1.9292,1.9292,1.9292,1.9292,1.9292,1.9292,1.9292,1.9292,1.9292,1.9292,1.9292,1.9292,1.9321,1.9361,1.9578,2.004,2.0808,2.1821,2.3013,2.3756,2.4516,2.5247,2.5294,2.5294,2.5294,2.5294,2.5294,2.5347,2.5453,2.5779,2.6409,2.6596,2.6614,2.6818,2.6801,2.6512,2.609,2.6484,2.6512,2.6062,2.5949,2.6005,2.5977,2.5935,2.5949,2.5935,2.5991,2.5963,2.5949,2.5963,2.5991,2.5964,2.595,2.5963,2.5991,2.6019,2.6019,2.5977,2.6062,2.595,2.6076,2.6034,2.5992,2.5935,2.5949,2.6146,2.6736,2.7313,2.7931,2.8605,2.9209,2.9518,2.9588,2.9602,2.9602,2.9602,2.9602,2.9602,2.9602,2.9602,2.9602,2.9602,2.9602,2.9602,2.9649,2.9944,3.0174,3.0311,3.0523,3.0777,3.0402,3.0281,3.0478,3.0807,3.1014,3.1176,3.1452,3.1753,3.2039,3.2308,3.2665,3.2762,3.257,3.2578,3.2759,3.3045,3.3372,3.3629,3.3694,3.3908,3.4047,2.1289,2.0421,1.9628,1.9292,1.9292,1.9292,1.9292,1.9292,1.9292,1.9292,1.9292,1.9292,1.9292,1.9292,1.9292,1.937,1.9489,1.9489,1.9735,2.0225,2.0972,2.1935,2.2984,2.3745,2.4528,2.5206,2.5294,2.5294,2.5294,2.5294,2.5546,2.5965,2.6,2.6573,2.7456,2.7394,2.7451,2.7877,2.7631,2.7341,2.7116,2.7327,2.7313,2.7144,2.7102,2.7116,2.7116,2.7102,2.7102,2.7102,2.713,2.7102,2.7116,2.7116,2.7116,2.7116,2.7116,2.713,2.7116,2.7116,2.7116,2.7116,2.7116,2.7074,2.7032,2.6736,2.6469,2.6413,2.609,2.6188,2.6764,2.7411,2.8044,2.8633,2.9223,2.9588,2.9602,2.9602,2.9602,2.9602,2.9602,2.9602,2.9602,2.9602,2.9602,2.9602,2.9602,2.9602,2.968,2.9991,3.037,3.0387,3.0702,3.122,3.1886,3.1146,3.0896,3.1248,3.1539,3.2056,3.2421,3.2673,3.2963,3.3175,3.3384,3.3129,3.2925,3.2698,3.2878,3.2978,3.3319,3.3555,3.3694,3.3886,3.4025,2.1308,2.0489,1.9923,1.9539,1.9292,1.9292,1.9292,1.9292,1.9292,1.9292,1.9292,1.9292,1.9292,1.9292,1.9292,1.9539,1.9824,1.9656,2.0,2.0867,2.1231,2.2048,2.3206,2.3847,2.4516,2.5206,2.5294,2.5294,2.5294,2.5294,2.5699,2.6363,2.6397,2.6968,2.7952,2.7955,2.8087,2.8269,2.8148,2.8016,2.7847,2.7987,2.8086,2.8128,2.8269,2.817,2.7847,2.7805,2.7805,2.7805,2.7805,2.7805,2.7805,2.7805,2.7805,2.7805,2.7791,2.7805,2.7805,2.7805,2.7791,2.7805,2.7791,2.7805,2.7763,2.7369,2.7158,2.7017,2.6793,2.6708,2.713,2.772,2.8255,2.8661,2.9083,2.939,2.9574,2.9602,2.9602,2.9602,2.9602,2.9602,2.9602,2.9602,2.9602,2.9602,2.9602,2.9618,2.9835,3.0422,3.0934,3.1099,3.1842,3.2525,3.3033,3.2749,3.2481,3.2745,3.2638,3.3066,3.3348,3.3602,3.3767,3.4012,3.3901,3.3542,3.3228,3.2956,3.2868,3.2899,3.3083,3.3319,3.3539,3.3822,3.4013,2.1327,2.0615,2.0498,2.0079,1.947,1.9411,1.9332,1.9292,1.9292,1.9292,1.9292,1.9292,1.9292,1.9292,1.9292,1.9726,2.0333,1.9805,2.0382,2.1813,2.1536,2.2245,2.3804,2.4102,2.4582,2.5276,2.5294,2.5294,2.5294,2.5388,2.5774,2.6329,2.6586,2.7069,2.7604,2.8247,2.8257,2.8091,2.8431,2.8436,2.7973,2.8422,2.8704,2.8759,2.9195,2.8984,2.796,2.7918,2.7974,2.7931,2.7932,2.7833,2.7959,2.7959,2.789,2.7959,2.7889,2.7876,2.7904,2.796,2.8001,2.8001,2.7918,2.8001,2.803,2.7889,2.7791,2.7791,2.7692,2.7721,2.7777,2.8184,2.8521,2.8675,2.8731,2.9012,2.9336,2.956,2.9587,2.9587,2.9602,2.9602,2.9602,2.9602,2.9602,2.9602,2.9665,2.9876,3.0347,3.1197,3.2049,3.2676,3.3197,3.3767,3.4188,3.446,3.4461,3.4445,3.4172,3.42,3.4278,3.4459,3.4305,3.4412,3.3913,3.3553,3.2953,3.2698,3.2683,3.273,3.292,3.3123,3.3359,3.3655,3.4088,2.1652,2.1394,2.1394,2.0895,2.0177,2.0128,1.9815,1.9321,1.9292,1.9292,1.9292,1.9292,1.9292,1.9292,1.9292,2.007,2.1241,2.0585,2.0933,2.218,2.2601,2.3165,2.3993,2.4647,2.5052,2.5276,2.5294,2.5294,2.5388,2.5779,2.6432,2.7086,2.7624,2.8228,2.8851,2.9153,2.915,2.904,2.9198,2.9223,2.9055,2.9209,2.9292,2.932,2.9503,2.9392,2.9069,2.904,2.904,2.9012,2.904,2.9026,2.9026,2.904,2.9025,2.904,2.904,2.904,2.9026,2.9012,2.8984,2.9012,2.9012,2.904,2.8984,2.8648,2.8437,2.8367,2.8058,2.7805,2.7847,2.796,2.8156,2.8071,2.8436,2.862,2.8634,2.8831,2.9167,2.9532,2.9602,2.9602,2.9602,2.9618,2.9721,2.9754,2.9941,3.0334,3.0981,3.1854,3.2706,3.3381,3.4117,3.4783,3.5029,3.5214,3.5291,3.5229,3.5075,3.4998,3.5106,3.5152,3.4983,3.4458,3.3958,3.3368,3.2798,3.2537,3.2537,3.2578,3.2742,3.2947,3.316,3.3542,3.4013,2.2521,2.2231,2.1918,2.1308,2.0489,2.0206,1.9756,1.9312,1.9292,1.9479,1.9707,1.9746,1.9952,2.0187,2.0236,2.0982,2.2107,2.1652,2.2069,2.3013,2.3287,2.38,2.4371,2.4981,2.5294,2.5294,2.5294,2.5453,2.5721,2.6203,2.6896,2.7805,2.8298,2.8839,2.954,2.9602,2.9602,2.9602,2.9587,2.9602,2.9602,2.9602,2.9602,2.9602,2.9602,2.9602,2.9602,2.9602,2.9602,2.9602,2.9602,2.9602,2.9602,2.9588,2.9602,2.9602,2.9602,2.9588,2.9602,2.9532,2.9602,2.9602,2.9602,2.9588,2.9532,2.9195,2.9055,2.8956,2.8747,2.8465,2.8493,2.8493,2.8395,2.8142,2.8465,2.8634,2.8493,2.8789,2.9153,2.9517,2.9602,2.968,2.982,3.0153,3.0303,3.0472,3.0748,3.1126,3.1806,3.2542,3.3291,3.406,3.4911,3.5415,3.5768,3.5922,3.603,3.5922,3.5784,3.5768,3.5814,3.583,3.5722,3.4552,3.3839,3.3068,3.2468,3.2468,3.2453,3.2537,3.2701,3.2757,3.3,3.3529,3.4013,2.3751,2.299,2.2287,2.1557,2.0731,2.0079,1.9785,1.9529,1.9549,1.9981,2.0479,2.0576,2.0952,2.1603,2.1527,2.2042,2.286,2.2841,2.3261,2.3904,2.3943,2.4052,2.4748,2.5223,2.5458,2.5471,2.5529,2.5878,2.6436,2.6658,2.7157,2.833,2.857,2.8887,2.9479,2.9602,2.9602,2.9602,2.9602,2.9602,2.9602,2.9602,2.9602,2.9602,2.9602,2.9602,2.9602,2.9602,2.9602,2.9602,2.9602,2.9602,2.9602,2.9602,2.9602,2.9602,2.9602,2.9602,2.9602,2.9602,2.9602,2.9602,2.9602,2.9602,2.9574,2.9532,2.9475,2.9504,2.9462,2.9475,2.9476,2.9448,2.9223,2.8844,2.8634,2.8775,2.9406,2.9448,2.9434,2.9546,2.9618,2.9773,3.0173,3.0711,3.1159,3.1553,3.1676,3.1961,3.2482,3.3065,3.3832,3.4544,3.5184,3.5522,3.5691,3.583,3.5968,3.623,3.6153,3.6184,3.6076,3.6014,3.5783,3.4659,3.3643,3.2859,3.2508,3.2588,3.2711,3.2913,3.2915,3.2744,3.3078,3.3716,3.4205,2.408,2.3861,2.3637,2.3102,2.2381,2.2099,2.1633,2.1164,2.1106,2.1174,2.1442,2.1451,2.1614,2.1804,2.185,2.2249,2.2897,2.3027,2.3446,2.4182,2.4279,2.4503,2.5058,2.5616,2.5953,2.6121,2.6526,2.7019,2.7237,2.7624,2.8117,2.8505,2.9042,2.9355,2.9571,2.9602,2.9602,2.9602,2.9602,2.9602,2.9602,2.9602,2.9602,2.9602,2.9602,2.9602,2.9602,2.9602,2.9602,2.9602,2.9602,2.9602,2.9602,2.9602,2.9602,2.9602,2.9602,2.9602,2.9602,2.9602,2.9602,2.9602,2.9602,2.9602,2.9602,2.9602,2.9602,2.9602,2.9602,2.9602,2.9602,2.9602,2.949,2.9292,2.8704,2.8423,2.8858,2.8942,2.9083,2.9504,2.9634,2.9898,3.0293,3.062,3.0947,3.1382,3.1752,3.2076,3.2746,3.3146,3.3761,3.4249,3.4783,3.5183,3.5476,3.5614,3.5876,3.6322,3.6399,3.6384,3.6061,3.5629,3.5198,3.4428,3.3505,3.269,3.2841,3.3,3.3174,3.315,3.3348,3.3295,3.3707,3.4263,3.4613,2.4189,2.4182,2.3842,2.3438,2.2972,2.2654,2.2231,2.185,2.1794,2.2002,2.222,2.2306,2.2513,2.2793,2.283,2.3065,2.3475,2.3501,2.3758,2.4127,2.4309,2.4622,2.5152,2.5849,2.6294,2.6466,2.7153,2.7604,2.7904,2.8344,2.8634,2.901,2.9385,2.9587,2.9587,2.9602,2.9617,2.9602,2.9602,2.9602,2.9602,2.9602,2.9602,2.9602,2.9602,2.9602,2.9602,2.9602,2.9602,2.9602,2.9602,2.9602,2.9602,2.9602,2.9602,2.9602,2.9602,2.9602,2.9602,2.9602,2.9602,2.9602,2.9602,2.9602,2.9602,2.9602,2.9602,2.9602,2.9602,2.9602,2.9602,2.9602,2.9602,2.9489,2.8956,2.8718,2.9056,2.9309,2.9514,2.9815,3.0083,3.0357,3.0836,3.1101,3.1501,3.1972,3.2411,3.2678,3.3006,3.3269,3.346,3.3859,3.4305,3.469,3.489,3.5014,3.5445,3.5953,3.6477,3.6492,3.6245,3.5643,3.5044,3.4443,3.3458,3.2844,3.3023,3.3106,3.3015,3.3121,3.3524,3.3881,3.4157,3.4589,3.497,2.4189,2.4134,2.3427,2.3131,2.3057,2.2389,2.2277,2.2107,2.2209,2.255,2.3009,2.3131,2.3446,2.4189,2.3897,2.4134,2.4152,2.4061,2.4116,2.4218,2.4309,2.4604,2.5312,2.6092,2.6517,2.6773,2.7334,2.8065,2.8535,2.868,2.902,2.9539,2.974,2.9799,2.9971,2.9904,2.9762,2.9759,2.9768,2.968,2.9618,2.9602,2.9602,2.9602,2.9602,2.9602,2.9602,2.9602,2.9602,2.9602,2.9602,2.9602,2.9602,2.9602,2.9602,2.9602,2.9602,2.9602,2.9602,2.9602,2.9602,2.9602,2.9602,2.9602,2.9602,2.9602,2.9602,2.9602,2.9602,2.9602,2.9602,2.9602,2.9602,2.9573,2.9518,2.9574,2.9727,3.0006,3.025,3.0326,3.0673,3.1102,3.1673,3.2219,3.2668,3.2271,3.2633,3.2707,3.2843,3.2972,3.3075,3.3243,3.3689,3.4182,3.429,3.4367,3.4906,3.5475,3.6196,3.6474,3.6553,3.6027,3.5289,3.4519,3.3783,3.3267,3.3014,3.3002,3.3079,3.3559,3.4268,3.4231,3.4194,3.4757,3.5207,2.4189,2.42,2.4025,2.3934,2.3904,2.3758,2.3666,2.3618,2.3648,2.3666,2.3897,2.3916,2.4025,2.4189,2.4189,2.4189,2.4207,2.4225,2.4189,2.4218,2.4375,2.4903,2.5662,2.645,2.6955,2.7454,2.8562,2.9166,2.9324,2.9334,2.9652,3.0185,3.0247,3.0572,3.0928,3.0717,3.0638,3.0348,3.0199,2.9944,2.9727,2.9696,2.968,2.9649,2.9634,2.9602,2.9602,2.9602,2.9602,2.9602,2.9602,2.9602,2.9602,2.9602,2.9602,2.9602,2.9602,2.9602,2.9602,2.9602,2.9602,2.9602,2.9602,2.9602,2.9602,2.9602,2.9602,2.9602,2.9602,2.9602,2.9649,2.9618,2.968,2.9711,2.9711,2.982,3.0036,2.9929,3.0021,3.0297,3.0508,3.0777,3.1581,3.1844,3.2238,3.2531,3.2628,3.2628,3.2659,3.2705,3.2752,3.2844,3.3012,3.3486,3.3899,3.411,3.4736,3.5252,3.5913,3.6393,3.649,3.631,3.5533,3.4895,3.4284,3.3836,3.3501,3.378,3.4045,3.4536,3.4887,3.484,3.4892,3.5247,3.5396,2.4189,2.4189,2.4189,2.4189,2.4189,2.4189,2.4189,2.4189,2.4189,2.4189,2.4189,2.4189,2.4189,2.4189,2.4189,2.4189,2.4279,2.4485,2.4689,2.4856,2.5087,2.5652,2.6381,2.6997,2.7528,2.8068,2.904,2.9556,2.9602,2.9659,2.9864,3.0441,3.0514,3.0823,3.1302,3.1144,3.0881,3.0758,3.0474,3.0251,3.0251,3.0266,3.0098,2.9975,2.9898,2.9851,2.9618,2.9602,2.9602,2.9602,2.9602,2.9602,2.9602,2.9602,2.9602,2.9602,2.9602,2.9602,2.9602,2.9602,2.9602,2.9602,2.9602,2.9602,2.9602,2.9602,2.9602,2.9602,2.9618,2.9665,2.9897,2.9943,2.9991,3.0221,3.0236,3.0372,3.0523,3.0403,3.0433,3.0866,3.1233,3.1552,3.188,3.1952,3.208,3.2507,3.2521,3.2519,3.2504,3.255,3.2519,3.2535,3.2488,3.2783,3.3363,3.3936,3.4648,3.5195,3.575,3.6141,3.6334,3.6086,3.5726,3.5245,3.482,3.4502,3.4269,3.4628,3.4685,3.4769,3.4963,3.527,3.5498,3.5532,3.5656,2.4134,2.4189,2.4189,2.4189,2.4189,2.4189,2.4189,2.4189,2.4189,2.4189,2.4189,2.4189,2.4189,2.4189,2.4189,2.4207,2.4431,2.4743,2.5058,2.5469,2.5749,2.6372,2.7107,2.7577,2.81,2.868,2.9293,2.9587,2.9618,2.9737,3.0215,3.0688,3.0928,3.1628,3.1845,3.1312,3.1271,3.1499,3.0853,3.0569,3.0836,3.0896,3.0703,3.0493,3.0403,3.0266,3.0005,2.9851,2.9742,2.9696,2.9634,2.9602,2.9602,2.9602,2.9742,2.9773,2.9758,2.9665,2.9728,2.968,2.9602,2.9602,2.9602,2.9602,2.9602,2.9618,2.968,2.9789,2.9882,3.0083,3.0357,3.0403,3.0598,3.0822,3.097,3.1043,3.1102,3.1102,3.1263,3.1523,3.1653,3.1866,3.2148,3.2287,3.2356,3.2411,3.2411,3.2411,3.2411,3.2453,3.2467,3.2643,3.2695,3.2964,3.3506,3.3805,3.4512,3.5129,3.5667,3.6015,3.6357,3.661,3.6468,3.5894,3.5479,3.5101,3.4777,3.4778,3.4833,3.4828,3.5033,3.5367,3.5566,3.5706,3.585,2.3897,2.4189,2.4189,2.4189,2.4189,2.4189,2.4189,2.4189,2.4189,2.4189,2.4189,2.4189,2.4189,2.4189,2.4189,2.4431,2.4731,2.5087,2.5429,2.5871,2.6235,2.6837,2.7653,2.7999,2.861,2.9243,2.9602,2.9649,2.9711,3.0017,3.0625,3.1688,3.2237,3.2952,3.3386,3.3236,3.2413,3.2333,3.1498,3.1014,3.1117,3.1146,3.1073,3.0911,3.0881,3.0792,3.0658,3.0357,3.0189,3.0159,2.979,2.968,2.9742,2.9742,3.0021,3.0311,3.0006,2.9806,3.0084,2.9821,2.9665,2.9602,2.9602,2.9618,2.9618,2.9649,2.9852,3.0189,3.0493,3.0762,3.0851,3.0881,3.0911,3.1029,3.1131,3.1234,3.1495,3.1595,3.161,3.1795,3.1909,3.2007,3.2245,3.2411,3.2411,3.2411,3.2411,3.2411,3.2411,3.2508,3.2588,3.2815,3.3093,3.342,3.3832,3.401,3.443,3.5058,3.5602,3.6087,3.6564,3.7322,3.7248,3.6191,3.5764,3.5543,3.5285,3.5058,3.512,3.5247,3.5379,3.547,3.5588,3.5711,3.5861,2.4025,2.42,2.4189,2.4189,2.4189,2.4189,2.4189,2.4189,2.4189,2.4189,2.4189,2.4189,2.4189,2.4189,2.4189,2.4503,2.501,2.5716,2.6121,2.6556,2.6879,2.7501,2.8254,2.8463,2.9073,2.9713,2.9944,2.9835,2.968,3.0053,3.0859,3.163,3.2519,3.3492,3.3978,3.3401,3.322,3.2987,3.2109,3.148,3.168,3.1709,3.1623,3.1422,3.1336,3.1219,3.0911,3.0807,3.0628,3.0553,3.0418,3.0478,3.0508,3.0448,3.0403,3.0538,3.0235,3.0174,3.0493,3.0266,3.0083,3.0236,2.9929,2.9744,2.9883,3.0021,3.0205,3.0568,3.0792,3.1117,3.1321,3.1364,3.148,3.168,3.1695,3.1794,3.1979,3.2051,3.2037,3.2021,3.2134,3.2231,3.2301,3.2411,3.2411,3.2411,3.2425,3.248,3.2521,3.2643,3.283,3.3264,3.3624,3.4053,3.4366,3.4521,3.459,3.5114,3.55,3.5978,3.6222,3.6744,3.6535,3.5778,3.5632,3.5799,3.5626,3.5356,3.5521,3.5639,3.5622,3.5633,3.5639,3.5734,3.5888,2.4116,2.4189,2.4189,2.4189,2.4189,2.4189,2.4189,2.4189,2.4189,2.4279,2.4352,2.4388,2.4467,2.4539,2.4647,2.4886,2.5406,2.6341,2.6786,2.7192,2.749,2.8118,2.8683,2.9053,2.9385,3.0099,3.0403,3.025,3.0145,3.0478,3.0946,3.1847,3.2773,3.3613,3.4047,3.3658,3.359,3.3276,3.2447,3.1982,3.2287,3.2384,3.2245,3.1895,3.1824,3.1581,3.1262,3.1117,3.1058,3.0984,3.0984,3.1117,3.1393,3.1175,3.0866,3.0613,3.0493,3.0718,3.0896,3.0718,3.0568,3.0762,3.0266,3.019,3.0342,3.0583,3.0777,3.1058,3.1306,3.148,3.1795,3.1838,3.1993,3.2203,3.2328,3.2384,3.2342,3.2328,3.2301,3.2328,3.2411,3.2411,3.2411,3.2467,3.2467,3.2749,3.2776,3.2975,3.3015,3.3031,3.3266,3.3764,3.4227,3.4704,3.501,3.515,3.5206,3.5375,3.5527,3.5765,3.5762,3.583,3.5582,3.5581,3.5875,3.5993,3.5797,3.5622,3.5633,3.5667,3.5734,3.5734,3.5678,3.58,3.6014,2.3879,2.4207,2.4207,2.4189,2.4243,2.4261,2.4236,2.4261,2.4298,2.4485,2.4909,2.4927,2.5176,2.5506,2.5634,2.5965,2.6375,2.6633,2.7019,2.744,2.7752,2.8148,2.8748,2.9404,2.9747,3.0387,3.0762,3.0881,3.0896,3.1263,3.175,3.2451,3.3471,3.4574,3.4775,3.4122,3.3985,3.3979,3.262,3.1952,3.2315,3.2411,3.2342,3.2273,3.2177,3.2037,3.1809,3.1595,3.1437,3.1408,3.1161,3.1073,3.1058,3.1043,3.1234,3.1292,3.1248,3.1117,3.1451,3.1175,3.0984,3.1116,3.0836,3.0866,3.0955,3.1219,3.1422,3.1596,3.1937,3.2118,3.2203,3.2287,3.2356,3.2356,3.2411,3.2411,3.2411,3.2411,3.2411,3.2411,3.2411,3.2411,3.2411,3.248,3.2561,3.2868,3.3159,3.3355,3.355,3.3563,3.3691,3.4194,3.4657,3.5138,3.5305,3.5504,3.5566,3.5639,3.5656,3.5656,3.5673,3.5684,3.5656,3.5735,3.5994,3.6112,3.5902,3.5778,3.5711,3.5745,3.5833,3.5756,3.5633,3.5833,3.6101,2.4802,2.4701,2.5028,2.5152,2.517,2.5158,2.5158,2.517,2.517,2.5282,2.5464,2.5511,2.5669,2.5965,2.6186,2.6461,2.6731,2.6985,2.7239,2.7456,2.7736,2.8082,2.8622,2.9231,2.981,3.0688,3.1161,3.1595,3.171,3.1696,3.1891,3.2338,3.3658,3.4553,3.4967,3.4466,3.4358,3.3988,3.3027,3.2265,3.2356,3.2398,3.2356,3.2287,3.2233,3.2163,3.2052,3.1939,3.1824,3.1853,3.1724,3.1723,3.178,3.1823,3.1937,3.2021,3.1937,3.1923,3.2007,3.1638,3.1581,3.1552,3.1393,3.1087,3.1335,3.1581,3.1852,3.2092,3.2273,3.2398,3.2411,3.2411,3.2411,3.2411,3.2411,3.2411,3.2411,3.2411,3.2411,3.2411,3.2439,3.2494,3.2547,3.2643,3.2803,3.3106,3.3365,3.3559,3.3894,3.4169,3.4329,3.4613,3.5057,3.5521,3.5554,3.5633,3.5633,3.5689,3.5833,3.5811,3.5784,3.5773,3.5767,3.58,3.5979,3.6017,3.5937,3.5904,3.5855,3.5899,3.5937,3.5877,3.5811,3.5949,3.6155,2.5826,2.5476,2.5774,2.5913,2.5913,2.5913,2.5878,2.5896,2.5861,2.5948,2.6134,2.6255,2.6311,2.6393,2.6718,2.6935,2.6964,2.7335,2.7469,2.7523,2.7776,2.8249,2.8899,2.9468,3.0344,3.119,3.1653,3.1993,3.212,3.2121,3.1938,3.194,3.3394,3.4245,3.4428,3.4215,3.4029,3.366,3.2861,3.2387,3.2356,3.2384,3.233,3.2247,3.2177,3.2136,3.2025,3.1996,3.2053,3.2039,3.2107,3.212,3.2203,3.223,3.2287,3.2328,3.2273,3.2287,3.2259,3.2092,3.212,3.2049,3.1937,3.1595,3.1794,3.188,3.1965,3.2328,3.237,3.2411,3.2411,3.2411,3.2411,3.2411,3.2411,3.2411,3.2411,3.2411,3.2439,3.2465,3.2547,3.2709,3.2776,3.2844,3.3042,3.3326,3.3572,3.3827,3.4243,3.4697,3.488,3.5068,3.5305,3.5684,3.57,3.5711,3.5728,3.5767,3.591,3.5954,3.5888,3.5905,3.5921,3.5975,3.6019,3.6023,3.6017,3.6013,3.6025,3.6058,3.6107,3.6068,3.6051,3.6155,3.6208,2.6611,2.656,2.6104,2.5965,2.5965,2.5913,2.5931,2.6052,2.5983,2.6242,2.6696,2.7074,2.7255,2.7356,2.7343,2.7456,2.7456,2.7503,2.7673,2.7941,2.8303,2.8853,2.9501,3.0285,3.1131,3.158,3.2007,3.2273,3.2384,3.2328,3.2301,3.2522,3.3247,3.386,3.4074,3.3874,3.3351,3.2997,3.2488,3.2373,3.2316,3.2316,3.2315,3.2233,3.2177,3.2136,3.2026,3.2011,3.2011,3.1954,3.2108,3.2219,3.2288,3.2356,3.2398,3.2411,3.2411,3.2411,3.2342,3.2342,3.237,3.2356,3.2272,3.2132,3.2217,3.2315,3.2398,3.2384,3.2411,3.2411,3.2411,3.2411,3.2411,3.2411,3.2411,3.2411,3.2411,3.2411,3.2453,3.2506,3.2682,3.2922,3.3303,3.3446,3.3614,3.3903,3.4337,3.4597,3.4904,3.5287,3.5367,3.5492,3.5594,3.5756,3.5806,3.5839,3.5888,3.5921,3.5991,3.603,3.5997,3.603,3.6073,3.6084,3.6116,3.612,3.6114,3.611,3.6133,3.6228,3.6249,3.6176,3.6137,3.6197,3.6233,2.7188,2.7184,2.6956,2.6875,2.6888,2.6875,2.6888,2.6871,2.6888,2.6973,2.7201,2.7406,2.7503,2.7606,2.799,2.8121,2.8189,2.8599,2.8631,2.8855,2.9235,2.958,3.0149,3.0704,3.1348,3.1752,3.2176,3.2411,3.2398,3.2411,3.2411,3.2598,3.3044,3.3429,3.3598,3.3552,3.3044,3.2582,3.2411,3.237,3.2358,3.2274,3.2261,3.2205,3.2108,3.2122,3.2094,3.2024,3.2066,3.2136,3.2192,3.2219,3.2288,3.2356,3.2398,3.2411,3.2411,3.2411,3.2411,3.2411,3.2411,3.2411,3.2398,3.2411,3.2411,3.2411,3.2411,3.2411,3.2411,3.2411,3.2411,3.2411,3.2411,3.2411,3.2411,3.2411,3.2439,3.2467,3.2627,3.2774,3.3,3.3264,3.37,3.4132,3.4305,3.4512,3.4975,3.5339,3.5509,3.565,3.5644,3.57,3.5789,3.5866,3.5916,3.5986,3.6073,3.6094,3.6099,3.6116,3.6116,3.6174,3.6216,3.6206,3.6184,3.6188,3.6199,3.6195,3.6223,3.6278,3.6272,3.6255,3.6244,3.6233,3.6248,2.7503,2.7503,2.7503,2.7503,2.7503,2.7503,2.7503,2.7503,2.7456,2.7503,2.752,2.7673,2.7805,2.799,2.8484,2.8789,2.8903,2.919,2.9409,2.9611,2.9843,3.0209,3.0644,3.1174,3.1737,3.1951,3.2176,3.2411,3.2411,3.2411,3.2411,3.255,3.2858,3.3121,3.3429,3.3352,3.3059,3.2581,3.2411,3.237,3.2344,3.2316,3.2247,3.2233,3.2163,3.2149,3.2163,3.2122,3.2108,3.2178,3.2219,3.2247,3.233,3.2385,3.2398,3.2411,3.2411,3.2411,3.2411,3.2411,3.2411,3.2411,3.2411,3.2411,3.2411,3.2411,3.2411,3.2411,3.2411,3.2411,3.2411,3.2411,3.2411,3.2411,3.2411,3.2425,3.252,3.2588,3.2841,3.3079,3.343,3.3916,3.4219,3.4661,3.488,3.501,3.5213,3.547,3.5526,3.5644,3.57,3.5795,3.5883,3.5971,3.603,3.6116,3.618,3.6191,3.6195,3.6233,3.6255,3.629,3.6284,3.6252,3.6241,3.6273,3.6262,3.6248,3.6252,3.6273,3.6273,3.6269,3.628,3.6259,3.6269,2.7503,2.7503,2.7503,2.7503,2.7503,2.7503,2.7503,2.752,2.7556,2.759,2.7706,2.8173,2.8468,2.8629,2.919,2.9456,2.9518,2.9627,2.9736,2.9965,3.0524,3.0852,3.1218,3.1695,3.2092,3.2328,3.2411,3.2411,3.2411,3.2411,3.2411,3.2411,3.2581,3.2796,3.3321,3.3367,3.3029,3.2519,3.2427,3.2342,3.2302,3.2315,3.2274,3.2288,3.2274,3.2245,3.2233,3.2219,3.2191,3.2163,3.2248,3.2247,3.2274,3.2356,3.2398,3.2411,3.2411,3.2411,3.2411,3.2411,3.2411,3.2411,3.2411,3.2411,3.2411,3.2411,3.2411,3.2411,3.2411,3.2411,3.2411,3.2411,3.2411,3.2439,3.2439,3.2588,3.2709,3.2975,3.3277,3.3624,3.4227,3.4769,3.4951,3.5166,3.539,3.5532,3.5577,3.5611,3.5633,3.5689,3.5756,3.5905,3.6003,3.6079,3.6148,3.6216,3.6269,3.628,3.628,3.6297,3.628,3.6284,3.6284,3.6284,3.6284,3.6284,3.6284,3.6284,3.6284,3.6284,3.6284,3.6284,3.6284,3.6284,3.6284,2.7503,2.7503,2.7503,2.7503,2.7503,2.7503,2.7503,2.7573,2.7941,2.817,2.8303,2.8871,2.9158,2.9378,2.9812,3.0178,3.0238,3.0748,3.0807,3.0852,3.1306,3.1538,3.181,3.2021,3.2358,3.2384,3.2411,3.2411,3.2411,3.2411,3.2411,3.2411,3.2427,3.2519,3.2689,3.2735,3.2565,3.2442,3.2398,3.2355,3.2328,3.2302,3.2302,3.2315,3.2301,3.2287,3.2315,3.233,3.2288,3.2231,3.2316,3.233,3.233,3.2398,3.2411,3.2411,3.2411,3.2411,3.2411,3.2411,3.2411,3.2411,3.2411,3.2411,3.2411,3.2411,3.2411,3.2411,3.2411,3.2411,3.2411,3.2411,3.2425,3.2506,3.26,3.2895,3.3106,3.3498,3.3856,3.4243,3.4769,3.5057,3.5282,3.5344,3.5543,3.5622,3.5622,3.5678,3.5711,3.5756,3.5839,3.6014,3.6161,3.6208,3.6265,3.628,3.6284,3.629,3.629,3.629,3.6284,3.6284,3.6284,3.6284,3.6284,3.6284,3.6284,3.6284,3.6284,3.6284,3.6284,3.6284,3.6284,3.6284,3.6284,2.7503,2.7503,2.7503,2.764,2.7776,2.7606,2.7606,2.7924,2.8532,2.8839,2.8998,2.9549,2.9843,3.0042,3.0509,3.0851,3.0896,3.1336,3.1496,3.1553,3.184,3.1912,3.2038,3.2219,3.2344,3.2384,3.2411,3.2411,3.2411,3.2411,3.2411,3.2411,3.2411,3.2442,3.2458,3.2458,3.2458,3.2411,3.2411,3.2398,3.237,3.2342,3.2315,3.2358,3.2358,3.2315,3.2384,3.2411,3.2411,3.2411,3.2411,3.2411,3.2411,3.2411,3.2411,3.2411,3.2411,3.2411,3.2411,3.2411,3.2411,3.2411,3.2411,3.2411,3.2411,3.2411,3.2411,3.2411,3.2425,3.2425,3.2439,3.2439,3.2588,3.2682,3.2933,3.3209,3.3585,3.3969,3.4321,3.4721,3.5045,3.5333,3.5481,3.5532,3.56,3.5622,3.5644,3.5711,3.58,3.5866,3.5949,3.609,3.6219,3.6255,3.6269,3.629,3.6284,3.6284,3.6284,3.6284,3.6284,3.6284,3.6284,3.6284,3.6284,3.6284,3.6284,3.6284,3.6284,3.6284,3.6284,3.6284,3.6284,3.6284,3.6284,2.7553,2.7536,2.7553,2.796,2.8368,2.8023,2.8088,2.8594,2.9253,2.9534,2.958,3.0238,3.0524,3.0658,3.119,3.1394,3.1409,3.1655,3.1611,3.1625,3.1855,3.1954,3.2067,3.2163,3.233,3.2384,3.2411,3.2411,3.2411,3.2411,3.2411,3.2411,3.2411,3.2411,3.2411,3.2411,3.2411,3.2411,3.2411,3.2411,3.2384,3.2398,3.2384,3.2398,3.2384,3.2384,3.2411,3.2411,3.2411,3.2411,3.2411,3.2411,3.2411,3.2411,3.2411,3.2411,3.2411,3.2411,3.2411,3.2411,3.2411,3.2411,3.2411,3.2411,3.2411,3.2411,3.2411,3.2451,3.2492,3.2492,3.2492,3.2668,3.2857,3.3068,3.3329,3.3649,3.4045,3.4407,3.4709,3.5045,3.5356,3.5566,3.5577,3.5611,3.57,3.5717,3.5756,3.5855,3.5932,3.603,3.6101,3.6165,3.6244,3.628,3.6284,3.6284,3.6284,3.6284,3.6284,3.6284,3.6284,3.6284,3.6284,3.6284,3.6284,3.6284,3.6284,3.6284,3.6284,3.6284,3.6284,3.6284,3.6284,3.6284,3.6284,2.8219,2.8254,2.8714,2.9048,2.9237,2.9503,2.9487,2.9347,2.9919,3.0208,3.0239,3.0911,3.1131,3.1263,3.1409,3.1481,3.1525,3.1539,3.1539,3.1655,3.1869,3.1968,3.2109,3.2233,3.2358,3.2425,3.2453,3.2533,3.2467,3.2453,3.248,3.2411,3.2508,3.248,3.2467,3.2411,3.2425,3.2467,3.2479,3.2453,3.2453,3.2453,3.2439,3.2425,3.2411,3.2411,3.2411,3.2411,3.2411,3.2411,3.2411,3.2411,3.2411,3.2411,3.2411,3.2411,3.2411,3.2411,3.2411,3.2411,3.2411,3.2411,3.2411,3.2411,3.2411,3.2439,3.2439,3.2547,3.272,3.2801,3.3002,3.3185,3.3394,3.3652,3.3919,3.4231,3.4589,3.488,3.5178,3.5282,3.56,3.5644,3.5656,3.5778,3.5872,3.585,3.5883,3.5982,3.6051,3.6137,3.6191,3.6244,3.6265,3.6284,3.6284,3.6284,3.6284,3.6284,3.6284,3.6284,3.6284,3.6284,3.6284,3.6284,3.6284,3.6284,3.6284,3.6284,3.6284,3.6284,3.6284,3.6284,3.6284,3.6284,3.6284,2.8661,2.8949,2.9331,2.9658,2.9996,3.0614,3.0644,3.0404,3.0718,3.0911,3.094,3.1292,3.1496,3.1467,3.1481,3.1496,3.1496,3.1611,3.1597,3.1611,3.1912,3.1996,3.2136,3.2453,3.2722,3.2763,3.2924,3.3161,3.2975,3.3018,3.3071,3.3049,3.2886,3.2736,3.2682,3.2574,3.2561,3.2668,3.2707,3.2586,3.2574,3.2615,3.2615,3.2467,3.2439,3.2425,3.2411,3.2411,3.2411,3.2411,3.2411,3.2411,3.2411,3.2411,3.2411,3.2411,3.2411,3.2411,3.2411,3.2411,3.2411,3.2411,3.2425,3.2547,3.2574,3.2588,3.267,3.2763,3.3013,3.3248,3.3521,3.3793,3.4032,3.4297,3.4565,3.4857,3.5131,3.539,3.5521,3.5577,3.5644,3.57,3.5789,3.5932,3.5997,3.5954,3.5975,3.609,3.6148,3.6202,3.6244,3.6269,3.628,3.6284,3.6284,3.6284,3.6284,3.6284,3.6284,3.6284,3.6284,3.6284,3.6284,3.6284,3.6284,3.6284,3.6284,3.6284,3.6284,3.6284,3.6284,3.6284,3.6284,3.6284,3.6284,2.903,2.9596,2.9628,3.0072,3.0614,3.1205,3.1438,3.1496,3.1423,3.1481,3.1467,3.1481,3.1496,3.1496,3.1496,3.1496,3.1524,3.1611,3.1597,3.1539,3.1925,3.2066,3.2261,3.2734,3.2989,3.3329,3.3575,3.3681,3.3872,3.3809,3.3697,3.3886,3.3491,3.3264,3.3211,3.2935,3.2989,3.3224,3.3316,3.329,3.2949,3.2949,3.3029,3.2602,3.2506,3.2492,3.2439,3.2411,3.2411,3.2411,3.2411,3.2411,3.2411,3.2411,3.2411,3.2411,3.2411,3.2411,3.2411,3.2411,3.2411,3.2425,3.2451,3.2722,3.2828,3.2788,3.2855,3.3253,3.355,3.3818,3.4082,3.4366,3.4637,3.4809,3.4998,3.5189,3.5379,3.5566,3.5633,3.5711,3.5828,3.5872,3.5866,3.5997,3.6112,3.6062,3.6094,3.6208,3.6223,3.6248,3.6269,3.629,3.6284,3.6284,3.6284,3.6284,3.6284,3.6284,3.6305,3.6284,3.6284,3.6284,3.6284,3.6284,3.6284,3.6284,3.6284,3.6284,3.6284,3.6284,3.6284,3.6284,3.6284,3.6284,3.6284,3.0117,3.0314,3.0807,3.1117,3.1278,3.1423,3.1496,3.1496,3.1496,3.1496,3.1496,3.1496,3.1496,3.1496,3.1496,3.1496,3.151,3.1553,3.1524,3.164,3.1925,3.2177,3.2233,3.2962,3.3237,3.3381,3.3665,3.4123,3.4161,3.4111,3.4036,3.4014,3.3818,3.3805,3.3805,3.3537,3.3588,3.3802,3.4045,3.402,3.3755,3.3614,3.3575,3.3172,3.2986,3.2734,3.26,3.2425,3.2411,3.2411,3.2411,3.2411,3.2411,3.2411,3.2411,3.2411,3.2411,3.2411,3.2411,3.2411,3.2411,3.2561,3.2695,3.2973,3.309,3.3024,3.3235,3.3729,3.4098,3.4358,3.4625,3.4927,3.5166,3.527,3.5362,3.5481,3.5588,3.5656,3.5739,3.5861,3.5982,3.6014,3.5997,3.6051,3.6148,3.6202,3.6216,3.6269,3.6259,3.6273,3.628,3.6284,3.6284,3.6284,3.6326,3.6378,3.643,3.6399,3.6399,3.6357,3.6294,3.6284,3.6284,3.6284,3.6284,3.6284,3.6284,3.6284,3.6284,3.6284,3.6284,3.6284,3.6284,3.6284,3.6284,3.0688,3.0984,3.1336,3.1496,3.1496,3.1496,3.1496,3.1496,3.1496,3.1496,3.1496,3.1496,3.1496,3.1496,3.1496,3.1496,3.1496,3.1496,3.1496,3.1625,3.2078,3.2342,3.2736,3.3342,3.384,3.4053,3.4451,3.4749,3.4593,3.4714,3.4761,3.4593,3.4509,3.4358,3.4333,3.4198,3.4173,3.4354,3.4714,3.4709,3.4553,3.4439,3.4095,3.37,3.3287,3.3053,3.2815,3.2573,3.2411,3.2411,3.2411,3.2411,3.2411,3.2411,3.2411,3.2411,3.2411,3.2411,3.2411,3.2425,3.2439,3.26,3.2906,3.3182,3.3675,3.3688,3.3991,3.4431,3.4451,3.4673,3.5033,3.5367,3.5413,3.5498,3.5515,3.5588,3.5667,3.5751,3.5828,3.591,3.6036,3.6129,3.6133,3.617,3.6244,3.6248,3.6273,3.6284,3.6284,3.6284,3.6284,3.6284,3.6284,3.6444,3.6618,3.6648,3.6638,3.6587,3.6492,3.644,3.6378,3.6315,3.6284,3.6284,3.6284,3.6284,3.6284,3.6284,3.6284,3.6284,3.6284,3.6284,3.6284,3.6284,3.6284,3.0984,3.1467,3.1496,3.1496,3.1496,3.1496,3.1496,3.1496,3.1496,3.1496,3.1496,3.1496,3.1496,3.1496,3.1496,3.1496,3.1568,3.174,3.1683,3.1923,3.2557,3.2776,3.3303,3.4045,3.4476,3.4864,3.5224,3.535,3.5332,3.5361,3.5333,3.5406,3.52,3.4904,3.4761,3.4577,3.4516,3.4793,3.5057,3.5213,3.5201,3.5155,3.4637,3.4119,3.3675,3.3404,3.3169,3.2868,3.2574,3.248,3.2494,3.2411,3.2411,3.2411,3.2411,3.2411,3.2411,3.2411,3.2439,3.2533,3.2532,3.2666,3.3064,3.3585,3.4107,3.4468,3.4757,3.488,3.4899,3.5045,3.5396,3.5577,3.56,3.5639,3.5644,3.5689,3.5773,3.585,3.5938,3.6019,3.6084,3.6187,3.624,3.6286,3.629,3.6284,3.6284,3.6284,3.6284,3.6284,3.6284,3.6284,3.6284,3.6505,3.6729,3.7003,3.7026,3.6658,3.6546,3.6512,3.6482,3.6474,3.6412,3.6284,3.6284,3.6284,3.6284,3.6284,3.6284,3.6284,3.6284,3.6284,3.6284,3.6284,3.6284,3.1365,3.1496,3.1496,3.1496,3.1496,3.1496,3.1496,3.1496,3.1496,3.1496,3.1496,3.1496,3.1496,3.1496,3.1496,3.1539,3.1696,3.1938,3.2191,3.2398,3.3066,3.3264,3.364,3.4427,3.4986,3.5333,3.5532,3.5554,3.556,3.5577,3.5588,3.556,3.556,3.5413,3.5413,3.5264,3.5201,3.5356,3.5367,3.5487,3.5509,3.539,3.5166,3.4793,3.4553,3.4219,3.3856,3.3329,3.3132,3.2935,3.2656,3.2467,3.2411,3.2425,3.2439,3.2547,3.2533,3.2588,3.267,3.2895,3.3,3.3116,3.362,3.4288,3.4733,3.5057,3.527,3.5367,3.539,3.5385,3.5622,3.5622,3.5633,3.5678,3.57,3.5839,3.5938,3.6014,3.6101,3.6148,3.6184,3.6255,3.6259,3.629,3.6284,3.6284,3.6284,3.6284,3.6284,3.6284,3.6284,3.6284,3.6284,3.6311,3.6437,3.7283,3.7412,3.6974,3.6648,3.6678,3.6709,3.6719,3.6628,3.6378,3.6294,3.6284,3.6284,3.6284,3.6284,3.6284,3.6284,3.6284,3.6284,3.6284,3.6284]}]]